GFSGL_925_spd_000.txt.gz
Wind_Speed
44 44 40 37 34 29 27 26 25 22 20 19 18 17 17 16 14 14 13 12 14 15 15 16 17 17 18 19 20 20 19 18 10 19 18 25 30 31 32 29 29 32 33
42 41 43 39 38 34 31 28 25 23 22 20 20 19 19 18 16 15 12 12 14 14 14 14 17 16 17 17 19 23 24 25 20 19 21 18 26 34 35 33 32 33 33
35 41 40 41 41 39 34 29 27 24 22 21 20 20 19 19 16 13 13 13 15 16 16 17 17 15 17 16 17 21 25 27 28 19 23 20 23 29 30 34 34 35 31
33 39 40 44 47 43 35 30 27 24 22 23 22 21 19 17 15 14 14 16 18 19 18 18 16 15 16 17 19 21 24 25 25 21 20 23 21 24 23 24 26 26 27
37 38 45 50 41 31 32 32 22 26 27 24 22 22 20 18 17 16 17 18 19 19 17 17 16 15 16 18 20 21 22 23 24 17 18 20 21 20 21 23 24 27 29
35 39 32 23 26 29 18 27 33 31 31 29 26 24 21 20 18 19 20 21 21 20 19 17 17 18 19 18 17 20 23 24 25 18 18 18 25 23 23 22 24 26 15
30 25 21 26 26 32 25 29 43 30 32 31 28 26 24 21 16 22 21 20 21 21 19 20 20 20 18 16 19 21 21 21 21 20 17 22 23 29 25 25 24 28 33
27 22 25 30 34 33 26 30 33 33 31 26 26 27 25 23 17 22 20 21 20 21 22 20 18 20 19 18 19 21 19 17 19 19 19 25 28 33 29 29 32 32 38
22 26 30 33 38 35 32 35 35 28 26 24 23 24 24 24 22 22 16 22 20 19 18 18 16 17 17 17 17 17 18 18 19 21 23 25 26 27 28 27 27 26 26
25 28 31 33 37 32 26 22 19 16 12 10 6 3 13 30 29 20 20 18 18 15 16 16 14 14 15 16 14 12 13 16 21 26 27 26 23 25 24 25 27 28 32
27 26 27 24 27 17 15 18 15 11 8 8 8 11 16 22 41 24 16 14 14 13 15 14 11 11 11 10 9 9 12 16 21 21 20 21 21 22 25 27 33 33 36
22 24 21 21 17 13 15 16 13 10 11 10 13 15 14 24 32 19 13 12 12 13 13 11 10 10 11 9 8 9 12 14 17 18 16 18 21 23 29 29 37 40 42
23 23 22 19 19 18 17 20 16 12 12 11 22 21 20 19 15 9 10 11 11 10 10 11 13 13 11 7 7 10 12 13 15 15 16 19 23 26 30 31 37 37 43
25 25 25 23 20 20 18 10 7 6 7 9 21 22 16 12 11 9 8 8 9 9 11 12 13 6 6 5 6 9 10 11 12 15 19 22 24 27 29 30 31 34 34
27 26 24 24 27 24 18 14 9 10 16 19 22 13 14 16 13 11 9 8 9 11 12 8 2 5 4 4 8 9 9 10 14 16 19 22 24 27 29 30 29 31 27
29 26 23 23 23 22 19 10 11 14 13 8 11 9 10 8 8 9 9 10 12 11 6 4 4 3 2 5 7 8 9 12 14 16 17 19 20 25 28 29 27 25 25
16 21 26 22 26 24 18 18 14 6 8 9 9 8 6 8 7 5 4 5 3 4 5 4 3 2 3 3 4 6 9 12 14 14 16 17 18 23 24 25 25 23 25
19 25 19 11 15 18 17 19 17 16 16 14 11 9 8 6 5 3 3 2 1 0 2 3 3 1 1 2 5 8 11 12 13 14 16 17 18 18 20 21 22 20 22
11 17 14 10 7 9 13 14 16 15 16 16 15 14 12 11 8 5 5 5 3 3 2 3 3 2 2 4 7 10 10 9 10 13 15 16 17 18 18 19 22 23 20
5 4 5 5 5 6 10 15 18 17 15 18 17 16 14 11 9 8 5 3 1 3 5 4 3 3 4 5 8 9 6 6 8 11 14 16 17 18 17 17 17 20 20
9 8 6 7 9 12 16 15 15 15 16 15 15 14 12 10 7 7 6 5 4 5 4 3 2 2 3 6 7 4 3 5 7 9 13 16 17 18 19 16 15 13 14
6 5 4 4 6 7 10 11 12 14 14 13 13 12 10 8 6 8 8 8 7 7 5 4 1 2 4 4 2 2 4 5 7 9 12 14 16 17 18 16 15 15 14
6 4 4 4 6 8 7 8 8 7 8 11 13 12 12 10 9 8 9 8 8 7 7 5 2 3 3 1 0 2 4 6 8 9 11 13 14 15 16 15 16 15 15
5 6 5 5 6 6 7 8 8 9 10 10 11 14 13 13 12 11 10 9 10 10 10 7 4 3 2 2 2 0 2 5 6 8 9 11 12 12 13 13 13 14 13
8 8 6 5 5 5 7 7 8 9 10 12 14 16 17 17 16 14 11 10 11 11 12 9 5 3 3 3 2 1 2 3 5 7 7 9 8 8 10 11 12 11 14
8 6 3 3 4 7 9 10 10 10 9 11 12 14 18 21 20 18 14 12 12 13 13 11 8 6 6 3 1 2 2 3 3 4 5 6 6 6 8 10 11 10 12

GFSGL_925_spd_003.txt.gz
Wind_Speed
29 30 29 29 27 24 29 29 24 23 24 21 21 21 18 17 15 14 14 13 12 12 11 11 12 12 11 11 11 14 15 14 16 23 20 17 19 20 17 17 19 20 20
34 30 31 28 33 32 31 23 22 22 22 22 22 21 19 15 14 15 14 15 14 13 12 10 11 10 10 11 12 14 16 17 18 20 25 22 20 21 21 21 21 20 21
30 30 30 28 30 33 32 25 21 16 18 22 22 23 21 17 16 16 17 16 15 13 12 12 13 11 13 13 13 14 15 17 16 19 22 23 22 20 22 23 22 23 22
30 31 30 30 25 22 24 23 18 9 13 24 23 24 21 18 18 16 16 18 17 15 16 15 16 14 14 13 14 14 16 17 17 17 21 23 23 21 20 22 24 24 26
28 28 26 17 17 21 31 33 24 24 24 34 29 26 22 22 19 18 19 18 17 17 16 16 18 17 17 16 14 17 15 17 17 19 22 22 22 22 22 23 25 26 28
24 22 18 19 24 27 32 38 40 32 21 41 33 31 26 26 22 20 21 18 17 17 17 17 19 20 20 19 19 19 19 19 21 22 24 23 23 23 23 23 25 27 21
19 17 18 24 26 33 40 40 37 38 30 42 36 40 35 28 25 22 22 22 18 18 20 21 20 16 19 16 17 19 20 22 23 21 19 19 21 24 24 26 26 27 28
14 15 19 24 25 29 34 36 41 39 34 32 32 30 30 27 26 20 14 15 22 22 18 20 17 18 13 15 15 16 17 16 15 13 15 18 19 22 22 24 28 27 29
14 16 19 24 26 29 33 33 31 27 27 27 19 18 17 19 19 19 15 16 20 29 27 18 14 13 14 16 15 15 15 14 12 15 18 21 23 25 21 19 23 22 23
14 17 20 21 23 27 28 25 20 19 21 15 14 15 18 19 22 23 19 24 23 30 26 15 13 11 13 13 12 10 12 11 11 16 18 18 17 18 19 14 18 18 22
16 17 18 22 25 25 24 19 17 20 17 18 21 25 23 17 18 22 22 25 19 19 17 9 6 9 8 9 9 6 7 10 13 14 17 16 16 16 15 15 18 19 24
16 17 19 18 17 17 17 14 14 18 20 16 15 17 20 18 18 20 16 19 15 12 13 6 4 5 8 10 7 9 9 11 12 14 14 15 16 17 18 20 22 23 27
19 21 21 17 19 19 17 15 17 18 17 15 15 16 16 13 10 13 11 6 7 9 4 4 7 10 11 7 7 8 9 9 11 12 13 14 16 18 19 21 24 24 27
15 16 17 20 19 19 18 16 15 15 16 17 14 10 7 5 5 7 5 5 7 4 3 4 8 8 5 4 5 6 7 8 10 11 12 14 16 18 19 20 23 25 26
20 20 20 19 20 16 12 13 11 8 13 9 10 9 7 6 8 10 9 8 5 3 4 3 3 3 5 6 6 7 7 7 9 10 12 14 16 18 20 21 21 23 21
12 15 16 15 14 15 14 11 11 11 10 7 8 5 5 6 7 10 8 5 5 7 3 5 5 6 7 6 5 5 5 6 8 11 13 14 16 17 19 22 20 20 21
12 12 14 15 17 14 12 11 8 4 5 6 7 6 6 7 6 4 2 1 2 2 3 4 5 7 5 4 3 3 6 8 9 10 12 13 15 16 18 20 19 20 23
5 13 14 12 11 11 12 11 8 9 9 8 10 10 7 6 6 5 4 2 2 2 4 5 6 5 3 2 2 4 7 8 9 9 10 12 13 15 17 18 18 18 20
8 11 10 5 6 11 12 11 9 8 7 10 10 9 10 8 6 4 4 4 4 5 5 5 4 3 2 2 4 5 7 7 7 8 9 11 12 14 16 18 18 18 17
1 4 9 10 10 9 9 10 11 11 12 12 11 10 10 9 7 7 5 3 4 4 4 5 4 2 2 3 4 5 5 5 5 6 8 10 12 13 15 17 18 18 17
6 9 11 11 10 10 10 11 11 12 11 10 10 10 13 11 8 7 6 5 6 5 5 4 3 3 2 3 4 3 3 3 4 6 8 9 12 14 15 16 17 16 15
8 8 6 6 7 7 7 6 7 8 8 10 9 10 13 11 8 8 8 8 6 6 5 6 4 2 2 2 2 1 2 3 4 6 7 9 11 12 14 16 17 16 16
8 7 6 5 5 6 6 7 8 8 8 8 9 9 12 13 10 9 9 8 8 8 7 6 4 2 2 2 2 1 1 2 4 6 7 9 10 12 13 14 16 17 16
5 4 4 3 3 5 6 7 7 6 5 6 7 9 10 10 9 9 8 8 8 8 7 7 5 3 3 3 3 3 2 2 3 5 7 8 9 11 11 12 13 15 16
5 5 4 4 3 3 3 4 5 5 6 5 5 5 7 9 10 10 9 9 9 9 8 8 6 5 5 5 5 4 5 3 3 4 5 7 7 8 10 10 11 12 14
6 5 4 4 3 3 4 5 6 6 5 5 4 5 7 8 10 10 11 10 10 10 10 10 8 7 7 7 5 4 3 3 3 2 3 5 6 6 8 9 11 10 11

GFSGL_925_spd_009.txt.gz
Wind_Speed
32 30 29 30 29 29 27 26 24 22 22 19 23 23 22 20 20 18 14 11 10 11 13 11 11 11 11 11 10 11 11 13 14 16 20 19 16 18 20 18 19 20 23
32 31 31 30 31 31 30 28 28 27 25 26 27 28 26 26 22 18 17 16 14 14 16 16 15 14 14 13 10 13 12 12 15 15 19 18 18 20 17 17 21 21 22
33 33 32 33 32 31 31 30 32 30 29 29 30 30 28 28 25 24 20 18 16 17 16 17 15 15 13 14 12 13 14 15 13 18 18 19 21 23 26 21 22 24 24
34 34 33 34 33 32 31 33 31 32 32 34 33 30 29 28 26 23 21 19 19 18 18 17 16 16 16 15 16 16 18 17 19 17 18 19 19 23 26 17 19 25 27
32 32 32 31 30 30 31 33 31 31 34 34 34 30 28 25 21 22 19 18 20 20 17 16 16 18 19 18 16 18 19 18 21 20 20 20 21 20 20 23 24 23 22
32 33 31 30 30 30 30 28 27 29 29 29 27 27 27 26 22 22 20 18 20 19 18 18 19 18 15 16 18 17 22 26 22 20 20 20 21 20 21 20 21 24 18
28 27 25 28 30 28 26 26 28 27 29 31 31 26 22 21 20 23 22 19 18 18 19 18 19 20 18 15 15 15 18 24 26 22 19 21 20 18 20 20 21 22 25
25 23 24 24 24 23 24 27 24 27 30 28 26 23 18 19 20 20 20 21 20 21 20 20 19 19 17 15 16 21 21 21 20 20 22 21 19 18 17 20 23 25 27
23 22 23 24 24 24 25 25 24 25 25 26 25 23 21 20 17 22 23 21 22 23 23 20 17 18 20 23 22 20 19 20 18 22 22 19 20 21 20 18 19 20 21
25 24 23 23 23 23 21 20 20 20 19 19 22 21 18 16 18 20 23 26 24 24 24 20 21 24 22 19 17 13 14 16 17 17 13 17 21 23 23 26 23 21 21
23 22 22 21 21 19 17 16 15 15 14 17 19 18 16 15 17 21 22 23 20 17 16 18 16 19 17 16 14 10 13 15 14 15 18 21 19 19 19 15 12 16 21
23 22 20 19 17 16 18 14 14 14 13 13 14 14 13 13 13 15 17 22 16 9 11 13 14 19 12 11 13 14 16 16 15 17 20 18 18 19 18 16 20 24 23
20 20 18 17 13 15 15 14 11 10 11 13 14 15 10 11 9 14 12 11 14 18 16 16 12 10 8 10 15 16 14 12 15 17 16 17 18 18 18 21 20 20 21
17 18 18 17 14 14 13 12 13 14 14 13 8 5 5 6 9 5 9 12 14 13 12 5 5 5 8 9 5 9 9 11 12 13 15 16 17 18 19 19 21 22 23
17 17 16 17 15 14 10 8 5 5 6 6 6 7 8 8 10 9 3 10 9 11 11 9 8 10 12 14 14 13 12 12 12 12 14 16 17 18 18 19 20 22 21
17 17 16 16 15 16 13 10 9 6 5 4 6 5 5 7 13 17 15 9 9 9 6 11 13 12 12 10 10 9 10 10 11 11 13 16 16 17 17 18 19 19 19
14 15 14 15 19 19 14 15 13 6 5 4 6 8 6 9 11 13 14 11 8 6 8 11 10 9 10 9 9 10 11 10 8 13 14 15 15 15 16 17 17 18 18
11 10 15 12 12 13 12 12 12 13 10 6 5 9 9 9 10 11 10 8 6 7 8 8 7 7 8 8 9 9 10 10 12 13 13 14 13 13 14 15 16 16 18
11 12 11 12 13 11 10 10 9 9 9 15 10 9 12 13 12 10 9 8 10 8 6 5 6 7 8 7 8 8 9 11 10 12 11 11 11 12 13 15 16 17 18
6 11 11 13 11 9 10 9 9 7 8 20 12 10 12 12 9 9 9 9 9 8 6 6 5 5 6 6 8 8 10 10 10 9 9 9 10 11 13 15 16 18 17
12 13 6 7 9 10 9 10 9 9 10 10 16 24 21 16 13 14 11 9 9 9 7 7 6 5 6 6 8 9 10 9 8 7 8 9 10 12 13 14 16 17 17
10 10 13 12 11 9 8 7 7 7 5 4 18 24 25 13 10 9 8 10 9 9 8 7 7 7 7 7 7 9 9 7 6 6 7 9 10 11 12 14 15 16 17
9 10 6 6 5 6 7 7 7 5 5 8 15 16 11 10 11 10 10 10 8 8 8 7 7 8 7 6 7 7 8 6 4 5 7 9 10 11 13 13 14 15 16
6 8 6 6 3 6 8 4 1 1 4 5 3 5 6 5 10 11 9 8 8 7 8 8 8 8 5 6 7 7 7 4 2 5 7 8 10 11 12 12 13 15 13
5 7 6 5 9 9 10 10 9 11 6 6 8 13 12 11 15 8 4 5 9 11 8 9 9 8 8 8 7 4 5 8 8 7 6 9 9 11 11 12 12 14 12
3 2 2 2 5 5 7 8 9 8 15 18 16 19 18 15 14 13 13 13 12 15 13 10 9 9 8 8 8 11 10 7 6 7 6 6 9 9 9 10 11 13 11

GFSGL_925_spd_012.txt.gz
Wind_Speed
36 35 34 34 33 35 29 32 29 30 26 24 29 28 27 26 25 25 23 22 23 22 19 16 9 11 11 10 10 6 7 7 2 12 16 16 18 17 17 18 21 23 20
37 36 37 36 34 34 35 30 33 29 29 35 30 30 29 30 29 29 27 22 22 24 20 16 14 12 15 14 12 10 10 12 11 12 17 18 15 13 15 18 19 22 21
37 38 37 35 35 36 36 36 29 32 33 32 33 35 33 34 33 35 32 27 24 24 21 20 18 17 16 14 12 14 13 11 11 14 18 20 23 22 23 22 24 24 22
38 38 37 37 38 38 35 34 35 34 35 32 34 32 32 33 35 35 29 26 26 23 21 20 18 18 18 19 19 17 16 15 14 16 24 18 16 18 21 17 17 19 20
39 38 38 37 38 35 34 34 35 35 32 32 29 29 30 30 29 28 27 26 26 23 21 21 19 18 18 20 19 19 18 16 15 16 17 19 20 19 17 21 21 21 23
38 39 38 38 37 37 35 34 31 31 30 30 30 30 28 27 27 28 26 24 27 24 22 19 19 19 22 24 26 21 20 18 21 20 17 19 19 19 18 19 18 17 15
34 37 37 37 36 34 33 30 29 29 29 29 28 27 23 23 26 24 31 27 24 23 22 20 19 20 19 19 18 17 21 22 23 23 25 21 21 21 21 20 17 17 19
29 34 34 33 33 32 30 29 28 26 25 22 21 22 25 20 20 21 17 21 26 24 23 22 23 22 19 17 21 21 24 23 28 23 22 24 25 23 19 19 23 24 25
33 28 33 28 29 28 27 24 22 20 18 19 19 21 18 19 20 21 22 26 29 26 21 20 19 21 24 23 24 22 25 24 22 19 23 25 25 22 23 23 24 17 17
27 28 25 26 27 25 23 20 20 20 17 17 19 19 20 24 22 22 23 25 22 23 23 25 25 26 24 23 20 21 15 16 13 16 15 13 16 24 26 26 32 20 18
23 22 21 21 21 20 18 20 16 15 14 17 17 18 21 24 21 19 20 26 22 20 26 24 23 19 21 21 18 14 12 14 15 14 15 20 23 26 25 20 12 15 16
22 21 20 19 18 16 17 15 16 16 15 15 15 16 17 16 15 16 17 22 19 14 10 9 13 14 16 13 11 12 15 15 15 14 16 20 21 11 12 15 21 23 22
23 22 20 19 15 20 20 18 17 15 14 14 14 14 14 10 11 13 15 16 16 20 13 14 11 9 11 9 10 12 13 13 12 15 17 12 16 16 18 20 18 17 18
24 21 22 21 19 19 19 19 15 13 11 11 12 8 7 8 10 10 12 14 13 13 11 3 6 6 8 10 13 13 14 12 10 12 15 15 13 14 17 17 18 18 21
23 20 20 22 20 19 16 12 12 11 11 11 12 12 11 13 14 12 8 9 11 11 8 8 11 9 14 19 19 16 15 14 17 13 9 11 14 17 15 16 17 22 21
21 19 19 19 17 14 15 12 11 11 9 8 10 13 10 9 12 12 8 8 7 11 14 13 11 15 14 5 20 20 20 19 11 1 7 12 15 14 15 16 17 17 18
23 21 21 22 20 19 17 16 12 9 8 8 7 7 6 9 10 11 10 11 11 10 7 10 15 8 3 5 6 8 8 6 6 7 9 9 12 15 14 14 17 16 16
22 26 23 23 23 22 21 20 19 16 13 8 7 9 9 9 11 10 11 10 8 10 11 12 5 4 5 2 2 5 7 8 9 10 11 12 15 13 13 15 16 16 19
14 14 17 11 20 24 19 15 20 22 20 18 15 14 14 14 13 12 12 9 8 10 13 7 3 1 3 4 2 3 3 5 8 10 9 11 9 12 13 16 16 19 21
10 9 11 13 16 12 13 11 12 13 25 20 19 18 20 18 14 13 11 8 6 8 4 1 2 1 3 3 4 4 6 7 9 8 6 9 10 10 14 16 17 20 20
10 8 5 13 14 12 13 12 12 12 19 20 20 21 22 21 17 16 16 12 10 6 5 4 0 1 2 6 7 5 5 8 8 5 6 8 10 12 15 13 19 18 18
16 13 8 6 14 14 12 9 8 4 10 17 15 25 19 17 14 12 17 17 11 8 4 5 4 4 5 2 2 4 7 9 7 2 5 8 11 13 12 15 18 17 17
12 14 12 7 14 14 2 6 7 8 12 5 14 18 20 11 10 6 8 8 8 7 8 7 4 5 6 5 2 4 7 8 4 5 4 7 11 12 12 16 17 14 18
5 11 13 15 12 6 2 4 7 6 16 12 15 18 19 12 5 3 3 9 9 9 10 8 7 5 1 0 2 5 6 4 3 1 5 6 12 12 12 15 14 15 19
5 7 5 4 9 5 6 12 19 18 7 9 18 16 15 12 10 8 11 14 13 11 10 10 9 6 7 5 4 3 3 4 5 8 7 6 8 12 11 9 15 15 16
6 5 3 3 2 4 4 6 1 10 11 10 9 11 12 12 11 13 17 14 13 13 13 14 13 11 8 6 9 9 7 8 9 7 6 5 7 13 9 10 13 14 13

GFSGL_925_spd_015.txt.gz
Wind_Speed
40 39 37 39 41 39 36 32 34 29 29 25 33 36 34 30 28 27 26 23 25 23 22 19 17 17 13 13 6 2 3 4 6 5 7 9 10 14 14 16 17 20 22
42 39 38 37 35 35 37 39 35 33 32 32 33 38 36 35 32 31 30 28 27 27 25 23 20 15 18 16 13 9 5 5 4 6 10 13 15 16 15 17 19 20 23
40 39 37 36 35 36 39 38 37 38 37 35 36 39 41 38 35 34 34 31 28 27 28 25 23 21 21 19 17 15 12 10 9 10 15 17 19 20 21 20 20 15 11
40 39 37 38 40 39 38 39 41 36 40 40 39 41 41 40 37 36 35 33 31 25 25 26 26 24 23 22 19 17 16 17 16 15 17 18 18 20 15 10 15 20 23
40 39 39 39 38 36 36 35 38 38 36 39 38 37 39 38 36 36 36 34 32 29 25 27 28 27 25 24 23 22 21 20 20 19 18 20 23 20 14 15 16 22 25
41 40 39 36 37 36 35 35 35 37 36 35 35 35 33 33 35 37 37 35 31 28 29 28 29 27 26 25 25 23 23 24 24 22 22 22 24 21 18 17 18 18 6
40 40 39 38 36 37 33 34 35 34 33 32 33 34 33 33 34 32 28 32 30 30 30 30 29 28 27 27 27 27 26 27 24 23 22 26 27 26 22 20 22 19 21
39 39 41 39 39 35 36 35 33 32 33 34 35 33 32 30 28 27 28 29 30 30 31 31 29 30 27 24 20 22 23 19 20 20 24 26 26 23 22 22 23 21 26
36 38 42 41 37 36 34 33 31 29 30 31 31 27 29 27 26 26 21 19 26 26 28 27 27 25 25 21 20 21 21 26 21 23 20 19 20 22 23 21 22 23 15
39 38 38 39 35 34 33 30 30 30 29 24 22 23 22 22 24 26 26 26 28 30 28 27 22 21 21 16 17 26 22 22 15 13 13 13 14 17 20 24 28 21 18
33 30 33 33 33 33 32 33 32 27 24 21 19 19 21 19 21 20 21 26 27 22 21 21 21 22 22 21 22 26 22 15 12 14 17 18 18 17 20 14 7 9 13
31 30 31 32 30 36 36 30 26 24 21 20 21 20 19 18 17 19 20 22 24 23 18 17 17 21 24 20 21 17 13 11 12 14 15 14 14 9 8 10 12 12 14
32 32 33 32 32 32 31 31 26 23 23 21 20 18 17 13 16 17 17 18 21 20 17 11 12 14 17 19 16 9 9 10 8 10 10 11 10 10 9 14 14 14 14
31 30 32 33 31 28 26 26 25 22 20 19 18 16 14 16 16 14 14 15 17 19 17 14 9 8 9 9 11 12 12 11 11 11 10 11 7 8 12 12 14 16 20
30 28 29 29 27 28 24 21 22 19 16 17 16 18 18 16 15 13 11 13 15 15 13 11 12 11 10 12 14 13 13 13 14 14 14 7 6 11 10 14 15 18 19
27 24 24 28 28 29 27 23 17 16 12 13 14 16 16 13 14 12 8 6 8 12 13 12 11 11 12 15 16 15 15 14 15 10 5 7 7 7 12 15 14 17 20
27 26 26 25 26 25 26 25 21 15 13 13 15 16 13 19 16 13 10 10 10 12 13 12 10 9 4 11 10 6 4 5 4 2 2 4 8 10 14 12 15 18 19
25 25 23 22 26 29 30 30 28 23 18 14 14 12 12 13 15 14 12 12 12 12 12 11 6 8 9 8 6 6 8 6 2 4 8 9 7 11 9 12 17 18 21
26 23 22 20 19 19 20 22 27 29 23 21 18 16 16 16 15 15 15 13 12 9 10 12 7 13 13 11 8 5 3 1 4 7 7 8 8 8 9 13 18 19 23
20 20 21 22 26 27 25 22 20 20 25 25 23 23 24 21 19 19 18 17 12 8 3 14 13 9 6 3 1 1 2 2 5 9 6 2 4 7 11 16 15 19 26
7 1 5 15 26 28 27 23 26 27 26 28 29 28 27 27 26 24 21 18 15 10 8 13 12 7 2 3 4 4 3 4 7 3 4 2 5 10 14 11 15 22 22
13 13 9 15 20 15 18 16 14 27 22 24 19 22 25 24 22 23 21 19 17 12 12 14 13 11 5 8 10 8 4 5 7 6 5 2 3 10 11 13 17 22 17
11 13 11 7 9 15 18 20 22 26 23 24 21 23 25 26 20 17 23 24 21 17 14 13 12 10 6 8 7 4 2 1 5 4 1 2 4 8 13 15 18 16 18
12 10 16 21 15 11 19 21 21 20 19 20 18 21 29 26 13 13 19 21 18 17 16 14 15 13 12 12 7 5 6 7 6 4 3 6 7 7 12 15 12 18 19
19 20 15 14 11 11 9 5 10 14 14 18 19 20 25 23 19 15 14 16 19 17 17 17 16 14 11 9 8 6 6 6 5 7 10 10 8 6 10 9 10 17 19
13 16 17 17 13 7 6 7 7 7 15 17 21 26 26 24 19 16 15 16 18 15 13 14 15 14 14 12 10 7 6 6 7 8 7 7 6 4 8 9 11 16 14

GFSGL_925_spd_018.txt.gz
Wind_Speed
42 41 39 41 41 40 40 39 37 33 33 37 39 39 36 33 30 28 27 24 22 20 21 20 18 15 13 12 8 4 8 8 6 4 8 8 8 10 12 14 16 17 19
42 40 39 39 38 40 42 45 39 35 33 38 41 42 40 38 35 32 30 29 26 24 23 22 22 18 18 19 16 14 11 11 9 9 10 12 11 13 16 18 19 20 20
41 38 37 37 38 40 44 43 46 42 39 38 37 39 41 41 39 36 33 31 30 27 27 27 25 22 20 18 19 17 16 12 11 11 12 14 18 18 17 12 16 17 14
41 40 38 39 41 41 42 43 43 44 42 42 39 37 37 39 41 39 37 35 33 32 28 28 28 27 26 25 25 22 20 18 17 17 17 17 17 16 16 19 18 17 20
42 41 43 42 40 38 37 40 41 41 39 40 39 38 37 38 41 41 40 39 38 35 31 29 27 29 30 28 24 25 22 22 21 19 19 19 20 21 21 15 14 16 20
41 43 40 40 38 38 36 36 37 37 38 38 38 38 38 39 41 41 41 41 40 35 33 31 28 27 29 29 28 26 25 26 24 12 23 22 25 22 22 20 17 17 6
43 39 39 39 39 39 36 34 34 35 34 36 34 33 36 39 40 40 39 38 34 35 33 32 30 30 28 27 27 27 26 23 20 19 29 27 25 22 22 20 20 19 20
41 39 39 39 39 36 35 35 32 32 34 34 35 35 35 38 39 38 36 33 31 29 31 32 32 30 27 24 26 26 23 19 17 25 24 26 23 22 18 18 19 22 23
36 39 39 39 36 35 35 34 32 31 30 34 38 37 38 31 36 36 31 28 26 25 28 29 28 27 26 20 22 19 19 18 18 23 24 21 18 16 15 15 17 17 15
42 43 43 39 37 36 35 33 33 33 36 35 32 36 30 33 30 28 26 25 25 27 29 24 22 21 21 21 21 21 20 22 21 20 15 12 13 15 15 16 17 19 19
45 39 36 39 38 37 33 33 33 33 31 30 28 25 23 23 24 18 19 22 23 22 21 21 19 19 19 19 21 21 19 18 19 12 12 14 15 13 9 3 6 8 12
36 35 35 38 35 33 36 34 34 34 30 26 23 23 19 16 15 16 19 21 20 20 19 16 12 13 15 17 21 16 13 13 9 9 10 11 7 7 8 6 8 9 10
30 30 31 34 35 37 37 34 31 32 26 22 23 23 21 17 16 15 17 19 19 18 17 16 14 14 15 12 13 13 13 11 11 9 8 6 6 9 5 9 10 10 13
31 30 32 34 33 34 34 35 31 27 23 26 24 23 22 19 18 18 20 19 18 17 15 14 11 9 9 9 9 11 13 13 13 10 9 8 10 7 9 9 11 14 17
30 28 26 28 31 31 27 20 27 32 35 29 27 25 23 20 22 19 16 16 15 16 15 12 12 11 9 9 9 10 11 13 14 12 9 10 11 9 9 9 12 14 14
36 37 21 26 24 27 34 26 21 24 24 23 22 22 22 17 17 16 14 11 13 14 15 15 14 12 9 9 12 14 14 14 13 11 10 8 7 6 8 10 10 12 15
27 26 33 35 32 33 33 27 19 21 22 22 22 23 21 24 22 19 14 12 14 16 14 15 14 11 9 9 8 9 9 9 10 9 6 3 7 10 8 8 10 13 16
23 22 27 27 30 23 33 27 26 22 20 22 22 19 21 23 22 19 18 16 17 16 15 13 10 9 13 13 12 11 10 10 9 6 4 4 2 5 6 8 11 15 17
23 20 24 29 28 27 31 30 25 24 26 26 23 21 22 22 21 20 19 18 19 19 15 11 9 15 17 16 15 14 11 10 7 5 5 5 4 5 6 9 13 14 17
21 18 21 22 28 26 26 29 29 27 23 21 22 24 24 24 24 22 20 18 17 13 9 10 16 19 17 15 11 7 6 5 4 4 6 4 3 2 6 9 11 14 18
20 19 21 23 24 27 23 19 19 22 25 27 28 29 28 28 27 25 24 22 17 13 12 18 21 18 16 12 10 10 7 6 5 5 6 8 5 3 6 8 11 15 17
11 11 12 24 24 22 24 27 21 19 23 24 27 27 26 24 23 25 23 20 20 17 19 21 22 20 16 14 12 12 11 9 9 7 11 8 5 4 4 8 12 14 17
13 12 17 16 18 21 20 21 24 24 27 26 23 22 25 24 22 23 21 22 19 21 20 25 24 20 17 12 12 12 12 10 9 11 10 6 6 6 5 9 12 12 16
13 15 21 20 22 24 23 22 24 23 22 25 26 23 26 27 25 23 20 20 20 22 21 24 22 19 17 16 15 11 8 8 11 11 9 6 6 7 6 7 9 11 14
4 15 18 21 22 23 23 20 20 19 21 24 24 25 27 27 26 21 20 19 19 25 24 23 21 19 20 17 9 8 10 12 12 10 9 10 11 7 4 3 7 10 11
9 17 19 19 17 16 16 14 15 18 18 19 20 19 22 29 30 22 20 20 21 22 20 19 22 20 19 13 9 10 8 10 11 10 11 10 9 9 4 4 4 6 9

GFSGL_925_spd_021.txt.gz
Wind_Speed
40 40 38 40 39 39 42 41 38 35 33 32 32 37 37 34 33 30 28 26 25 22 19 18 16 14 14 14 11 9 10 10 8 7 9 8 8 7 8 11 12 14 15
42 41 41 42 38 39 44 44 40 40 37 34 30 34 39 37 37 35 32 30 28 26 24 22 21 18 16 15 14 13 11 10 10 10 8 10 11 9 11 14 15 13 14
41 40 38 39 39 40 43 46 44 43 41 38 35 36 39 39 38 38 35 33 30 30 28 26 24 22 21 19 17 19 17 15 13 12 10 8 11 13 13 13 15 19 20
40 40 40 40 42 42 43 44 42 44 42 40 40 38 39 41 41 39 39 37 34 33 32 28 27 25 25 22 21 18 17 16 16 16 14 13 12 14 14 15 18 21 20
39 39 42 40 41 38 38 42 42 41 41 43 40 38 38 39 41 41 40 41 38 38 32 30 27 26 27 26 23 22 20 19 18 17 14 11 12 19 21 19 19 19 19
39 42 40 39 39 38 37 38 37 38 40 41 41 41 39 40 40 39 40 40 41 39 35 30 28 28 28 27 25 24 24 21 20 17 13 12 14 19 21 22 23 16 5
42 39 38 39 39 38 36 35 37 38 37 40 40 40 41 41 41 41 38 38 37 36 33 32 31 31 30 26 22 21 23 23 20 15 14 13 14 18 23 20 20 16 18
39 37 36 38 40 37 35 36 35 35 38 37 40 40 40 44 43 38 36 36 34 30 28 26 29 30 31 26 22 20 19 19 18 21 16 15 17 19 22 19 17 17 17
35 37 39 40 38 37 37 37 35 33 33 36 37 39 40 37 34 32 31 32 30 26 22 22 26 26 24 23 20 20 20 16 12 14 17 17 19 18 13 12 15 14 12
37 40 42 42 40 40 40 37 35 35 33 30 36 36 36 34 31 28 24 28 27 24 20 21 21 19 18 17 19 19 17 15 15 15 14 13 9 11 13 15 14 15 14
39 38 35 37 40 40 36 35 37 35 30 29 29 30 33 32 29 25 21 26 25 22 20 19 20 18 17 19 18 19 15 14 13 12 7 5 7 7 6 2 4 6 9
35 34 36 38 38 35 35 32 33 31 30 28 28 31 33 32 28 26 21 20 21 19 18 16 14 11 11 10 11 13 14 13 10 8 6 2 1 0 3 5 6 9 10
30 34 33 35 35 34 36 34 31 33 30 28 30 26 22 23 25 23 21 20 20 17 16 14 11 10 11 12 12 12 13 13 11 9 7 6 4 4 6 6 9 10 12
32 36 34 33 32 37 39 35 35 32 29 28 25 23 28 32 29 25 22 24 21 21 17 13 11 10 9 10 9 10 11 11 10 8 6 6 7 8 8 8 10 11 14
24 25 28 31 34 28 24 22 27 25 29 28 25 27 28 24 38 29 29 28 27 23 19 17 15 12 9 9 9 9 9 9 10 10 9 9 9 9 9 9 10 11 10
21 22 23 24 24 28 31 30 21 18 24 19 21 21 29 28 26 24 23 20 19 20 20 17 14 13 12 12 10 9 9 11 11 11 11 11 9 8 9 9 10 9 10
17 15 19 22 28 28 25 30 26 24 12 11 14 21 22 20 23 24 21 19 19 21 19 17 17 16 14 11 8 10 11 9 9 11 10 9 7 7 9 8 6 8 12
23 27 20 18 18 27 26 25 21 30 24 23 34 29 21 21 25 24 22 22 24 21 19 20 17 15 12 10 12 12 10 8 9 9 8 7 6 4 4 6 7 10 12
24 24 21 23 18 23 21 21 18 32 29 26 27 27 29 29 27 25 25 26 27 22 19 17 15 13 12 15 14 12 11 11 10 8 8 8 8 6 6 6 8 8 11
25 3 25 30 34 27 26 26 23 23 24 26 25 32 33 34 34 33 27 24 23 22 19 16 13 15 18 18 16 15 14 13 11 10 10 9 10 8 6 6 6 8 12
14 20 20 25 26 27 26 27 27 28 27 27 32 37 38 34 32 32 28 25 24 21 19 14 17 18 20 19 19 16 14 13 12 11 9 9 11 8 5 5 5 7 9
26 22 24 23 21 19 21 24 25 24 26 26 28 31 35 31 31 30 28 25 20 18 16 16 16 21 24 22 18 15 14 12 11 10 10 12 10 7 5 5 6 7 10
17 17 21 24 26 25 23 22 23 23 22 26 27 28 30 23 24 28 25 21 21 20 19 20 21 26 25 21 16 14 12 11 10 12 12 13 10 8 8 7 7 7 10
17 19 18 19 18 20 25 26 21 21 21 20 23 25 26 25 21 21 21 20 20 20 20 21 24 23 21 19 16 16 13 7 8 11 13 11 9 8 8 8 7 6 9
13 15 18 16 15 14 13 13 15 16 17 17 19 21 23 22 22 22 22 21 21 19 20 22 20 23 22 16 15 15 11 2 7 12 12 11 10 11 11 9 6 6 7
13 8 16 19 19 17 14 13 13 13 13 14 16 19 19 21 21 22 20 19 17 16 20 20 20 23 23 19 15 14 9 3 7 12 12 12 13 12 11 9 6 6 8

GFSGL_925_spd_024.txt.gz
Wind_Speed
40 40 40 39 40 41 43 47 44 41 40 35 33 31 28 32 31 30 29 26 24 23 21 20 19 18 17 16 14 12 11 11 7 4 6 7 9 6 6 7 8 8 9
43 41 43 43 40 41 44 47 45 42 40 37 34 34 31 32 34 33 32 30 28 27 26 24 21 18 19 17 16 15 13 11 9 8 6 8 9 7 6 8 8 5 8
38 40 39 39 39 41 45 46 46 43 40 37 36 36 34 34 36 35 34 34 32 31 30 28 25 23 23 20 18 17 17 15 13 12 11 10 7 7 8 7 8 13 14
36 38 40 42 43 44 46 46 44 44 42 40 41 39 37 33 35 37 37 36 35 34 33 30 27 26 24 23 21 19 18 18 16 14 12 11 10 8 7 8 14 14 15
38 38 41 41 41 41 39 43 43 44 45 44 42 42 41 39 37 39 39 38 37 36 35 32 28 25 23 23 24 22 20 18 17 16 15 11 11 11 11 7 13 18 23
40 43 40 37 39 41 40 41 41 40 41 41 42 42 42 44 42 39 37 38 36 36 37 36 31 29 26 27 24 22 23 23 21 20 20 16 13 10 9 9 11 12 6
41 40 39 39 40 41 38 37 42 41 39 42 41 40 43 45 43 40 38 38 35 36 36 35 31 30 30 28 25 22 22 22 20 19 19 16 14 12 10 12 14 15 12
37 36 36 38 39 36 36 38 39 38 40 39 40 43 41 43 44 41 39 38 37 35 34 32 27 29 30 28 25 22 19 19 18 17 20 20 16 13 12 13 13 13 14
32 34 35 39 38 38 38 41 39 36 35 37 37 38 43 43 43 42 39 39 38 36 34 28 24 25 24 22 21 20 19 18 14 13 14 15 14 13 12 10 9 7 5
34 40 41 42 40 40 41 39 36 33 33 32 35 43 45 45 43 42 39 41 36 34 32 26 24 22 18 16 18 17 18 17 13 13 16 15 11 8 7 9 9 7 5
35 33 34 37 40 40 37 33 30 30 28 32 34 34 41 43 42 41 40 41 34 26 26 29 24 19 16 14 14 14 13 13 14 13 13 11 9 6 5 5 5 7 7
24 30 33 36 35 35 35 34 34 34 33 31 31 30 33 40 42 40 37 36 32 28 28 28 22 19 15 14 14 14 13 15 13 13 12 12 9 8 8 7 6 6 8
19 25 25 24 26 28 35 37 36 39 30 26 25 26 27 27 39 39 31 31 29 28 26 24 20 18 16 14 14 15 15 17 16 16 15 14 10 8 7 6 7 7 7
16 23 24 26 27 29 28 27 31 33 35 39 31 33 29 24 29 29 33 32 27 25 24 21 20 17 14 13 13 13 16 18 20 17 15 12 10 8 6 7 7 7 8
10 19 22 23 27 24 23 27 29 27 29 20 20 12 15 14 25 32 30 27 30 26 25 23 21 18 15 14 15 16 17 17 17 15 14 12 10 9 8 8 6 6 6
9 15 25 25 26 25 22 11 20 24 20 24 32 40 34 28 7 16 15 26 27 27 27 24 21 20 20 18 19 19 18 18 16 13 12 10 10 10 8 6 4 4 5
14 19 22 24 27 28 25 25 21 34 43 42 29 38 35 37 19 16 24 29 24 29 21 22 22 21 20 22 22 21 19 17 13 12 11 9 10 9 7 6 5 4 4
15 24 27 30 27 26 27 27 29 27 20 18 16 24 32 36 39 34 35 31 32 28 23 27 25 24 24 24 21 18 15 14 13 12 10 10 11 10 8 6 5 3 4
16 7 6 25 32 38 33 30 25 14 10 2 10 19 33 31 31 38 40 32 26 24 24 25 25 27 24 20 17 17 16 14 13 12 12 12 13 11 8 6 4 3 3
17 11 11 16 18 36 27 26 23 21 22 23 7 16 25 40 38 38 32 32 30 29 26 26 26 25 22 19 20 18 16 15 13 13 13 12 14 11 9 7 5 4 4
4 4 5 7 8 3 17 17 24 23 21 27 22 25 31 30 30 31 31 31 31 30 28 28 25 21 20 23 22 20 16 14 14 15 15 14 14 14 12 8 6 5 4
9 9 8 11 8 8 11 9 13 19 23 26 29 33 28 27 30 32 31 29 29 29 26 23 21 22 25 26 24 21 18 16 18 18 14 14 15 14 11 8 7 5 4
10 10 10 11 7 14 16 10 18 16 19 21 26 30 31 29 29 30 30 28 26 24 23 21 20 25 29 28 23 17 20 18 15 14 13 14 17 14 10 8 7 5 4
14 13 15 17 15 11 10 16 17 17 20 22 25 26 24 29 30 32 31 27 25 24 24 24 25 27 29 28 25 21 18 13 12 12 11 12 14 12 9 9 9 7 5
16 14 15 12 12 12 7 8 9 10 12 17 23 24 22 20 18 23 27 27 26 27 27 25 25 23 24 26 24 21 17 13 11 9 11 13 12 11 10 9 9 8 5
12 13 19 20 16 10 14 8 9 8 11 15 14 20 26 30 24 18 22 27 28 28 25 22 22 23 23 23 20 18 17 13 10 9 11 12 13 12 11 10 10 7 5

GFSGL_925_spd_027.txt.gz
Wind_Speed
40 40 39 38 38 37 35 36 38 36 35 30 28 28 26 24 23 26 24 21 23 20 19 18 18 16 14 13 12 11 10 10 10 5 5 6 9 7 5 6 6 8 8
43 41 41 39 39 39 41 40 40 38 37 39 35 31 27 27 25 28 27 23 25 22 21 19 20 16 17 15 14 14 13 11 11 9 6 6 7 8 8 8 7 7 7
38 39 37 38 38 40 41 41 39 39 38 37 34 33 30 27 29 29 30 30 28 27 24 23 22 19 19 18 18 14 13 12 12 12 10 6 7 8 8 9 7 7 9
39 39 40 41 43 41 41 41 40 41 38 37 39 38 34 30 30 31 29 29 29 28 28 27 25 24 23 25 18 16 14 14 12 13 13 11 9 9 9 10 11 10 9
36 38 42 42 41 39 40 40 39 37 41 42 39 37 37 33 32 31 30 29 29 28 28 30 30 30 28 26 19 19 18 16 15 15 13 12 12 12 12 10 13 10 11
39 42 41 38 39 42 41 41 40 39 38 36 37 38 39 38 37 40 38 31 31 31 31 29 29 32 31 28 27 26 22 21 19 16 16 15 13 14 14 12 11 11 12
40 39 35 36 38 40 39 38 40 39 37 39 39 39 40 42 42 47 44 35 33 34 33 29 25 23 32 31 32 28 26 25 22 19 18 17 14 18 12 10 10 11 13
34 31 32 34 37 36 37 39 39 40 41 40 39 40 40 43 45 48 47 45 34 34 32 31 26 24 27 33 26 25 25 25 25 23 20 18 19 11 12 9 8 10 11
32 32 34 37 35 34 38 41 40 38 38 40 37 38 41 41 44 47 46 42 35 32 30 27 25 26 27 30 28 23 20 20 21 20 19 17 15 13 12 10 10 8 10
33 39 39 38 38 39 41 38 37 38 38 36 38 39 41 39 40 46 45 38 30 28 25 24 30 27 26 25 24 21 21 20 18 19 19 16 14 13 12 12 9 11 10
22 21 25 29 32 31 28 26 28 30 31 34 37 40 41 38 33 44 45 39 34 29 26 23 22 27 27 22 23 20 21 18 19 16 14 12 11 9 9 10 8 8 6
18 23 27 30 31 29 31 32 31 26 25 25 28 29 32 34 40 35 42 45 32 27 27 23 22 26 26 22 23 20 20 16 17 17 15 13 13 11 10 9 9 8 6
18 21 24 25 27 28 29 28 27 30 27 20 23 25 22 25 29 40 38 38 38 26 22 25 28 25 23 22 24 23 21 18 18 16 14 12 12 11 10 9 10 10 9
14 18 21 25 27 29 30 31 33 34 29 33 30 28 29 26 26 32 37 40 44 35 27 24 21 24 25 25 23 22 18 18 18 14 13 12 13 11 10 10 9 7 7
10 14 19 23 27 27 32 34 37 40 42 44 42 39 34 25 26 27 29 25 18 20 25 23 24 21 19 18 16 18 15 15 15 13 13 14 14 12 11 9 8 7 7
6 7 12 17 21 26 27 26 36 36 40 37 34 31 30 36 36 37 39 38 26 20 17 22 20 19 17 20 18 19 18 17 14 13 12 14 14 12 11 9 8 7 8
5 8 10 11 16 17 17 23 16 15 24 35 38 37 35 38 48 54 40 28 30 38 32 29 23 23 22 21 21 21 18 16 15 14 14 14 12 12 13 10 8 7 7
10 16 12 8 10 12 17 18 21 20 18 16 34 42 43 44 33 34 33 41 43 37 37 34 27 25 22 21 19 17 17 16 15 15 13 13 12 12 10 9 9 8 9
11 12 11 15 18 10 2 12 23 27 25 29 32 41 41 37 42 46 49 31 23 22 21 25 26 23 22 21 19 18 16 16 16 15 14 13 13 12 10 9 8 8 9
15 14 12 13 16 19 16 16 15 11 9 31 32 33 35 37 31 37 35 35 39 21 21 22 23 22 22 22 20 17 17 17 15 13 11 11 11 10 10 11 9 8 10
11 9 10 9 8 7 11 14 15 8 11 15 1 21 32 30 29 31 28 28 34 32 30 28 26 24 25 20 20 21 19 17 14 13 12 12 11 11 11 11 9 9 11
10 8 6 9 3 8 9 9 9 11 8 5 9 24 25 13 19 19 20 23 21 24 23 23 22 22 22 21 21 21 18 16 14 12 13 12 10 11 12 12 10 10 10
11 9 8 8 3 8 11 8 8 12 12 11 14 18 19 18 18 18 21 19 19 18 20 20 21 19 18 19 20 19 18 16 15 15 14 12 10 12 13 12 11 11 11
13 11 10 9 8 10 11 8 9 10 14 11 11 9 12 12 15 19 18 18 17 18 19 19 20 20 20 20 20 19 16 17 17 15 14 11 12 14 14 13 11 11 11
19 19 14 11 12 14 14 13 14 18 15 10 9 9 10 10 10 11 13 14 15 17 17 18 16 17 22 25 23 21 18 22 16 13 12 12 13 15 15 13 12 10 11
23 24 22 19 17 19 18 17 16 14 12 9 11 10 8 9 8 9 7 10 11 12 15 17 18 20 23 24 24 25 21 21 16 13 12 12 14 14 14 13 12 12 12

GFSGL_925_spd_030.txt.gz
Wind_Speed
40 40 39 38 38 36 36 36 34 30 28 28 26 24 25 24 23 22 22 20 19 18 18 17 18 16 15 13 13 13 14 13 10 8 7 6 8 8 7 8 9 8 9
43 42 42 39 38 38 37 37 35 34 33 32 30 28 27 27 26 25 24 24 23 22 21 20 20 18 16 14 15 16 15 11 12 10 8 9 10 11 13 12 11 11 11
40 40 39 40 39 38 38 38 37 37 36 35 33 33 31 30 29 28 27 27 26 25 24 23 21 20 19 18 19 16 14 14 14 14 11 11 11 11 12 12 12 11 10
40 41 40 41 42 40 39 39 38 38 36 36 36 35 35 33 31 31 30 29 29 27 26 25 24 23 22 21 20 18 15 14 14 13 15 14 12 12 12 13 13 11 13
36 39 40 41 39 38 38 40 39 37 37 37 37 36 36 35 35 35 34 33 31 30 27 27 26 25 25 24 20 19 18 18 17 17 17 16 14 13 13 11 13 15 11
34 39 38 36 36 39 38 38 36 38 39 39 39 38 38 39 41 41 38 35 33 32 30 28 25 27 29 31 30 23 21 20 20 19 18 17 13 13 13 13 15 12 13
35 33 34 34 37 38 35 34 37 40 37 41 40 40 41 43 45 46 47 39 35 33 31 29 27 26 28 27 33 30 29 27 25 20 21 19 15 15 14 14 14 14 14
33 33 33 34 34 32 33 37 37 37 39 38 39 41 40 42 46 49 48 45 34 33 32 31 31 30 27 26 25 27 29 27 29 27 24 21 19 14 14 15 14 12 12
31 34 35 34 32 31 34 39 35 33 33 34 32 34 37 40 44 48 49 43 40 35 36 33 31 30 29 31 25 25 22 24 24 26 25 23 20 18 14 14 14 11 13
33 35 30 32 33 35 34 32 31 31 32 32 34 34 35 35 35 43 48 40 36 37 34 33 36 33 30 31 28 25 25 24 22 19 25 26 23 18 18 17 12 13 11
25 27 29 32 33 32 31 32 32 32 31 33 33 34 34 35 37 39 48 47 40 36 35 34 35 37 34 34 32 31 28 21 22 21 19 19 17 16 16 17 13 10 8
23 25 25 27 30 30 32 30 31 32 32 33 35 37 38 38 40 43 48 57 45 37 35 36 33 35 37 37 31 29 24 22 18 20 20 19 18 18 17 14 12 9 6
20 21 23 25 28 27 29 29 30 31 32 33 33 34 33 39 41 48 47 48 55 37 35 30 30 31 33 36 30 31 27 24 19 19 20 20 18 17 13 14 11 9 9
16 17 18 21 23 24 26 28 30 31 33 33 32 33 33 31 34 35 46 44 41 48 27 24 28 26 27 30 28 28 27 24 21 22 20 18 17 16 18 16 13 10 12
10 11 14 16 20 21 25 26 29 32 33 33 33 33 29 27 35 36 42 46 47 40 30 32 31 30 26 23 20 24 23 23 22 22 19 18 19 20 18 16 12 10 13
4 7 9 12 15 18 19 23 28 29 31 39 36 29 33 35 32 36 39 37 39 42 35 28 27 30 27 26 19 20 21 22 24 23 21 21 21 20 18 15 12 13 14
3 2 5 7 10 13 16 21 19 21 38 37 41 47 43 37 33 33 33 38 49 43 29 33 32 32 32 36 32 24 24 23 24 22 23 21 21 19 18 15 12 14 13
8 10 6 6 7 10 10 13 18 17 17 25 34 34 42 41 37 36 38 49 46 42 39 37 36 39 37 35 32 30 27 25 23 22 22 21 20 18 16 15 14 14 12
9 8 7 8 8 6 5 4 4 1 9 9 12 16 21 43 44 49 56 45 38 31 26 25 28 31 30 32 31 30 28 26 24 24 23 20 19 18 16 14 14 11 9
12 11 7 6 6 5 4 4 7 9 9 9 8 7 4 8 17 48 50 34 29 25 24 27 28 29 30 28 27 27 25 22 22 22 20 19 18 16 15 15 15 14 13
5 2 7 7 7 6 8 6 4 1 3 6 5 7 9 15 3 6 5 23 24 20 23 24 23 26 29 30 25 23 21 22 23 21 19 18 16 15 14 15 15 14 11
13 9 6 8 8 7 7 7 5 2 2 4 2 5 12 12 18 14 12 16 21 23 24 25 24 25 26 29 28 25 25 25 23 20 17 16 14 14 15 16 15 14 12
16 14 12 10 8 6 8 10 9 8 7 6 5 5 3 14 16 13 12 15 19 21 22 22 23 24 24 25 25 27 26 25 23 20 17 14 14 15 15 15 15 13 12
13 13 14 14 13 13 13 12 12 13 9 13 10 5 11 13 14 9 10 14 13 16 19 21 22 22 23 24 24 24 23 21 19 17 15 14 14 13 15 16 16 14 13
17 17 17 14 10 12 13 14 15 14 10 10 11 10 8 9 13 13 13 14 16 19 21 21 21 22 23 23 24 23 20 22 17 15 14 12 11 11 16 16 15 14 15
20 21 20 18 18 19 16 16 15 16 16 10 7 8 7 10 10 9 12 13 15 17 18 18 19 20 22 22 23 22 21 24 22 19 14 12 12 14 15 15 14 14 14

GFSGL_925_spd_033.txt.gz
Wind_Speed
42 41 41 40 38 36 36 33 33 30 26 30 23 26 25 26 26 25 24 19 22 20 18 17 18 17 15 14 13 12 11 10 10 11 7 6 7 8 7 8 11 11 12
41 42 41 39 39 39 38 37 34 34 32 29 29 27 27 28 28 27 27 25 23 23 22 21 21 18 20 17 14 14 14 13 13 8 11 8 12 13 14 12 13 14 13
40 40 39 41 40 41 39 38 39 36 35 34 32 31 31 31 31 30 29 28 25 26 25 25 24 23 22 20 21 17 17 15 13 15 14 13 13 11 13 13 14 13 14
40 40 40 41 43 41 39 39 38 38 37 36 35 35 35 35 34 34 34 32 30 30 29 28 27 26 26 24 21 23 18 15 16 15 14 15 14 14 12 11 13 15 14
37 39 40 40 38 37 38 39 39 38 39 38 37 38 37 38 38 37 37 34 34 33 31 31 29 28 29 28 25 24 20 19 17 16 16 16 17 14 13 15 12 11 13
33 38 36 37 36 37 36 37 38 39 39 39 40 40 40 40 40 42 39 35 34 32 32 31 31 32 33 33 33 25 24 22 20 18 17 17 14 13 13 14 12 12 10
33 31 34 36 37 36 35 35 39 40 37 40 39 38 40 42 43 44 45 39 35 35 34 34 32 31 34 32 36 35 29 29 26 22 20 19 12 10 12 9 12 14 14
30 33 35 37 36 34 35 37 36 34 37 37 37 38 39 42 44 46 47 48 40 37 37 37 35 34 34 36 32 36 39 34 32 31 24 21 18 15 7 11 13 12 13
30 34 37 34 34 35 38 38 36 35 35 37 37 37 41 41 42 47 48 45 44 42 39 36 37 35 35 38 34 30 29 32 32 35 33 26 24 18 15 12 14 10 12
33 32 32 32 34 36 36 35 34 35 36 33 36 39 41 42 44 47 50 44 41 41 41 38 41 40 39 39 41 33 30 30 30 29 30 35 29 26 21 22 15 14 16
25 27 30 33 34 35 33 33 34 34 32 34 35 37 41 44 45 51 53 49 46 42 40 40 43 49 47 46 46 38 35 27 28 26 27 23 21 20 16 22 19 17 16
23 25 27 29 31 31 31 29 29 30 31 30 32 33 37 43 48 48 56 59 52 43 38 38 37 44 49 45 42 38 31 29 24 29 22 21 25 23 22 20 19 17 14
20 21 22 24 27 26 27 27 27 28 30 30 30 31 34 35 38 43 49 56 58 49 41 32 38 33 44 48 42 40 30 32 26 25 26 25 25 23 21 20 19 16 15
16 17 19 20 22 23 25 26 28 27 28 29 26 28 29 29 31 33 36 47 54 56 44 38 31 40 43 45 40 38 36 32 30 27 24 21 28 22 23 24 20 18 15
14 15 16 17 19 19 21 23 25 27 27 26 27 28 26 26 29 31 30 29 30 37 37 28 20 26 31 36 38 41 39 38 30 29 31 21 19 21 23 23 20 21 19
11 12 14 14 16 16 16 18 22 21 19 29 32 26 23 22 25 24 28 30 28 29 30 27 26 28 31 36 40 37 36 34 32 27 25 19 24 23 20 19 20 18 17
2 4 3 4 6 7 13 14 14 19 31 32 32 30 30 31 37 37 29 30 38 36 34 32 31 32 33 32 32 38 37 41 35 31 26 25 24 21 22 20 19 19 17
6 4 2 2 1 3 6 7 10 11 12 4 10 17 23 27 29 32 30 28 33 43 35 35 36 35 30 33 32 28 27 29 30 33 28 26 25 23 21 20 21 19 17
6 7 6 7 7 6 6 6 6 6 6 8 13 16 18 22 26 25 25 33 30 34 37 34 36 34 31 29 28 31 30 29 30 28 26 26 25 24 23 21 21 17 16
13 7 5 7 6 5 4 3 3 2 2 5 8 9 9 11 11 11 13 22 19 29 37 37 39 38 37 32 30 29 30 30 30 26 25 24 24 23 20 21 20 18 15
6 7 5 9 9 7 6 6 6 7 7 7 7 7 5 7 10 10 9 10 15 17 18 24 37 36 28 32 31 31 31 30 30 28 26 24 23 22 19 19 18 17 17
10 6 5 7 9 9 10 10 11 11 10 8 9 4 6 6 6 6 2 3 3 5 9 14 16 24 29 31 31 32 30 28 26 26 25 24 22 20 20 18 18 17 17
13 11 10 8 7 7 11 12 11 9 7 7 7 7 5 6 8 9 7 6 3 6 11 24 26 22 23 26 28 29 25 26 28 26 25 23 22 21 19 18 18 18 18
18 19 16 13 13 14 13 14 13 11 10 11 11 11 6 4 2 4 7 7 7 7 9 12 21 21 22 24 24 22 23 25 27 25 22 21 19 18 17 17 17 18 18
17 19 16 16 17 20 19 18 17 17 16 15 15 16 18 11 2 2 5 7 9 13 13 15 14 21 23 23 25 25 27 28 24 21 18 16 16 16 16 16 18 19 18
20 17 16 17 17 17 17 19 19 21 20 21 21 21 19 18 19 16 8 6 7 13 14 13 14 16 19 19 22 19 28 28 23 21 17 14 14 13 15 17 18 18 17

GFSGL_925_spd_036.txt.gz
Wind_Speed
43 43 41 39 39 38 32 33 30 33 22 30 23 31 31 28 28 27 27 23 24 25 23 23 25 20 18 14 16 14 11 11 8 13 6 14 16 13 9 9 11 11 11
39 38 38 37 37 38 39 35 33 30 35 27 31 29 29 31 30 32 30 29 26 31 33 27 24 25 24 21 12 18 16 13 13 12 13 8 12 13 13 11 11 12 16
36 36 36 38 38 38 38 40 36 37 35 37 29 31 34 32 33 33 33 32 33 30 29 31 27 24 24 28 25 17 19 17 12 14 14 12 13 16 16 14 15 16 15
37 36 37 38 38 39 37 38 39 39 38 38 38 36 33 33 33 34 33 31 32 30 29 30 31 31 31 30 29 28 22 20 23 20 19 19 16 19 20 20 20 18 19
38 40 40 39 38 37 38 38 39 40 42 40 39 37 36 35 36 35 35 35 35 35 33 31 33 34 35 37 33 32 30 29 21 24 21 19 18 15 23 23 18 14 15
39 40 40 40 40 39 39 39 38 39 38 37 37 38 38 39 40 41 38 35 35 36 35 35 35 37 39 40 39 34 36 32 30 25 20 20 24 23 17 23 22 20 7
38 36 38 40 39 40 39 39 38 39 38 39 38 39 41 43 44 46 46 42 39 37 38 37 36 37 40 42 42 39 34 34 36 35 27 25 18 22 19 16 17 11 9
27 32 34 35 37 37 39 40 39 38 38 39 38 39 40 44 46 48 49 50 44 43 42 42 39 38 39 43 42 46 44 42 41 39 36 35 29 20 16 19 15 12 11
27 27 31 32 33 36 38 39 37 36 37 38 37 38 41 42 43 49 49 50 45 45 44 43 43 42 43 43 42 39 43 45 44 41 41 29 24 23 18 17 14 14 10
31 33 29 32 34 35 36 35 35 36 36 34 36 39 41 43 43 46 50 44 42 44 43 43 46 47 45 47 46 37 33 36 35 34 42 40 32 25 24 21 20 17 11
32 29 31 34 36 34 32 32 32 33 31 33 34 34 39 43 44 44 48 47 49 43 41 41 45 49 52 48 49 43 43 33 38 39 35 35 33 33 30 33 28 23 19
23 30 29 29 31 29 30 28 29 29 30 31 31 33 35 39 40 41 46 50 47 37 37 36 37 43 47 53 51 51 44 40 34 34 30 30 33 35 33 28 28 24 22
15 21 25 24 25 28 26 27 25 27 27 28 29 27 29 29 29 37 40 42 45 51 43 38 30 36 37 47 54 54 50 41 33 30 31 33 37 34 27 27 23 21 20
10 14 18 19 21 24 24 25 26 25 25 25 22 24 24 22 25 29 27 37 43 46 50 52 46 44 26 37 49 58 53 44 40 33 31 27 27 27 28 27 29 29 28
11 12 13 16 20 19 21 20 24 27 24 23 24 25 22 19 21 11 15 25 33 42 46 39 37 38 38 28 32 41 47 43 39 32 30 26 29 29 31 31 27 29 18
8 9 12 14 15 17 17 19 22 15 19 27 25 18 16 13 18 23 25 22 16 33 30 32 32 33 32 32 30 32 37 39 37 32 27 28 27 26 30 31 31 25 22
5 3 13 18 14 21 19 17 16 10 11 13 5 3 7 9 15 18 20 23 20 18 24 25 29 31 32 33 34 38 36 36 37 33 35 28 26 27 33 31 29 27 22
7 7 9 15 13 16 14 14 12 13 7 5 10 15 16 17 18 20 22 22 18 21 26 28 30 32 31 33 34 36 37 35 36 39 37 27 30 36 33 27 26 26 24
7 12 14 12 11 12 11 11 10 9 9 8 9 11 18 19 18 19 22 17 15 17 17 24 27 28 33 39 40 41 45 43 41 38 29 31 30 32 30 27 27 28 25
11 9 12 13 8 8 7 6 7 5 3 5 7 9 12 12 11 13 12 15 11 14 23 27 29 30 29 32 40 44 41 38 42 35 31 36 35 31 29 31 29 26 26
14 9 15 12 10 9 7 7 6 9 6 8 6 5 8 7 9 10 10 7 12 16 16 16 18 21 17 14 32 40 35 43 33 31 31 34 36 31 29 28 27 23 24
11 10 12 16 14 13 13 15 14 13 12 9 6 4 10 7 9 7 9 11 12 14 14 13 9 6 2 5 14 19 26 22 25 27 28 29 30 29 27 23 25 24 23
15 14 14 16 18 17 19 16 15 13 11 10 12 12 12 13 12 11 12 13 13 12 11 9 10 5 4 10 17 23 24 26 26 28 27 29 28 27 26 22 19 22 22
24 22 22 23 23 24 21 20 19 20 18 15 15 16 19 14 14 13 13 12 10 8 5 3 1 5 7 10 14 19 17 19 23 23 24 23 22 22 19 15 19 16 20
21 20 20 21 21 20 21 18 18 19 19 20 19 19 15 16 18 21 27 17 14 4 4 2 6 8 9 14 17 14 16 25 26 24 23 23 20 22 21 20 17 17 17
23 21 23 20 20 19 19 18 17 18 20 21 21 21 20 21 23 25 27 29 32 16 5 1 4 7 7 12 14 17 19 25 23 21 18 19 15 18 20 15 14 17 16

GFSGL_925_spd_039.txt.gz
Wind_Speed
40 41 38 36 36 37 33 37 37 31 25 31 24 33 39 37 32 30 29 27 25 24 23 22 20 21 23 18 15 18 17 16 11 9 10 16 20 19 19 17 15 16 15
41 37 35 32 32 35 36 35 38 35 36 26 28 26 34 36 34 31 30 30 29 28 28 27 25 23 23 25 20 24 25 20 19 15 8 17 22 21 20 21 19 17 16
38 36 35 35 33 35 36 39 36 39 39 37 30 28 32 36 36 36 36 35 35 32 33 32 31 29 31 32 31 25 26 26 22 19 18 18 23 23 22 20 18 17 19
37 37 36 37 36 36 37 39 41 40 40 41 37 32 34 38 40 40 38 38 39 39 34 35 39 38 37 36 34 34 29 25 26 23 22 22 20 20 26 26 23 21 18
38 38 40 38 39 37 38 37 39 40 37 40 38 38 39 39 42 43 41 42 42 41 40 39 39 42 43 41 38 37 37 33 29 32 28 23 25 19 27 31 28 26 22
40 42 39 39 38 40 38 38 36 37 39 37 40 40 40 41 40 43 44 40 41 40 41 43 43 41 44 44 44 41 39 40 36 31 27 22 29 32 26 30 31 25 12
41 39 40 39 39 39 40 37 39 39 36 38 39 40 41 42 41 42 46 43 39 41 42 39 41 40 42 45 46 46 45 42 43 40 31 32 29 37 33 29 35 32 23
38 38 36 39 38 39 38 40 38 38 37 38 37 41 40 43 44 45 46 49 41 40 41 43 41 41 40 42 41 47 49 48 46 43 42 35 38 35 34 37 34 34 24
35 34 38 38 39 37 39 38 38 36 35 37 36 37 40 41 42 45 45 48 44 45 41 40 42 44 43 43 42 41 44 47 48 48 46 44 41 36 28 27 27 27 11
34 37 36 38 38 39 39 38 37 37 37 33 36 37 39 41 39 40 41 44 40 41 39 41 43 46 43 44 46 39 38 44 44 40 47 47 48 45 38 32 30 27 18
34 33 33 37 41 41 36 35 34 33 32 33 33 35 36 37 35 34 39 42 41 36 36 39 38 40 44 44 47 45 49 40 41 44 42 46 44 40 34 33 32 35 29
26 34 38 39 37 30 34 32 31 30 30 29 29 29 31 31 31 32 34 40 42 38 38 38 35 37 38 43 50 55 54 46 39 37 38 35 36 38 47 46 43 36 31
12 27 33 35 36 32 29 30 27 28 28 27 26 24 25 26 26 27 32 37 38 44 43 42 42 42 38 40 46 52 57 56 42 38 36 37 39 46 48 48 43 36 32
7 12 24 31 30 29 29 28 26 22 23 22 20 21 21 22 26 28 31 34 37 43 47 50 51 48 44 46 45 42 55 47 47 44 40 36 36 36 37 35 35 35 28
15 10 16 23 25 24 27 20 24 23 23 22 24 21 21 21 22 17 14 12 21 27 31 37 32 32 34 38 38 37 41 41 39 41 38 34 35 37 34 34 29 33 27
11 12 16 20 20 21 22 20 14 19 23 25 23 22 10 13 10 10 9 9 11 10 14 24 23 25 28 30 31 31 33 38 39 37 36 34 34 34 32 32 37 33 32
7 6 11 16 19 25 25 21 15 19 19 16 11 11 8 3 2 6 10 12 14 16 13 17 20 21 25 29 31 32 30 35 38 37 38 35 41 38 40 34 31 32 29
7 10 15 16 12 14 16 15 19 22 15 14 16 15 14 13 12 14 15 10 12 10 8 12 17 21 22 24 28 33 36 37 35 38 40 41 42 43 43 35 33 25 28
4 11 15 19 19 21 22 23 22 21 19 18 13 12 13 11 11 13 14 14 10 12 13 14 17 22 27 28 30 31 31 35 36 37 40 41 48 50 34 30 32 36 31
7 10 14 16 17 17 19 21 21 19 19 17 15 12 11 8 11 11 12 10 10 10 11 13 17 19 22 26 28 32 35 35 35 34 29 35 28 14 23 30 31 35 30
6 17 16 17 18 18 20 23 23 23 21 18 15 15 13 10 8 8 9 9 11 13 15 16 17 17 18 18 18 22 21 29 35 29 22 20 33 26 28 31 30 24 23
12 13 18 23 27 25 24 24 23 23 21 17 13 14 13 13 11 10 12 14 14 14 13 14 17 17 17 15 14 9 8 12 19 27 22 18 26 26 25 23 21 24 24
27 28 27 26 26 27 27 24 22 20 18 18 17 17 18 18 19 19 19 19 20 12 12 12 12 10 10 9 7 6 3 3 9 17 23 27 32 33 28 26 26 29 29
26 28 27 27 27 25 22 21 21 21 20 19 18 18 18 20 20 20 19 22 20 15 16 12 9 8 7 4 1 0 3 6 9 15 21 26 22 24 28 31 31 30 30
26 27 27 26 24 22 22 20 20 19 20 19 19 19 19 20 21 25 29 23 20 20 19 16 13 10 7 3 1 2 3 9 13 13 15 18 21 21 23 19 16 19 24
33 24 25 26 24 21 20 20 20 20 20 21 24 25 24 24 25 28 28 30 33 30 23 20 17 11 5 6 4 9 5 5 10 14 16 16 17 16 14 14 12 12 12

GFSGL_925_spd_042.txt.gz
Wind_Speed
40 40 39 39 37 38 37 41 40 33 28 31 31 33 36 35 34 32 31 30 28 27 24 23 22 24 27 24 20 17 19 17 13 14 13 18 18 26 28 26 24 24 22
43 40 38 35 35 35 39 39 41 41 37 27 34 29 35 36 38 38 35 34 32 31 30 27 29 27 27 30 27 25 22 22 21 20 18 17 20 24 28 28 25 24 25
38 36 33 34 35 38 39 40 41 42 40 36 29 32 34 34 37 40 38 36 35 36 35 33 34 32 32 30 30 31 28 25 25 25 25 19 20 24 28 28 28 26 25
37 36 36 37 37 38 41 40 38 42 41 41 37 38 32 35 35 37 40 39 37 37 37 37 37 37 36 35 33 33 33 31 27 28 27 23 22 25 28 29 31 31 30
38 37 38 38 38 38 38 40 40 36 42 42 43 41 40 36 38 39 40 42 42 40 39 40 40 40 40 40 39 38 36 36 36 31 29 25 23 25 29 32 33 34 33
39 39 39 37 38 37 37 38 38 40 40 38 43 41 43 41 40 41 42 43 44 42 42 42 42 42 43 44 43 43 41 39 35 29 27 24 30 35 31 35 33 25 14
37 35 35 36 34 36 36 35 35 37 38 41 39 41 39 41 42 42 44 45 41 42 42 40 41 44 45 45 46 47 46 47 46 40 35 37 33 38 38 35 35 29 28
33 33 33 33 34 34 33 34 36 33 35 37 39 39 38 41 41 43 42 44 41 39 41 42 41 40 42 44 44 42 49 53 53 51 47 45 43 40 41 42 40 41 37
32 33 35 37 35 34 33 35 35 33 33 35 36 37 40 38 39 41 41 44 42 41 38 39 41 42 42 40 41 39 39 51 49 54 56 55 53 45 44 38 33 27 20
35 36 34 36 37 36 37 35 36 35 34 34 34 36 38 37 37 38 39 42 39 36 37 41 42 46 41 39 41 38 39 46 36 39 50 55 57 55 49 45 38 32 29
35 33 35 38 39 38 37 35 32 32 32 32 33 33 33 34 34 34 36 40 38 32 35 37 37 38 40 43 43 46 50 45 39 41 41 40 47 49 53 54 50 45 36
22 30 34 37 35 33 34 32 33 32 30 31 29 28 28 28 29 31 34 38 40 37 36 35 35 36 38 40 43 51 55 53 48 40 34 36 35 37 43 50 53 54 46
15 25 30 31 33 32 32 30 28 29 28 25 25 25 23 23 26 28 30 33 36 44 42 38 37 37 39 41 44 47 49 51 44 40 39 37 38 41 41 46 44 46 47
6 6 15 24 29 32 31 31 26 24 24 23 22 21 20 23 27 29 31 32 33 37 41 44 43 43 40 38 39 43 46 47 39 39 41 42 39 37 39 41 40 38 39
14 13 13 15 22 27 23 23 26 30 29 26 26 27 23 22 25 26 26 26 27 28 28 29 31 29 27 27 28 35 37 39 39 40 39 40 40 35 34 38 41 38 32
11 13 13 16 18 22 24 14 18 21 22 27 29 28 22 20 19 17 15 12 10 9 10 14 19 21 21 22 23 26 29 34 39 37 38 40 39 38 32 35 38 37 36
14 13 11 15 20 23 22 22 18 17 13 9 12 15 10 9 8 8 9 9 9 8 8 7 8 10 13 16 18 20 24 28 31 33 40 39 33 42 39 37 37 37 32
15 7 9 14 17 19 18 20 25 24 20 17 16 16 15 14 11 8 5 3 2 2 2 3 6 9 14 16 18 20 24 26 30 34 36 37 42 36 42 39 36 37 38
5 4 6 6 9 15 18 22 24 20 20 19 16 14 13 13 12 12 12 9 7 5 6 7 11 14 16 17 18 21 21 25 31 34 36 36 36 34 36 39 39 20 20
3 6 10 14 16 19 21 23 20 20 23 18 15 12 11 10 11 10 8 7 6 7 9 12 13 14 17 20 24 22 24 22 26 29 28 25 12 15 21 28 27 24 16
4 9 18 21 22 21 22 23 24 23 21 20 17 14 12 12 11 11 10 10 9 9 10 13 15 17 17 18 20 20 18 19 15 20 20 9 16 27 23 18 22 26 26
15 21 24 24 23 28 27 26 23 22 20 20 20 19 16 17 16 15 14 11 12 9 9 12 14 14 14 15 17 20 18 16 14 3 12 18 17 14 16 13 17 20 27
30 29 28 27 28 26 27 26 23 21 20 19 19 19 19 19 18 15 14 15 13 12 11 11 11 13 13 13 13 15 17 15 9 5 6 8 10 14 17 21 22 27 25
24 25 26 22 26 27 23 21 23 22 21 20 19 20 19 17 18 19 18 18 17 14 12 11 11 12 12 13 11 10 11 10 7 4 4 10 14 15 16 16 19 17 18
29 23 25 26 23 25 25 22 22 22 22 22 21 20 20 20 20 21 21 22 22 22 22 20 18 15 12 12 12 9 13 7 4 2 5 8 14 19 22 21 21 23 24
27 23 21 20 26 28 24 22 22 22 23 24 24 23 22 22 23 22 22 22 23 23 24 25 23 23 21 20 17 13 8 7 9 9 11 13 16 19 19 21 21 23 25

GFSGL_925_spd_045.txt.gz
Wind_Speed
40 39 39 40 41 38 38 38 37 36 33 29 29 28 29 31 30 29 29 28 28 26 24 24 25 24 25 22 22 19 18 17 13 17 14 18 18 22 25 30 31 30 29
41 40 39 38 39 39 41 40 38 38 35 33 30 30 30 30 33 32 33 32 31 31 29 29 29 26 26 24 25 26 25 21 21 22 22 20 19 21 21 27 32 32 30
39 38 36 34 34 37 39 41 40 38 35 35 29 31 33 34 34 35 35 36 36 34 34 33 33 31 31 30 28 28 30 28 24 25 28 27 24 23 24 28 31 34 33
37 36 34 35 37 38 41 41 39 41 39 39 38 39 34 36 35 33 34 36 38 38 36 35 35 36 37 36 34 33 31 30 31 32 31 32 29 27 27 28 31 35 37
36 35 36 37 38 38 39 40 40 39 42 45 41 40 41 38 36 39 38 36 35 38 39 39 38 38 39 38 38 39 37 37 35 36 32 34 30 27 28 32 35 36 38
38 38 39 36 37 38 39 38 38 40 41 41 43 44 42 44 41 41 36 38 38 38 40 41 41 40 40 41 41 42 41 39 34 28 29 27 31 31 34 34 35 24 15
35 34 33 33 33 35 36 35 37 38 37 38 39 40 42 43 42 44 42 41 40 41 43 42 42 43 44 44 44 44 45 47 48 39 33 36 35 35 37 36 36 33 33
31 31 31 33 33 33 32 33 35 35 37 38 37 37 38 39 44 44 43 43 41 41 43 44 44 45 43 43 42 42 46 48 48 50 50 50 44 38 37 41 41 38 37
31 34 34 35 33 32 33 35 35 32 33 36 38 38 38 38 40 41 39 42 43 43 41 42 45 44 44 41 39 38 41 47 40 44 48 50 52 53 46 37 34 28 25
32 35 35 36 35 34 37 36 35 34 34 32 32 34 38 39 38 38 40 41 35 34 37 41 41 43 41 38 39 39 39 39 32 35 41 46 47 49 52 47 42 31 29
27 26 31 37 39 37 34 32 31 31 30 29 30 31 33 36 37 35 36 39 36 32 34 33 32 34 38 41 44 44 44 44 38 39 39 37 35 37 44 48 51 45 36
22 29 33 34 31 29 33 32 32 29 28 27 26 26 28 31 33 34 35 37 40 36 33 31 32 34 37 37 39 43 47 49 46 37 35 36 34 29 34 43 52 53 56
17 27 32 32 33 32 32 29 27 28 26 24 24 23 22 25 31 33 34 35 36 44 41 36 34 31 30 31 35 38 41 45 38 32 35 38 39 41 39 39 46 51 56
9 4 14 24 29 29 29 27 26 25 25 24 21 21 21 25 27 28 32 34 36 38 41 42 40 38 37 36 37 38 36 37 37 32 34 38 38 35 36 35 38 40 41
7 8 4 5 17 23 24 23 26 27 27 25 26 25 23 21 29 29 29 31 32 34 34 32 31 28 27 24 22 23 24 25 28 32 34 34 34 35 36 36 37 38 38
8 6 6 4 6 15 22 17 20 25 26 27 26 23 23 24 19 17 19 22 22 18 14 16 14 13 13 14 15 18 17 16 19 23 25 27 30 32 32 34 36 37 37
9 8 7 7 8 14 18 17 14 8 12 20 21 18 14 13 13 13 13 12 10 10 11 11 10 8 7 8 10 11 15 15 19 24 26 28 30 32 36 34 26 22 29
10 7 9 8 7 11 16 19 18 17 16 15 13 13 14 13 11 11 10 9 7 6 6 5 3 1 4 5 7 10 13 19 19 23 27 30 32 30 30 27 27 26 31
8 5 4 1 2 9 15 19 19 17 18 19 19 17 15 14 13 12 9 6 8 7 5 2 2 4 5 8 10 12 16 18 17 20 25 26 28 27 24 20 14 17 15
3 4 7 10 11 14 15 19 19 19 19 18 17 14 11 9 11 11 9 7 5 4 2 3 4 6 9 10 11 14 16 16 17 20 25 25 14 9 7 10 15 16 15
8 11 14 17 18 17 19 23 23 25 18 19 16 12 10 13 12 10 10 9 7 3 3 5 7 10 11 12 12 14 16 17 17 18 16 13 5 3 5 7 5 7 12
16 18 19 21 23 26 25 22 22 20 19 21 21 18 14 15 13 12 11 10 9 8 8 8 9 10 10 11 13 14 16 17 18 17 15 10 7 8 7 6 1 11 18
22 24 25 27 29 32 28 25 23 22 21 19 17 17 14 14 13 13 13 13 11 11 11 10 9 9 10 10 10 11 14 16 16 16 15 14 13 10 6 3 6 9 10
19 22 23 23 25 26 28 28 25 24 22 20 18 16 16 16 16 15 16 16 16 16 16 16 15 14 12 12 12 14 13 14 12 13 12 11 10 7 4 6 9 9 13
22 22 23 24 23 21 19 22 25 25 23 22 22 20 18 17 18 19 20 20 21 21 21 20 20 19 20 20 20 18 16 12 10 10 11 11 11 8 9 10 10 10 11
21 20 21 21 24 23 23 18 23 27 26 23 23 23 22 22 20 21 21 21 21 22 24 25 25 25 23 22 22 22 18 14 12 12 13 13 14 13 13 12 12 13 12

GFSGL_925_spd_048.txt.gz
Wind_Speed
38 39 36 38 40 40 41 40 36 32 31 28 26 23 26 27 27 27 25 23 23 23 23 20 20 18 19 20 19 17 16 14 12 21 19 19 18 20 20 22 24 27 29
41 40 41 40 38 38 40 42 38 35 31 32 28 26 27 28 28 27 29 27 26 26 26 25 25 23 23 22 21 22 22 21 21 22 27 26 26 24 23 23 25 27 29
36 37 36 35 36 38 39 42 40 37 35 33 32 32 32 30 29 28 27 29 29 29 29 29 29 28 28 28 27 26 26 25 27 29 28 27 31 29 29 29 29 30 31
36 36 35 36 37 38 40 41 41 39 37 36 36 35 33 33 31 30 29 29 31 32 33 34 33 33 32 31 31 32 31 30 30 31 29 27 27 34 32 34 34 35 35
37 35 37 37 39 39 40 41 41 41 40 38 38 38 37 35 33 31 32 32 31 31 32 34 36 37 36 34 33 34 34 33 29 28 25 22 27 24 27 28 31 33 37
36 36 37 37 38 41 41 41 40 40 40 40 41 41 41 41 40 39 37 35 36 38 39 38 37 36 37 37 36 36 37 35 29 25 27 26 31 32 31 30 28 23 19
37 36 35 34 36 37 38 37 39 40 36 39 40 39 42 44 43 41 41 41 40 40 39 39 39 40 39 38 39 39 41 41 41 37 34 33 36 32 33 30 29 32 31
34 32 34 35 34 33 32 34 35 34 37 38 37 39 39 42 44 44 43 42 42 43 43 44 43 43 41 41 40 41 44 43 42 41 44 49 46 45 36 36 38 36 36
32 34 35 36 34 33 34 34 35 32 33 36 37 37 38 39 39 39 39 41 42 43 42 43 45 45 43 40 38 37 42 39 33 38 41 42 41 41 38 37 27 25 29
33 34 32 34 36 35 38 36 34 32 33 30 31 34 38 39 38 38 38 39 33 33 38 43 43 44 41 39 38 37 36 34 30 35 36 38 39 41 39 40 44 31 28
25 28 33 37 38 38 32 31 29 29 26 27 29 31 34 35 36 35 35 39 35 31 31 30 31 36 38 39 41 40 39 40 35 33 34 33 31 31 34 38 42 44 37
30 32 33 34 32 29 31 29 29 28 27 26 26 25 29 32 32 32 32 36 37 35 30 27 28 31 32 31 31 34 37 39 43 34 32 33 32 32 33 34 39 44 47
27 32 33 32 33 31 31 28 26 29 26 25 23 23 24 27 32 32 31 32 33 40 35 34 34 31 29 27 28 30 32 37 38 30 29 32 30 31 33 34 39 41 46
20 23 27 29 28 28 27 28 27 26 25 24 24 24 23 23 27 28 28 30 32 35 36 38 37 33 32 32 32 32 31 27 23 23 24 26 27 26 30 30 32 36 37
12 10 13 21 26 26 25 25 25 26 27 25 26 23 20 20 29 25 24 25 27 29 32 30 29 27 26 21 16 12 11 12 14 16 18 21 23 26 28 29 29 32 32
7 5 4 5 12 22 26 20 25 26 26 28 23 21 24 25 18 15 16 20 21 20 18 19 16 14 10 7 7 8 9 10 12 12 13 15 18 21 24 27 27 27 28
7 5 1 3 8 15 19 20 16 8 21 23 22 20 18 16 13 14 15 17 17 12 11 9 8 6 6 6 6 6 6 9 12 14 15 16 17 20 23 23 25 26 27
9 5 5 4 6 11 16 18 18 14 11 8 11 17 18 16 13 11 12 11 11 11 8 7 6 5 4 3 4 6 9 12 14 12 14 16 18 19 21 20 20 20 21
8 5 6 4 3 8 13 14 15 15 14 17 20 17 13 13 13 12 10 7 9 9 8 7 4 2 2 4 7 8 10 12 12 12 14 15 18 14 13 11 13 13 14
6 3 3 4 3 5 10 15 17 17 17 18 18 21 19 20 18 14 12 12 10 9 7 5 3 1 2 3 3 5 7 9 10 12 13 14 14 10 5 10 11 11 11
7 3 1 4 7 7 12 16 16 17 18 19 15 13 15 19 17 16 15 13 11 9 6 4 5 4 3 1 3 5 7 8 10 11 12 14 12 11 10 12 9 8 4
8 7 5 6 9 10 12 17 21 22 21 23 24 20 17 19 18 16 15 14 12 10 8 7 6 5 4 4 3 5 7 9 11 12 12 12 13 13 12 11 10 8 4
12 10 9 10 11 15 13 13 16 21 21 21 21 20 19 18 18 17 16 14 12 11 9 8 8 8 7 6 6 8 8 11 13 12 11 11 10 8 7 7 7 5 4
14 16 17 15 18 15 15 16 17 21 22 20 19 20 18 17 17 17 17 16 15 15 15 14 13 12 11 11 11 11 11 12 10 9 9 10 9 7 6 3 1 3 3
13 15 13 14 13 16 20 20 19 18 18 21 25 25 21 18 17 17 16 17 18 19 19 19 18 17 17 17 18 19 17 12 8 8 10 11 10 8 6 5 7 4 5
16 19 21 21 20 20 19 17 18 20 19 19 22 25 25 25 21 19 18 18 17 18 18 19 20 21 20 21 20 17 20 21 15 9 9 10 10 12 11 10 9 9 10

GFSGL_925_spd_051.txt.gz
Wind_Speed
37 38 36 34 31 30 29 32 32 31 26 24 25 24 22 20 19 20 19 16 15 14 14 14 15 13 11 11 12 12 11 11 15 18 14 14 21 21 20 20 20 22 22
38 37 37 35 34 31 34 31 32 33 30 27 28 27 24 21 19 19 18 18 18 17 17 16 17 15 15 15 15 16 15 15 16 20 21 20 21 20 24 25 25 22 23
38 37 35 35 34 34 34 33 31 32 34 31 28 30 28 25 22 21 20 20 19 19 19 18 18 17 17 17 17 18 18 15 17 19 24 20 22 19 20 23 26 26 27
39 38 36 36 36 36 34 34 31 33 36 35 33 32 31 25 22 20 20 20 20 20 21 21 20 20 21 19 19 20 20 20 19 21 24 25 24 22 19 23 25 23 26
38 38 38 37 36 35 33 33 34 31 34 36 36 33 31 27 26 25 23 23 23 22 22 23 22 24 26 26 22 22 19 19 19 20 23 23 24 22 22 23 26 28 27
37 37 36 35 35 35 34 33 32 32 32 34 31 30 29 30 31 33 30 25 24 24 24 24 25 27 31 31 31 31 30 24 23 24 26 26 24 25 26 27 27 28 27
38 35 35 35 35 35 34 32 31 31 29 31 30 29 31 33 36 37 38 33 28 27 26 24 25 25 27 27 29 33 33 34 35 35 33 31 33 28 28 28 28 30 33
35 35 34 33 33 32 31 31 31 29 29 28 28 30 31 33 38 40 41 39 33 33 32 30 29 29 27 27 27 26 27 26 27 30 34 42 37 33 30 31 31 32 35
33 34 34 34 33 32 32 31 30 28 28 29 28 28 30 32 35 38 37 33 34 36 35 33 32 33 32 32 31 31 33 31 28 31 34 37 37 35 33 33 29 25 26
36 35 33 33 33 33 33 32 32 31 30 27 28 31 32 32 35 38 36 30 30 32 32 33 37 37 34 33 34 30 32 30 27 27 27 28 28 30 31 31 36 28 28
27 28 29 32 33 32 31 29 27 27 25 26 27 28 29 31 32 35 35 33 31 28 29 28 28 29 32 35 37 34 33 30 27 27 25 26 28 28 27 29 34 38 33
27 29 30 30 30 28 28 25 25 25 25 24 25 24 25 26 31 32 35 36 36 30 27 24 23 25 29 27 27 29 29 29 33 32 29 27 25 26 27 27 28 30 35
27 27 27 27 28 25 27 25 25 26 25 24 24 23 22 22 24 28 33 31 33 37 28 24 23 23 24 24 25 26 25 29 32 28 26 28 25 21 21 26 25 27 32
23 24 25 26 26 27 25 25 25 25 25 24 23 22 21 21 21 20 22 30 32 32 35 32 27 24 24 23 26 26 25 27 26 22 19 16 16 18 20 19 23 25 28
16 19 21 22 24 21 23 23 25 23 25 25 23 21 20 20 21 21 20 18 18 22 24 18 20 22 24 23 22 23 15 11 13 12 11 13 14 15 16 18 20 22 23
6 6 6 7 11 14 17 16 24 23 26 28 22 19 17 20 15 16 17 19 17 18 14 15 18 17 16 15 11 10 10 8 8 7 8 9 11 13 16 17 17 17 19
10 8 2 11 10 20 27 20 15 11 19 20 24 22 22 16 16 15 15 17 19 18 16 17 14 12 10 11 9 7 7 6 4 7 8 9 10 12 14 15 15 14 18
12 19 6 6 21 13 16 13 10 9 8 5 19 21 22 18 13 14 15 15 16 16 11 9 10 10 9 6 6 5 4 4 5 7 7 8 10 11 11 10 8 12 14
11 6 8 4 1 3 6 7 7 8 8 7 8 10 12 16 16 16 17 9 10 9 7 7 8 5 5 4 3 3 3 4 5 6 8 10 11 10 10 9 10 11 11
14 15 14 11 6 3 5 8 9 10 11 11 10 10 13 11 11 11 10 12 12 11 9 7 6 4 3 2 2 1 2 4 5 6 8 9 9 8 9 9 9 13 8
16 13 11 8 4 1 5 9 9 10 12 11 10 10 13 14 15 16 16 15 15 13 11 9 9 7 6 5 4 2 2 4 6 7 8 8 8 8 9 11 10 9 10
16 14 9 6 3 2 5 9 12 12 13 15 15 14 15 17 17 16 15 14 13 12 11 10 9 8 6 4 3 3 4 5 7 8 10 9 9 9 8 8 8 7 5
15 14 11 9 5 7 9 11 14 17 16 13 12 11 10 10 9 11 12 13 12 12 12 11 10 8 5 3 0 2 4 6 8 10 9 8 9 8 7 7 7 6 6
13 11 11 9 8 8 10 12 16 19 21 17 13 11 10 9 10 11 11 12 12 12 11 10 10 9 7 7 6 6 7 7 8 7 8 9 10 8 7 8 7 4 4
11 5 4 5 7 6 11 15 17 19 19 18 17 16 12 9 10 11 13 13 13 13 13 12 10 10 11 11 9 9 10 10 8 7 6 7 9 10 9 10 8 7 6
1 3 5 5 6 7 8 11 14 17 21 19 19 17 17 14 10 10 11 12 11 11 12 13 13 12 11 12 12 8 7 10 10 7 6 6 6 7 8 9 9 10 10

GFSGL_925_spd_054.txt.gz
Wind_Speed
40 38 35 35 33 30 29 27 25 22 21 20 19 18 19 18 18 17 16 14 13 13 13 13 13 11 11 10 10 11 11 12 14 16 14 13 14 15 16 16 18 19 21
40 38 38 36 34 32 30 29 25 24 24 23 21 19 21 21 19 20 19 18 17 16 15 15 15 14 15 14 13 14 14 14 17 18 20 20 19 19 20 19 20 23 25
38 39 39 39 37 35 32 30 28 26 25 24 23 22 22 22 21 21 21 20 19 18 18 18 18 17 18 17 16 16 17 17 18 20 21 20 22 21 22 23 23 24 25
39 38 38 39 38 37 35 32 30 29 27 27 26 25 24 23 23 22 21 21 20 20 20 20 20 20 20 19 18 18 18 18 19 21 23 22 22 21 20 22 24 22 24
38 40 39 37 36 35 34 33 32 30 29 28 27 28 25 24 25 25 24 23 22 22 22 21 22 23 24 23 20 20 19 19 20 21 22 22 22 21 20 26 30 30 29
38 40 37 35 36 37 35 34 33 32 32 29 29 29 28 27 28 29 27 24 25 24 24 24 23 23 26 29 30 29 26 22 23 23 25 25 22 24 26 28 32 32 29
38 37 37 37 37 37 35 34 34 33 31 30 29 28 30 30 30 32 33 30 26 26 25 25 25 25 25 24 24 25 26 28 32 33 30 29 29 26 27 28 31 31 32
34 36 37 37 36 34 34 35 33 32 31 29 29 29 30 31 32 35 35 32 30 29 27 27 27 27 26 24 23 23 23 23 24 25 26 26 25 24 23 26 29 31 32
35 37 38 38 36 34 34 33 32 31 30 30 29 29 30 31 32 35 35 29 30 32 32 31 31 31 31 30 30 29 29 29 28 31 34 36 34 31 29 27 27 26 27
38 39 34 33 34 34 33 33 33 31 31 30 30 30 31 31 31 35 36 29 29 31 30 32 36 36 33 32 31 30 30 28 26 27 27 26 22 22 22 24 25 22 25
33 34 33 33 33 32 31 31 31 30 28 30 28 28 30 31 30 33 36 32 30 29 30 29 29 30 32 34 38 34 31 27 25 24 23 22 20 21 21 18 20 28 26
30 31 30 31 31 29 29 27 26 26 27 25 26 26 26 26 29 29 34 35 32 29 28 26 24 25 25 26 27 29 28 27 24 22 22 21 21 20 23 22 19 23 25
27 27 27 27 29 26 27 26 26 26 25 26 25 24 24 24 26 30 34 35 36 35 29 26 24 19 18 21 23 24 23 18 19 20 20 20 20 24 17 18 18 18 22
23 23 23 24 23 23 22 23 24 25 26 25 25 24 24 24 25 23 25 30 31 31 36 30 26 23 22 21 17 18 18 18 19 19 24 25 15 12 16 16 17 17 19
18 19 19 19 21 20 20 18 21 20 19 23 23 22 22 22 23 22 21 19 21 24 23 21 22 24 24 22 20 19 16 18 21 19 13 12 14 13 13 13 14 15 16
15 16 17 17 18 18 20 11 11 12 14 17 16 16 19 18 11 18 20 18 15 16 16 19 17 18 18 17 16 15 15 15 11 9 10 12 12 11 11 11 11 12 13
11 11 13 14 15 16 10 10 8 5 15 22 25 23 19 10 20 15 15 19 23 18 17 15 15 14 12 11 10 10 11 10 8 9 10 10 10 10 8 9 11 11 11
12 8 11 20 16 13 9 10 3 22 18 16 28 25 29 25 20 14 15 16 16 20 13 11 9 11 12 11 9 9 9 9 8 8 9 9 9 8 9 10 12 11 12
12 6 6 6 9 13 14 2 4 17 25 18 9 18 26 25 21 16 14 15 15 12 10 10 8 7 8 8 9 8 7 7 7 8 8 8 8 9 9 10 13 10 12
11 10 5 5 6 9 11 27 15 16 19 13 15 11 16 17 15 15 15 10 10 9 10 9 9 8 9 6 6 7 7 7 6 7 7 7 8 9 11 12 11 11 13
9 7 4 2 7 6 6 5 10 15 21 20 11 8 13 9 12 11 10 7 7 8 8 9 9 10 8 6 5 5 6 6 6 6 7 8 8 10 11 12 13 11 12
11 9 7 4 6 5 4 6 8 10 7 7 7 8 14 11 10 10 10 10 10 10 7 6 6 5 4 3 2 3 4 6 6 7 8 9 10 10 11 12 12 11 11
10 9 5 1 2 6 8 8 9 9 9 10 12 13 12 13 13 13 12 11 10 9 8 7 5 4 3 2 2 2 4 5 7 8 10 10 10 10 10 12 14 12 8
8 8 6 1 4 2 4 6 8 9 9 10 11 11 11 12 13 14 13 12 10 10 9 9 8 7 6 5 4 4 5 6 8 7 9 11 12 12 12 13 15 13 10
6 4 4 6 6 6 5 5 7 7 6 5 6 9 10 12 13 13 13 12 13 13 13 11 10 9 9 8 7 6 5 8 7 6 7 8 11 13 15 17 15 16 14
11 11 11 12 16 15 15 13 11 11 10 7 7 7 9 10 11 12 13 14 15 14 13 12 12 11 9 9 8 6 5 7 7 5 4 7 9 9 12 14 15 16 17

GFSGL_925_spd_057.txt.gz
Wind_Speed
39 38 37 36 34 35 28 29 24 22 18 21 17 17 18 19 18 18 18 12 15 14 13 11 12 12 11 10 10 10 11 11 12 13 12 12 10 14 16 18 18 20 23
40 38 39 36 36 35 36 30 27 26 24 22 21 20 19 20 20 20 20 18 17 16 16 16 14 14 15 16 13 12 13 12 14 14 17 19 20 20 21 21 20 19 21
39 40 38 38 38 37 35 33 31 29 27 25 25 23 21 22 22 22 22 21 20 20 19 18 18 17 17 17 16 17 16 16 15 17 19 18 20 21 21 22 23 22 21
39 40 40 40 39 38 35 35 34 32 30 28 27 26 25 24 24 24 23 23 22 22 21 20 20 20 20 19 19 19 18 18 19 20 21 21 21 19 19 20 20 19 24
38 38 41 42 40 37 38 36 35 34 33 31 29 28 27 26 26 27 25 24 23 23 22 22 23 23 23 23 21 21 20 19 20 21 20 20 20 19 19 23 27 25 24
37 40 37 36 38 40 39 38 36 34 33 32 30 29 29 29 28 29 29 26 25 25 24 23 24 22 26 28 29 30 28 24 19 21 23 22 23 24 23 23 27 29 23
35 34 35 36 38 39 38 37 37 36 34 33 32 30 30 32 30 30 32 30 25 26 25 24 23 23 26 26 25 27 29 30 32 34 29 28 29 27 26 25 25 26 29
35 32 36 35 37 37 37 38 37 35 35 33 32 32 31 32 34 34 32 34 30 27 24 25 25 25 22 19 22 23 23 23 24 25 29 30 26 25 23 25 29 30 29
32 37 37 39 36 36 37 37 35 33 33 33 33 32 33 32 33 36 34 29 29 30 29 30 27 25 26 28 28 27 27 26 26 29 31 33 34 34 32 33 29 25 24
37 40 38 37 36 37 37 35 36 35 35 34 32 32 32 32 34 34 36 31 28 28 29 30 33 35 32 31 31 29 29 28 26 27 26 25 24 24 24 26 25 22 23
34 32 33 36 36 34 32 32 33 33 31 30 30 30 30 32 31 36 39 35 30 28 28 27 29 30 33 35 38 34 31 28 26 25 25 22 20 22 23 16 15 18 22
31 32 33 33 34 33 31 30 30 28 27 25 27 26 29 29 32 33 34 37 34 30 28 26 25 27 27 27 28 30 30 29 25 23 21 21 21 19 15 18 22 21 22
28 30 30 30 31 29 32 29 29 27 28 28 26 27 27 27 27 31 32 34 36 36 30 25 28 25 16 17 20 21 21 19 19 20 21 21 17 16 22 19 16 22 22
25 27 28 30 30 29 31 29 29 29 28 26 27 26 25 26 26 25 31 36 35 35 38 31 28 21 18 18 15 17 20 18 20 21 19 17 17 18 12 14 16 14 16
24 27 28 29 31 30 28 29 29 25 27 27 25 25 24 24 26 27 25 23 24 29 24 24 25 25 25 24 22 20 18 18 18 17 15 16 14 14 14 12 12 12 13
21 24 29 30 31 30 28 16 19 19 19 17 11 9 6 6 8 18 27 20 18 21 23 22 22 22 23 21 20 17 18 18 17 17 17 14 14 13 13 10 10 11 12
17 24 25 28 29 27 27 25 19 11 9 8 11 13 14 11 8 3 12 17 16 17 20 19 20 17 16 16 15 16 15 15 16 14 12 14 13 12 10 10 9 11 13
4 3 15 18 24 20 21 22 19 20 17 11 9 10 18 21 17 11 8 8 8 16 20 19 14 15 14 14 13 13 12 12 14 12 13 12 11 12 11 9 10 12 13
22 17 5 10 8 16 13 17 17 17 17 15 10 7 4 14 23 19 15 12 17 19 20 16 12 12 11 10 10 11 11 11 13 8 10 11 10 10 10 10 10 11 10
20 14 8 10 8 9 14 18 12 18 21 23 16 13 10 7 10 10 11 11 17 13 15 12 10 9 10 10 10 9 8 6 6 8 9 8 7 9 10 10 9 11 12
23 12 8 4 12 8 7 9 3 9 17 9 15 8 13 4 9 8 8 9 7 10 10 12 11 9 7 7 7 5 7 5 3 4 5 6 7 9 10 10 11 9 11
19 16 16 7 3 2 6 7 5 18 13 7 15 10 9 7 11 10 9 8 9 9 9 8 7 7 7 7 8 4 3 6 7 8 9 9 10 8 8 9 11 14 15
13 17 13 6 9 9 4 10 6 6 6 8 9 9 12 9 9 8 8 7 6 7 8 8 8 8 6 5 3 2 3 2 1 2 5 8 10 9 9 9 12 16 16
5 6 10 20 7 11 19 13 11 12 15 12 9 7 11 9 8 8 7 7 7 7 8 8 8 8 7 6 5 4 2 3 3 2 5 7 9 10 13 11 13 16 18
14 9 8 6 15 12 10 17 21 20 18 16 14 14 13 12 12 10 7 8 8 7 8 9 9 10 11 11 6 3 4 4 3 2 3 5 8 10 12 14 17 17 19
16 16 16 16 15 14 13 14 15 15 17 18 14 13 14 12 9 9 12 13 12 12 11 12 12 11 10 10 8 5 3 3 3 3 4 6 7 8 11 11 13 16 18

GFSGL_925_spd_060.txt.gz
Wind_Speed
39 39 36 35 36 38 29 34 26 29 19 23 16 19 20 20 18 18 18 15 18 15 16 11 18 12 16 12 8 12 12 11 12 16 15 16 18 18 18 21 23 25 22
40 37 38 36 37 35 37 30 32 30 30 21 23 18 20 20 21 21 21 19 16 19 17 16 13 13 13 15 17 14 11 10 10 15 19 22 21 19 21 22 24 26 25
37 38 36 37 37 38 37 36 34 35 28 26 22 25 22 22 23 23 24 23 21 19 20 20 20 19 19 16 16 15 15 16 19 20 21 18 19 24 28 28 27 27 26
40 39 39 41 40 39 38 41 34 36 36 31 29 26 27 26 26 25 25 24 23 23 21 24 21 21 22 21 21 22 20 20 20 20 21 23 23 24 22 17 19 25 25
38 41 41 40 39 37 37 37 41 37 34 34 32 30 29 28 28 28 28 26 26 25 25 24 24 24 23 23 22 20 19 21 19 19 20 19 16 20 24 24 22 23 30
38 40 37 37 37 37 38 36 37 38 37 35 34 32 31 30 31 30 30 28 26 27 26 27 24 24 28 29 28 26 25 26 26 20 19 19 22 23 22 24 26 23 15
35 35 37 37 39 41 37 39 35 38 36 37 35 34 34 34 33 32 33 33 30 28 28 27 26 25 28 28 29 30 32 32 33 34 30 29 26 31 27 26 23 23 23
35 33 36 38 39 39 39 37 38 35 37 36 36 36 35 35 36 36 34 37 33 30 30 30 29 29 28 23 28 30 29 30 29 30 32 31 28 26 28 29 29 28 28
29 36 35 39 36 38 39 40 37 36 35 36 36 36 37 35 35 38 38 34 37 35 35 32 27 30 32 31 31 30 27 24 20 20 23 27 30 29 28 31 28 22 20
37 33 36 35 37 37 38 38 37 37 37 36 36 37 36 35 36 37 39 38 30 30 31 34 35 39 36 26 28 30 28 29 26 25 25 26 23 23 27 26 28 21 18
35 33 31 34 38 35 35 35 35 35 33 34 33 33 33 36 34 38 39 40 32 28 29 28 31 35 36 37 39 39 34 32 25 23 23 22 23 21 21 25 21 18 19
30 33 33 35 32 34 35 34 34 33 33 31 32 29 31 32 35 34 36 40 37 30 28 27 30 30 31 31 32 34 34 34 31 24 21 20 20 22 21 14 16 20 25
20 34 33 32 34 33 35 33 32 33 31 31 27 28 27 29 31 34 35 36 38 39 34 27 28 26 20 17 22 32 31 31 30 20 19 19 20 19 16 21 25 13 15
25 28 32 32 32 33 29 33 31 31 31 28 29 25 27 26 26 30 36 37 37 39 40 36 34 27 20 14 12 14 19 21 21 18 20 20 18 18 20 18 13 12 11
26 26 28 28 32 31 33 32 33 33 33 32 28 29 23 25 29 28 32 38 40 40 37 32 26 27 25 20 18 17 18 20 23 24 22 18 15 17 20 14 15 8 7
14 20 24 25 28 29 31 21 31 31 32 33 33 28 21 18 19 26 34 33 32 30 29 22 20 21 21 21 23 23 22 20 20 19 18 14 16 19 17 12 4 6 8
13 14 21 25 25 28 29 24 17 18 23 26 33 27 18 15 9 9 8 16 30 26 23 22 21 19 21 21 21 16 14 16 17 17 17 20 15 15 15 6 8 5 9
13 7 15 21 24 29 29 25 24 21 17 18 20 17 15 13 10 7 9 12 15 27 20 18 18 19 15 11 8 9 12 15 15 16 14 12 16 14 7 7 4 5 10
24 21 11 2 10 18 31 28 25 23 18 17 16 13 7 5 8 12 14 13 14 17 20 20 13 11 13 12 15 15 15 13 13 13 16 11 10 7 6 6 5 8 11
27 28 21 12 15 14 8 12 9 15 15 16 11 7 9 5 4 12 18 16 14 13 11 11 15 12 12 13 12 12 13 13 11 9 7 6 3 3 3 6 8 9 8
25 30 25 3 16 10 7 7 5 6 9 15 12 14 13 13 5 7 8 7 13 7 8 11 12 12 9 8 9 11 11 8 9 9 9 7 7 9 8 8 9 11 10
24 26 27 16 17 11 5 5 6 5 2 5 7 8 10 8 12 11 10 14 16 19 16 16 14 11 11 9 6 6 4 5 2 5 7 8 10 12 10 9 11 14 17
19 18 16 26 18 22 23 25 24 25 21 13 7 9 14 13 17 16 15 15 15 16 14 16 15 14 10 8 5 3 4 5 5 3 1 3 5 9 12 9 11 14 18
22 19 16 20 28 23 20 20 23 20 26 20 23 26 23 22 22 17 15 19 16 13 14 17 16 16 14 12 11 5 3 3 3 3 5 4 6 11 13 13 16 15 13
20 20 23 24 24 20 24 27 22 17 16 16 17 21 22 24 24 21 20 24 18 23 20 18 14 10 9 8 8 5 3 3 2 1 2 5 7 10 12 14 11 10 10
28 26 26 25 25 24 21 22 17 16 16 14 15 19 18 20 23 23 23 23 24 27 28 25 20 19 15 15 13 9 6 4 2 2 4 4 8 6 7 9 11 11 13

GFSGL_925_spd_063.txt.gz
Wind_Speed
41 37 38 39 42 40 35 33 25 23 19 16 31 30 26 24 20 21 18 15 18 15 13 13 14 14 12 14 11 7 10 11 9 16 16 16 20 21 20 18 22 26 28
41 39 38 39 41 41 41 36 34 29 26 19 26 29 28 27 24 22 22 20 19 19 19 20 17 15 18 14 15 14 13 9 10 15 19 19 19 16 20 24 28 30 30
40 40 37 37 40 41 42 42 40 36 32 31 26 31 30 28 25 25 24 23 22 20 21 21 20 19 17 17 16 15 14 13 11 11 16 17 21 23 25 26 15 21 20
41 40 40 39 38 41 39 42 41 38 37 36 33 29 30 29 28 26 26 26 25 25 21 23 21 21 22 21 21 21 20 21 22 23 23 22 22 23 18 19 24 25 27
41 41 40 39 37 35 37 37 44 39 42 38 36 33 30 31 30 29 28 28 29 28 26 27 23 25 25 24 24 23 22 22 22 21 23 19 17 20 23 27 29 32 30
39 40 39 37 38 38 36 37 40 42 38 42 41 38 35 32 33 33 32 32 30 31 31 29 29 26 27 27 26 25 25 23 23 20 23 24 28 31 34 33 29 23 9
42 39 41 40 39 40 37 36 36 41 38 37 40 38 38 38 35 35 33 33 34 33 32 32 30 30 30 28 26 26 29 31 32 32 29 31 30 31 29 30 31 29 22
28 38 41 41 41 38 38 37 36 35 38 38 36 36 36 38 38 37 36 35 36 35 35 34 34 33 30 27 27 27 30 33 31 32 34 34 34 31 27 29 30 31 30
25 34 38 42 39 39 41 39 39 35 36 38 36 37 37 37 37 40 38 39 41 39 39 37 37 35 33 31 30 31 30 26 22 23 22 22 24 24 24 27 30 23 21
30 38 38 40 40 41 40 41 37 39 37 33 36 36 37 38 37 38 41 42 40 37 39 41 39 37 34 31 34 35 35 34 32 31 28 28 26 25 21 24 30 25 23
26 29 34 41 43 41 40 38 39 36 33 35 34 35 34 36 38 40 39 43 37 33 33 34 41 43 42 40 38 37 36 37 34 28 26 23 22 24 27 25 21 23 24
23 21 30 35 38 36 39 38 36 36 34 33 33 30 34 35 38 39 41 43 44 35 30 36 35 37 36 34 34 36 36 38 37 33 27 26 27 29 25 20 19 14 17
20 22 34 34 39 36 36 36 34 34 33 31 30 31 31 32 34 39 42 43 43 45 37 35 31 31 33 34 36 37 38 37 37 33 33 32 30 25 21 21 18 20 13
25 21 26 34 33 34 34 36 35 35 33 31 30 30 30 30 30 32 39 41 41 43 46 41 36 31 25 21 19 19 21 24 29 32 30 25 20 18 19 18 20 17 9
25 21 24 31 35 32 34 34 36 37 37 34 33 31 28 28 36 34 36 41 44 44 44 36 29 34 34 33 30 24 19 19 22 23 22 20 19 18 19 16 17 12 9
24 21 18 25 28 31 30 29 34 34 36 40 36 32 32 32 31 36 34 38 39 40 38 28 29 30 30 29 28 29 27 25 26 24 23 21 19 18 17 17 11 9 5
23 22 22 19 24 26 26 28 19 29 35 37 38 38 30 36 35 33 37 41 39 43 26 30 30 28 29 29 30 30 29 30 27 24 22 20 19 16 13 10 11 8 5
26 22 18 18 14 23 25 25 24 23 20 21 34 39 40 28 24 23 26 27 37 38 32 32 32 29 27 27 28 28 24 23 22 20 18 16 16 13 11 10 10 9 6
27 25 22 14 13 23 25 25 26 23 23 24 22 26 29 24 20 17 15 14 24 27 25 24 28 30 29 28 26 25 23 20 18 16 13 12 12 12 12 9 10 8 7
27 28 26 14 7 15 24 26 22 21 22 26 27 27 23 21 20 18 19 18 19 17 23 27 26 24 23 25 22 21 19 18 17 14 11 12 14 16 13 8 6 6 7
29 31 33 11 6 14 16 16 15 17 20 20 24 26 22 11 9 12 11 9 10 12 14 10 5 13 22 5 8 10 9 8 11 11 13 11 8 6 8 9 9 7 6
29 27 24 16 14 22 16 20 20 20 21 14 12 14 11 9 7 11 9 11 12 11 14 13 5 13 20 17 9 14 16 15 12 10 8 6 5 5 4 6 7 11 14
23 21 19 23 24 28 26 22 20 24 21 16 17 17 19 19 16 17 15 16 20 25 28 29 26 22 20 19 19 15 15 11 8 8 8 7 5 2 7 10 11 11 12
20 22 21 24 30 26 21 24 23 25 26 27 26 25 20 22 23 18 20 17 18 24 28 29 28 25 21 19 18 11 11 8 5 3 1 2 4 2 2 6 7 16 18
23 24 26 28 26 24 25 23 27 29 26 24 24 25 26 19 20 22 24 21 20 21 22 21 20 19 18 16 12 10 8 7 6 4 1 1 2 5 6 6 8 8 8
26 26 25 26 27 26 25 25 25 24 24 27 27 26 23 24 27 23 29 24 24 22 21 20 18 18 17 17 16 14 12 12 9 10 10 11 12 10 9 10 8 9 12

GFSGL_925_spd_066.txt.gz
Wind_Speed
40 41 41 43 43 40 37 34 28 26 30 31 28 32 30 26 23 21 18 15 15 15 13 13 14 12 11 9 9 8 7 6 5 14 14 15 16 19 18 17 22 24 23
43 39 40 44 46 43 42 40 36 32 25 32 26 28 34 30 25 25 22 20 18 17 15 14 14 11 12 14 12 11 12 11 10 14 17 17 18 18 21 24 22 13 21
38 38 37 37 40 45 44 43 40 37 29 25 27 25 32 33 29 28 26 24 22 21 19 19 20 18 19 16 16 14 13 13 12 12 17 21 24 24 23 22 14 24 30
38 38 36 38 38 41 43 42 44 40 40 31 28 29 32 35 33 31 29 27 25 25 23 22 22 23 21 22 20 19 18 18 19 20 22 24 23 22 19 19 28 33 34
37 38 40 37 38 38 41 41 44 48 42 41 36 33 33 36 36 36 33 29 28 27 27 25 26 24 24 22 22 22 21 22 22 23 23 24 25 22 23 30 31 29 30
37 37 36 37 36 37 38 40 41 46 46 45 42 40 38 37 38 37 35 32 30 30 30 29 29 28 28 25 25 25 24 24 25 25 26 23 26 30 31 29 27 26 11
35 35 36 35 36 36 34 36 39 42 41 40 43 42 41 42 39 38 36 35 33 33 33 33 32 31 30 29 28 26 27 28 29 29 29 31 32 33 31 30 30 24 22
26 33 34 35 35 35 35 36 37 35 39 39 38 41 40 42 42 41 38 36 36 36 37 37 36 35 32 30 29 29 30 30 30 30 33 35 34 31 31 28 27 25 26
15 9 22 32 34 34 35 36 36 35 36 37 38 38 40 41 41 43 41 39 40 41 39 39 38 38 36 32 31 31 31 31 29 29 28 25 25 24 24 26 28 22 13
12 15 20 25 35 37 39 38 37 38 37 35 37 38 38 40 42 42 41 41 38 38 37 42 42 42 39 36 35 34 35 38 35 33 31 30 29 28 25 24 24 23 19
22 19 26 32 39 43 40 39 37 36 35 35 36 36 37 41 41 42 43 43 37 36 35 33 42 45 44 42 40 38 40 37 37 35 33 31 29 27 24 22 22 22 21
25 24 30 27 34 38 40 38 38 36 36 35 33 33 36 36 40 41 43 44 44 38 35 35 38 40 43 42 41 43 42 41 41 37 35 33 31 29 27 24 20 16 15
25 24 32 33 28 36 36 38 35 36 35 34 33 33 31 31 35 40 43 45 46 48 42 38 39 41 41 38 36 35 37 41 40 34 33 35 37 33 28 22 15 14 15
27 25 32 31 28 34 35 36 35 35 36 33 32 32 30 29 32 34 39 44 45 46 50 45 42 40 38 35 34 34 35 36 38 38 36 38 34 28 21 17 15 13 13
29 35 33 31 27 29 33 34 37 40 42 38 36 33 29 30 35 33 33 39 46 48 47 37 30 36 37 35 33 32 30 28 27 29 30 29 26 21 19 17 17 13 12
13 18 25 29 31 26 29 32 41 40 42 45 41 37 35 39 34 35 38 38 39 40 38 28 28 28 26 29 29 31 34 34 35 30 28 26 25 22 21 21 18 14 14
20 21 22 23 22 20 26 26 26 39 40 40 43 41 39 34 38 35 34 37 40 39 29 24 26 24 29 29 29 30 33 35 39 39 35 33 28 26 26 22 16 15 15
21 24 23 24 23 23 18 27 26 27 28 33 41 44 45 42 38 35 38 36 37 33 26 25 27 29 28 29 28 29 28 26 31 33 35 32 28 25 22 18 16 18 16
25 24 24 28 25 25 24 20 25 24 23 25 32 40 45 45 42 38 36 33 31 28 35 29 30 23 21 18 17 19 22 25 29 30 32 31 26 22 20 17 17 19 18
23 27 30 29 27 24 21 20 23 26 22 23 26 29 35 31 27 29 23 16 13 20 23 21 18 18 17 12 9 1 16 26 24 29 30 24 21 21 20 19 20 22 19
22 27 29 25 23 21 21 21 23 24 24 23 20 22 29 30 23 20 12 11 5 3 10 20 20 20 21 19 19 23 17 16 28 37 11 16 14 14 15 15 14 11 10
19 26 23 23 22 9 8 13 25 27 21 21 21 19 16 15 18 17 15 13 13 11 12 14 16 17 18 19 23 28 27 23 29 17 6 12 12 13 13 12 11 10 10
15 21 18 20 25 20 14 12 18 15 25 24 24 23 22 22 21 21 19 17 17 15 16 16 13 10 6 3 8 16 17 16 15 15 15 12 11 8 9 8 8 6 7
16 16 18 19 24 22 19 23 21 24 26 23 22 25 23 23 23 24 24 23 26 23 22 23 20 18 15 15 15 15 15 13 10 11 13 15 14 10 7 6 4 7 8
20 19 19 18 22 23 19 27 27 26 27 25 20 28 27 28 24 26 27 28 31 28 24 23 19 18 17 16 12 9 9 8 7 8 7 8 8 9 9 9 9 7 5
24 21 20 22 23 21 22 24 30 27 26 28 24 32 31 34 29 25 26 26 28 24 22 23 25 20 17 16 16 13 11 9 9 10 12 13 13 13 10 9 6 7 6

GFSGL_925_spd_069.txt.gz
Wind_Speed
40 43 41 41 38 37 35 33 29 20 27 28 28 25 24 24 23 20 19 17 17 15 15 14 16 14 14 10 6 6 6 4 4 7 10 14 15 16 19 20 21 20 16
40 39 41 42 42 40 39 37 33 30 25 24 25 26 26 29 28 25 23 21 20 18 16 16 16 13 15 13 12 10 8 9 8 12 16 15 19 21 23 24 21 16 23
37 37 35 37 39 42 41 40 37 34 32 28 24 27 30 29 31 30 27 24 23 21 19 18 19 17 17 17 14 14 14 12 12 13 16 21 24 23 23 21 20 25 28
28 31 35 37 41 42 42 42 41 39 36 34 30 26 30 31 28 31 30 27 26 25 24 23 22 22 22 21 19 19 18 17 17 18 20 23 23 22 22 22 28 29 28
31 31 34 36 38 41 41 43 44 43 41 38 35 33 29 29 31 31 33 32 30 29 29 28 27 25 25 23 23 21 21 22 21 21 24 25 26 25 23 24 26 26 30
32 34 34 32 34 37 38 41 41 44 45 43 41 38 37 35 32 32 34 35 34 33 33 31 29 28 27 28 26 24 25 25 26 25 25 24 27 28 28 27 27 22 12
33 34 34 35 35 38 40 39 40 41 41 42 42 43 43 41 39 36 35 36 38 39 38 35 33 32 30 29 29 29 30 28 28 29 30 30 30 31 29 30 30 24 24
15 33 34 34 35 33 31 35 38 37 38 41 40 40 40 43 45 43 40 38 41 42 41 39 37 36 35 32 29 29 30 29 30 30 31 33 32 30 28 27 26 24 27
5 3 21 27 27 30 31 33 35 33 35 37 38 39 39 39 40 44 43 41 43 44 44 43 41 39 38 36 32 32 31 31 29 29 28 28 29 29 27 26 26 23 14
13 8 8 6 23 28 30 32 34 34 35 33 35 38 40 40 39 40 39 42 38 38 40 41 44 44 41 37 35 33 33 36 32 31 30 30 30 30 27 26 27 24 18
17 14 11 11 11 16 26 33 33 34 33 33 33 35 38 39 39 39 40 42 38 34 35 34 35 42 42 40 38 38 38 36 35 35 34 33 32 31 30 28 25 23 22
17 17 16 12 15 14 19 29 34 33 32 32 31 32 32 34 37 39 40 43 43 38 35 33 33 35 38 38 37 39 39 38 38 38 34 35 34 37 35 28 25 24 23
17 16 16 17 19 16 16 22 26 31 30 29 28 30 28 28 32 36 40 42 44 46 40 35 32 32 33 34 36 36 33 34 35 35 34 35 36 34 31 31 27 22 20
14 8 15 18 24 19 19 17 27 29 29 29 27 28 26 26 29 29 33 40 42 45 48 43 40 39 37 37 37 35 34 33 35 36 36 37 32 31 30 28 25 21 20
26 20 20 26 24 25 24 18 28 36 38 32 34 32 28 30 32 32 35 39 42 45 43 39 33 34 32 35 38 38 37 33 34 35 36 35 33 28 28 26 22 21 22
20 17 18 16 20 21 22 25 25 37 34 42 42 36 33 38 31 32 35 38 37 35 30 31 30 29 30 30 29 28 33 38 39 37 36 33 29 25 27 25 23 26 24
19 13 17 18 10 14 20 19 22 23 40 42 44 47 44 38 33 35 30 34 37 34 31 26 28 29 29 28 28 28 28 34 34 37 36 33 31 33 31 26 26 26 23
24 25 21 21 13 13 17 22 21 23 20 26 44 44 47 48 43 36 33 33 31 35 30 27 28 29 29 28 27 27 25 25 25 27 29 29 27 26 24 24 25 27 25
26 24 23 23 21 25 27 23 24 23 22 26 23 30 41 45 45 41 36 37 31 29 35 31 31 30 29 29 29 27 26 25 23 23 18 18 8 1 12 20 23 27 24
23 20 20 22 22 20 23 25 27 24 22 22 22 29 27 30 32 34 41 41 28 28 29 33 33 30 29 27 27 26 24 26 27 27 23 17 12 14 12 9 21 27 28
21 23 18 20 18 18 22 23 23 23 22 22 22 28 34 32 27 25 25 27 29 27 28 30 26 26 27 25 26 26 26 27 24 19 17 15 21 31 37 42 63 44 32
19 16 15 15 14 16 20 19 15 20 20 21 21 25 24 22 20 20 22 24 21 20 17 18 18 19 21 23 25 24 23 25 26 26 25 18 11 8 10 17 18 30 17
11 9 9 9 8 12 15 14 13 13 16 22 22 22 24 23 23 22 23 20 18 18 15 15 16 12 11 11 12 16 19 21 22 19 16 9 9 15 16 16 16 15 17
6 4 6 7 10 14 11 10 14 13 14 16 10 13 24 31 29 25 21 21 19 19 18 18 15 14 12 10 11 10 8 8 9 11 12 10 10 10 16 16 18 17 13
9 6 9 13 18 12 11 15 19 18 17 22 26 25 22 25 24 28 26 23 23 24 22 19 21 16 18 15 14 14 10 6 8 9 12 14 13 13 12 11 12 13 11
16 14 11 18 17 18 15 18 19 22 23 19 26 28 27 26 31 26 29 29 28 26 26 24 25 18 26 21 20 12 11 13 7 9 11 12 12 10 11 10 9 9 8

GFSGL_925_spd_072.txt.gz
Wind_Speed
35 36 40 38 36 33 34 32 27 22 17 18 21 20 20 18 18 16 14 14 14 13 12 13 12 12 11 9 8 7 8 6 5 11 14 17 17 19 22 23 22 20 20
37 41 40 40 37 36 36 36 32 28 24 19 18 21 21 21 22 21 20 18 17 16 15 14 14 12 11 10 10 11 11 9 9 12 17 19 21 22 23 24 23 20 24
28 30 32 37 39 37 38 38 36 34 31 27 23 19 20 20 22 22 24 24 21 19 18 17 15 14 14 12 12 13 12 13 12 13 17 20 22 24 26 26 24 24 25
27 31 32 35 38 41 41 40 39 38 36 34 31 28 24 21 22 23 23 25 27 23 21 21 19 18 17 16 16 16 15 16 16 17 19 22 23 24 24 25 27 28 30
33 32 35 39 39 39 38 41 40 40 40 39 37 34 31 28 25 24 25 24 28 28 25 23 23 22 21 20 20 20 18 19 18 20 22 20 20 21 19 21 24 28 30
34 36 36 34 34 38 40 41 40 40 40 40 40 39 38 36 34 29 26 26 27 30 29 27 25 24 24 23 23 23 23 23 23 22 20 18 22 23 24 26 23 17 8
24 31 34 31 33 37 39 38 39 41 40 41 41 40 41 41 40 38 35 31 30 30 31 31 30 29 27 26 24 24 26 26 27 27 27 25 26 27 27 27 21 18 13
7 18 31 37 35 37 34 35 38 37 37 39 39 40 40 43 44 43 41 39 37 36 35 34 34 33 32 29 27 26 27 27 27 28 30 31 31 29 27 24 24 23 23
7 8 11 25 28 28 31 31 33 30 34 37 38 38 39 41 40 42 42 42 41 42 41 40 39 38 37 34 31 31 30 31 27 27 28 28 28 27 25 25 22 17 14
10 10 6 3 11 26 30 32 34 35 33 32 35 38 39 39 40 39 38 40 33 35 38 42 43 42 41 38 35 33 29 35 30 29 29 29 28 27 25 24 22 17 15
11 12 11 5 8 7 13 27 30 31 30 30 33 36 37 37 37 38 37 39 35 32 33 32 36 42 41 38 37 35 36 36 33 31 33 34 33 30 30 27 25 26 21
13 10 10 10 7 10 12 13 19 26 30 31 30 29 31 36 37 36 37 38 40 34 33 32 33 33 34 36 33 33 34 33 32 31 31 33 27 32 33 30 28 21 21
18 14 9 12 12 10 11 17 18 23 30 28 28 28 26 26 32 35 37 38 37 43 37 34 34 32 31 31 33 31 29 30 32 26 27 32 32 33 30 28 25 22 21
21 18 17 13 15 16 14 14 17 18 24 28 27 27 24 25 27 29 32 36 36 38 46 39 39 36 33 33 31 30 31 32 33 32 31 33 31 30 29 26 25 23 16
16 18 18 15 17 19 18 18 15 17 20 27 31 30 24 26 32 31 32 34 34 36 39 38 32 30 29 30 33 34 35 35 35 34 34 31 32 31 31 28 26 22 17
14 14 16 17 24 23 26 26 22 22 20 24 39 34 32 38 28 29 35 36 32 28 27 28 26 26 26 24 26 25 27 34 36 34 36 35 30 30 31 29 26 21 19
16 14 13 17 22 17 18 15 23 28 24 22 22 35 41 37 30 34 32 30 30 30 26 26 26 25 24 25 26 26 28 30 31 31 31 30 30 29 29 25 23 22 19
25 23 20 17 15 15 16 17 15 18 25 22 23 22 25 39 43 40 32 30 31 35 30 29 27 27 25 23 25 26 25 24 26 27 28 28 26 25 23 23 24 24 23
24 23 21 22 19 22 21 22 21 20 20 23 24 21 24 28 31 39 42 34 31 29 36 33 31 28 28 30 29 29 30 28 28 27 27 28 29 29 27 25 24 26 25
21 19 21 20 21 20 19 22 20 18 21 23 19 21 21 20 25 26 32 39 33 30 30 34 32 30 32 31 31 31 29 29 29 29 29 29 32 32 27 25 22 20 21
22 25 19 20 19 20 19 23 20 17 19 22 23 22 24 26 25 25 27 32 36 33 31 31 33 32 30 30 29 29 31 30 29 29 32 34 32 33 28 19 17 16 15
21 23 23 21 19 18 20 18 19 19 17 20 26 24 25 27 26 24 23 26 26 28 29 30 29 29 29 27 26 30 30 30 28 28 28 27 27 26 24 24 23 27 31
19 17 15 18 18 17 18 15 14 18 17 20 25 26 24 25 22 21 20 21 20 19 19 20 21 17 15 16 16 19 20 20 21 22 23 23 24 23 21 20 18 14 8
11 11 10 12 13 13 12 9 8 9 11 10 11 5 10 12 13 16 16 16 17 17 16 16 15 13 11 8 7 5 7 10 11 14 19 20 19 19 17 13 13 11 6
9 7 6 7 8 8 7 6 6 9 12 15 10 13 14 16 18 18 18 19 20 20 22 22 20 18 17 13 10 9 8 9 8 6 9 10 12 16 17 14 13 12 13
15 13 10 8 7 8 9 10 15 16 16 18 17 18 20 21 22 23 23 23 28 27 24 30 28 26 25 23 19 15 13 9 7 6 8 12 12 9 13 14 12 13 10

GFSGL_925_spd_075.txt.gz
Wind_Speed
28 30 29 27 27 25 24 25 24 21 19 16 15 15 15 15 15 15 14 11 11 10 9 9 9 9 8 7 6 6 6 5 10 12 10 11 13 13 16 17 15 15 16
28 27 31 28 27 25 28 27 27 27 23 21 16 14 15 15 16 16 17 14 14 12 11 10 10 9 9 9 8 9 9 8 9 13 13 13 13 14 15 16 15 14 14
22 23 28 30 27 26 27 28 28 28 27 22 21 18 16 16 17 19 18 17 16 15 13 13 12 11 11 10 9 9 10 9 10 12 15 14 14 14 16 16 14 14 15
22 22 24 35 35 32 28 27 26 29 30 27 26 24 22 18 18 17 17 18 17 17 17 15 15 14 14 12 11 11 11 11 12 13 15 16 15 14 14 16 17 16 18
21 23 26 28 34 38 33 31 30 26 28 30 28 27 26 23 21 20 19 18 18 17 18 19 18 18 18 16 13 13 12 13 13 14 16 17 16 14 15 15 16 17 18
18 24 24 23 24 27 30 31 30 30 28 28 29 29 29 29 29 30 26 19 19 19 18 21 22 22 22 20 19 19 19 15 16 16 18 18 18 16 15 15 16 16 13
13 20 24 23 23 25 26 26 27 29 28 27 28 27 31 34 36 37 36 28 23 22 22 21 21 21 23 20 19 20 21 22 23 22 22 21 22 18 16 16 15 15 18
6 6 14 20 24 22 22 24 26 26 26 28 26 28 31 34 39 41 41 38 30 28 27 26 24 25 23 22 19 18 18 19 20 22 25 24 22 19 17 16 16 16 16
16 12 9 9 20 22 23 23 24 22 23 25 25 25 28 35 37 38 37 33 33 33 32 31 30 29 30 32 27 23 21 23 21 24 25 26 26 24 22 18 17 17 18
20 21 18 13 9 12 19 22 22 23 24 23 24 25 27 31 35 36 35 30 30 32 33 35 36 38 35 38 35 26 26 27 22 21 21 22 23 24 22 22 18 19 19
19 20 19 17 12 9 11 15 21 23 23 24 24 24 26 29 32 34 34 33 31 30 31 30 32 35 40 43 43 33 33 30 24 22 22 22 20 18 17 18 21 21 21
21 20 17 18 17 12 12 15 13 17 24 24 24 24 25 26 31 34 34 35 35 31 31 29 30 31 35 35 36 40 39 36 26 24 24 24 22 22 19 18 19 20 20
20 23 21 22 19 16 15 13 12 17 19 19 21 23 26 24 26 30 36 34 35 40 33 30 30 30 31 33 33 32 29 28 26 25 25 26 24 22 18 18 17 18 19
18 19 22 21 19 19 16 16 14 17 18 19 19 24 26 25 26 25 24 32 35 36 43 36 32 29 28 26 25 28 32 27 27 26 26 25 23 21 21 18 18 17 17
17 19 19 18 19 20 18 19 18 17 18 19 17 19 23 27 29 26 24 22 24 27 27 27 27 27 28 26 26 27 25 25 28 29 27 26 24 23 23 21 20 18 19
15 17 18 20 19 19 22 23 21 21 20 23 24 28 31 35 32 28 27 31 30 25 19 25 26 26 26 25 25 27 27 28 29 27 28 27 27 26 24 22 21 21 21
16 16 18 20 21 22 22 21 24 23 19 25 20 23 29 30 33 31 32 27 30 29 26 24 24 21 21 23 24 26 26 27 26 28 28 27 26 25 24 24 23 23 24
17 17 17 20 21 23 23 22 21 22 24 23 22 26 25 27 19 20 36 25 31 35 30 26 23 23 23 24 25 28 27 25 26 26 27 26 25 23 23 24 24 25 25
18 16 17 21 22 23 24 24 23 22 24 21 25 31 21 20 17 20 21 35 30 30 35 32 28 27 25 26 26 26 26 25 26 26 25 26 24 23 24 24 23 24 23
18 19 20 21 22 22 22 23 22 22 24 21 23 29 22 19 15 20 21 25 32 34 32 32 33 31 30 28 29 28 27 26 27 30 29 27 27 26 25 24 22 20 21
20 21 21 22 21 22 23 23 21 21 22 22 28 29 23 23 21 21 21 26 29 30 30 32 30 28 29 29 30 29 30 30 29 30 29 29 28 25 26 23 21 21 18
22 21 21 20 22 23 23 22 21 22 23 25 27 29 26 27 25 27 26 25 30 25 27 28 23 25 27 28 29 30 30 29 28 29 29 28 29 29 28 25 23 21 17
21 17 20 21 22 21 21 20 19 20 21 22 21 24 27 24 24 26 24 23 24 21 25 25 23 25 25 25 28 29 31 29 27 24 22 23 23 21 22 20 22 19 20
17 19 19 19 16 16 18 17 15 16 17 17 17 16 19 12 13 15 13 14 14 14 15 14 14 14 17 18 18 20 21 21 21 19 19 18 14 14 16 17 18 21 22
16 14 13 13 12 12 13 12 11 10 10 10 9 9 6 4 3 5 7 8 6 5 5 5 7 7 4 5 9 10 9 11 12 13 12 11 9 7 11 16 19 19 18
20 16 11 8 8 8 7 5 2 3 2 1 2 4 5 7 8 8 11 13 15 16 18 19 19 19 18 16 12 10 9 9 9 8 9 10 11 8 6 5 3 7 6

GFSGL_925_spd_081.txt.gz
Wind_Speed
21 21 21 21 20 18 17 16 16 14 12 10 8 12 10 12 11 12 13 5 9 9 11 7 9 14 12 11 11 11 10 10 12 14 12 12 9 14 14 15 15 17 15
20 19 20 19 18 19 19 18 16 17 16 16 15 13 14 14 14 14 15 13 12 11 11 11 11 13 14 17 13 10 11 11 11 13 16 18 17 14 14 15 15 14 14
18 18 18 19 20 21 21 19 19 18 18 17 17 17 16 17 16 16 16 17 14 13 13 13 13 13 13 15 14 16 16 16 15 17 16 16 16 15 15 15 15 14 15
5 19 17 17 20 21 22 20 20 20 19 20 20 20 19 18 17 18 19 18 18 17 16 16 15 15 15 15 15 15 16 15 16 16 18 18 16 14 14 15 15 16 16
18 17 8 14 16 17 18 21 22 21 22 22 21 22 23 21 21 22 20 21 21 19 18 17 19 18 18 18 17 18 17 15 17 17 18 17 15 12 12 15 19 18 18
18 17 16 12 6 14 15 17 19 22 22 23 24 24 25 26 26 25 23 22 22 21 20 20 21 18 23 24 25 24 20 14 16 18 18 18 17 16 16 17 18 18 17
16 16 16 15 11 12 10 13 17 19 21 24 26 26 27 28 29 28 30 29 26 23 22 23 22 24 26 25 25 27 29 28 28 25 21 21 21 19 18 17 18 18 20
16 18 20 18 15 15 14 14 17 16 19 23 25 27 27 29 31 32 32 33 30 31 29 25 26 27 25 21 25 24 24 26 29 32 35 35 30 27 25 21 20 22 22
13 13 15 16 15 15 16 18 15 17 20 21 21 25 28 29 31 31 34 30 31 33 32 33 33 30 29 32 31 25 25 27 25 29 30 30 29 27 25 23 23 22 21
14 13 13 13 13 14 15 17 18 18 17 19 21 26 28 30 28 30 31 28 30 30 31 34 37 38 36 35 34 32 31 33 26 27 23 31 34 36 34 33 28 25 24
14 13 13 13 13 12 14 14 18 18 18 15 18 22 27 28 28 30 29 28 30 30 31 30 32 34 36 40 41 36 38 33 28 28 30 30 30 28 27 28 30 29 27
15 15 14 14 14 14 14 15 14 14 17 15 16 17 25 30 30 28 29 30 30 30 31 31 29 33 33 34 37 42 44 44 35 31 30 30 27 27 28 28 29 34 32
18 18 17 16 15 15 16 16 17 14 11 13 14 17 21 25 26 28 29 32 36 36 35 34 33 30 26 22 31 35 36 37 32 30 30 32 30 30 30 29 29 22 27
21 20 20 18 17 17 16 16 17 16 16 16 14 17 17 22 18 12 9 9 14 18 36 36 40 39 31 29 23 24 27 26 29 30 29 30 30 29 28 27 27 27 25
21 22 21 20 20 19 17 18 17 17 16 16 17 20 21 22 21 27 31 30 23 24 26 27 29 28 29 31 30 29 26 24 26 28 29 27 27 27 27 26 26 25 25
20 19 22 23 21 22 22 23 21 22 23 22 23 22 23 25 30 29 29 27 26 24 24 18 23 25 27 27 26 27 28 30 28 26 26 27 27 26 25 24 26 25 24
18 20 21 23 25 25 25 24 25 26 25 24 24 22 22 24 26 26 26 23 26 25 24 19 26 29 29 27 26 25 26 26 28 29 28 26 25 26 26 25 24 22 24
18 19 21 24 24 26 28 28 28 26 25 26 23 22 22 28 26 24 22 26 29 22 20 23 25 28 29 32 27 23 23 22 22 24 23 26 26 24 24 23 23 24 25
22 20 20 23 26 27 30 31 30 29 31 31 29 27 26 25 22 23 23 27 22 22 21 22 22 27 30 28 31 25 24 26 27 27 28 27 27 27 26 24 26 25 23
23 22 21 24 26 25 28 32 33 32 31 31 30 28 26 24 24 22 18 18 20 21 22 23 26 32 29 23 30 30 28 29 28 28 26 24 25 24 26 24 25 23 23
24 23 23 25 26 26 25 27 30 31 32 31 31 32 28 23 26 27 26 26 25 25 26 25 25 24 26 30 29 30 32 30 28 25 26 25 23 23 24 23 25 24 26
22 22 22 24 25 26 27 26 29 32 30 29 33 35 33 32 30 29 29 28 27 26 19 20 23 25 18 21 22 23 25 29 29 27 27 25 26 26 25 24 25 26 26
20 21 23 24 26 28 28 27 28 29 29 30 32 32 33 32 30 29 27 24 22 22 22 25 30 32 32 30 28 27 30 29 26 22 22 21 23 25 26 27 28 26 26
19 20 21 23 26 27 27 26 26 28 30 29 29 29 30 27 27 27 28 26 25 30 34 33 32 31 32 31 30 29 28 29 29 28 26 24 23 22 21 23 25 25 21
17 20 21 22 24 25 25 25 25 25 26 27 28 28 28 29 26 27 27 27 29 30 29 26 25 25 25 25 26 26 26 25 25 24 26 25 23 24 24 23 22 19 15
15 19 20 21 21 23 23 23 23 23 23 23 24 26 26 25 26 27 26 26 25 24 21 17 15 15 16 17 18 19 17 15 16 15 15 17 17 18 19 18 15 13 9

GFSGL_925_spd_084.txt.gz
Wind_Speed
26 25 24 24 22 19 16 13 17 11 10 13 12 16 14 12 13 13 10 6 11 10 12 6 14 12 16 18 13 10 14 11 10 15 13 14 18 19 20 18 19 17 20
27 27 27 23 23 22 21 19 18 17 15 13 11 12 13 14 12 14 13 11 11 11 10 9 11 12 15 15 15 16 15 15 14 17 20 24 19 22 19 18 19 17 16
23 27 24 25 23 23 24 22 20 19 17 16 17 17 18 17 16 14 15 14 14 13 14 12 15 14 14 15 16 14 14 15 16 17 21 19 19 20 22 20 18 20 18
12 16 23 21 20 20 18 21 22 21 19 19 19 19 21 19 19 18 17 17 17 18 15 16 17 18 18 17 18 18 20 20 19 18 19 20 23 24 21 16 11 17 17
22 22 18 13 12 13 16 20 19 20 21 20 20 21 19 21 19 20 20 20 21 22 21 20 21 21 22 19 18 18 21 20 19 20 21 20 19 9 16 16 16 16 19
24 22 18 15 14 3 8 12 15 16 19 19 21 21 21 22 23 24 26 23 22 24 24 22 22 21 19 25 23 24 26 21 19 17 19 17 23 20 16 17 21 20 13
23 18 15 13 12 12 12 5 8 15 18 19 20 22 23 24 27 26 24 26 23 23 25 26 25 22 24 27 29 29 29 29 29 28 28 26 23 26 22 20 17 21 22
19 18 19 16 12 11 9 10 10 8 12 18 22 21 25 25 25 27 30 30 27 28 29 26 26 27 28 22 22 26 29 30 29 30 34 37 38 37 35 29 25 26 26
15 13 14 19 17 14 12 12 14 13 12 13 17 21 22 24 25 28 25 30 29 30 32 30 30 32 29 28 31 32 28 27 27 28 28 31 31 30 28 28 23 19 21
15 15 13 13 12 11 12 12 11 14 15 16 16 19 24 28 24 24 27 28 25 25 28 31 34 38 36 37 37 33 34 36 30 30 28 26 30 35 35 34 33 24 23
13 14 14 12 12 11 11 14 15 13 13 15 17 19 20 24 24 24 25 28 27 24 27 28 28 31 36 39 44 44 41 36 32 33 32 33 32 31 31 33 35 38 31
14 14 15 16 13 13 13 14 16 16 15 15 14 15 14 15 17 19 24 27 27 28 29 28 28 26 23 28 41 43 42 44 39 32 29 30 30 29 27 33 35 36 39
15 18 17 15 17 16 14 19 18 16 15 13 11 9 12 11 15 12 5 11 5 10 12 29 33 32 34 36 32 30 34 45 36 29 30 31 32 32 33 34 37 37 34
18 17 18 22 18 19 18 17 13 15 15 14 13 14 16 17 15 15 18 21 21 20 19 21 20 22 36 38 38 39 32 29 34 31 32 32 31 31 31 30 31 31 30
18 20 20 18 22 23 18 16 15 16 17 18 15 17 18 19 18 22 25 26 21 18 22 23 25 24 19 19 22 25 30 31 32 32 30 29 29 29 29 28 31 29 25
16 17 19 22 22 21 22 24 23 24 22 21 24 25 26 25 23 20 21 23 22 19 20 22 25 27 27 28 21 20 28 32 34 30 32 32 31 28 27 25 25 28 25
15 16 18 19 20 22 21 21 23 26 27 28 28 27 26 27 24 21 26 26 24 22 23 25 24 29 31 28 24 27 30 37 37 37 39 32 29 28 28 27 26 26 23
16 17 16 17 19 21 21 24 27 27 27 26 23 25 30 30 28 30 30 28 27 20 21 19 22 25 27 26 23 25 39 43 35 36 36 34 32 32 27 24 21 21 24
15 15 17 19 19 20 21 23 23 25 27 29 29 26 24 27 28 29 30 25 26 21 21 20 21 22 23 26 28 30 31 29 31 31 34 26 26 30 28 25 24 28 28
18 18 18 18 19 20 21 22 23 25 26 28 28 28 29 22 21 22 22 20 19 20 20 21 23 23 26 28 32 37 32 27 25 26 32 30 27 29 27 24 25 24 26
17 18 19 19 20 20 20 22 23 25 27 27 31 32 33 36 28 25 27 28 29 30 29 26 26 26 24 19 19 21 24 29 23 30 32 29 31 27 27 29 28 27 24
14 16 17 18 20 22 23 25 25 25 27 28 33 32 31 34 32 29 29 32 34 32 33 26 15 17 22 26 31 32 35 33 26 21 22 26 29 27 28 29 27 23 23
11 13 15 17 18 20 23 25 25 25 27 29 30 32 29 28 29 30 34 35 33 28 26 25 24 23 24 27 28 34 38 37 34 31 28 27 26 22 25 29 30 22 21
10 13 16 17 19 21 21 24 26 28 29 30 30 30 30 30 31 30 30 33 36 34 33 32 35 38 41 43 42 39 39 37 34 32 30 29 30 31 30 28 28 26 24
9 12 15 15 20 22 23 24 25 26 28 30 31 31 30 30 32 31 31 34 35 35 36 38 40 42 43 42 40 39 38 36 33 29 28 29 30 31 30 27 23 21 23
11 10 13 13 16 20 22 24 26 27 27 29 30 31 29 30 31 31 30 29 31 31 31 34 33 34 35 36 34 33 32 31 29 26 24 25 26 24 23 24 23 19 16

GFSGL_925_spd_087.txt.gz
Wind_Speed
33 28 25 24 20 19 18 12 14 11 17 13 15 16 15 15 14 13 11 11 8 14 13 14 12 10 12 13 14 13 13 12 5 8 13 16 20 19 16 17 20 19 21
34 31 29 25 24 22 21 20 15 16 15 13 9 13 19 16 15 17 14 13 13 12 11 11 14 11 10 13 12 14 13 12 12 14 17 19 20 18 22 26 23 23 23
11 26 24 26 26 26 24 23 24 19 18 17 17 15 14 16 17 16 16 15 14 15 14 13 14 13 15 14 15 14 15 17 16 16 19 19 20 23 27 28 24 15 13
8 11 11 8 12 24 25 24 23 22 20 19 20 19 19 20 20 19 17 17 16 18 18 15 17 17 16 16 18 17 17 17 18 18 20 20 21 25 13 17 15 13 16
10 6 2 1 10 15 23 18 21 20 21 20 19 20 18 22 22 20 20 20 21 21 21 21 20 20 22 20 20 20 20 18 19 18 18 17 17 20 20 13 21 22 24
17 12 10 7 5 3 4 3 9 16 18 18 20 21 21 22 19 21 21 24 25 24 25 23 22 22 23 20 22 22 23 22 21 19 20 21 24 24 22 24 24 25 10
21 15 7 9 6 4 8 4 1 3 8 11 14 17 22 24 22 24 25 21 26 28 26 25 23 24 24 22 24 26 29 30 28 27 28 30 31 33 32 32 33 30 26
18 15 17 16 11 9 8 8 8 5 4 6 11 13 15 19 21 24 23 25 26 25 24 24 25 26 25 27 27 28 23 25 28 29 32 34 34 30 31 30 30 29 30
19 18 16 16 15 15 14 11 10 10 9 9 7 10 14 16 17 20 23 25 26 27 29 29 28 29 28 28 27 29 32 34 33 30 30 31 30 29 29 31 30 23 22
19 18 17 16 14 15 12 15 15 14 12 13 13 10 13 15 17 18 19 22 25 27 28 28 29 31 31 32 35 35 35 35 33 35 35 35 33 33 29 30 32 28 22
15 15 15 14 15 15 15 14 16 16 15 16 14 13 11 10 9 11 12 15 19 24 25 24 22 26 27 27 32 37 38 36 33 32 32 32 32 33 34 33 33 35 30
14 14 15 15 15 16 16 16 19 19 19 20 17 13 6 12 15 15 14 12 11 13 18 22 27 30 28 25 24 25 23 23 28 37 32 29 28 29 30 31 31 31 36
14 15 16 16 15 20 19 18 19 18 16 15 16 14 12 15 17 16 16 16 17 17 15 16 17 22 28 36 38 35 29 23 20 24 27 30 31 33 32 31 33 35 39
15 16 19 19 19 19 20 21 21 23 22 22 20 20 21 23 22 21 19 22 22 19 21 22 22 23 23 25 27 30 37 40 38 36 36 34 31 28 32 33 31 30 28
15 16 18 19 20 20 21 20 21 22 23 26 26 24 25 26 26 25 22 21 21 24 26 27 28 28 29 27 26 24 23 27 29 30 30 30 29 29 32 31 29 28 27
15 16 18 19 19 20 22 26 22 20 20 20 19 25 27 27 24 24 26 23 23 27 27 27 31 31 30 29 27 26 26 26 29 24 25 29 27 27 29 30 29 27 27
13 16 17 18 20 21 22 22 24 34 28 25 24 27 28 31 30 28 25 25 29 29 29 32 31 30 30 30 30 26 25 27 30 31 29 29 29 28 32 32 32 29 27
12 13 15 18 18 20 22 23 23 22 25 27 26 27 27 27 30 27 27 31 29 29 29 30 29 27 27 26 26 27 26 25 25 25 21 18 22 23 19 21 30 30 31
13 14 15 16 16 17 17 18 19 22 24 26 28 27 25 29 34 32 29 25 25 23 25 26 27 25 25 26 28 30 31 28 27 26 29 27 27 21 29 30 46 46 38
11 12 15 15 17 18 19 19 19 19 21 23 25 27 30 32 30 31 31 28 27 25 26 26 28 29 30 31 26 21 20 20 21 20 24 25 24 24 30 30 38 32 31
7 10 12 14 16 17 17 18 21 21 21 22 25 26 29 32 31 29 31 30 29 28 26 26 24 23 22 23 21 19 20 25 24 21 22 28 22 22 30 34 30 29 29
3 6 8 11 13 16 18 18 18 20 21 23 26 28 30 30 29 30 30 30 30 32 34 32 30 24 26 25 25 26 25 25 28 27 24 26 28 26 25 25 25 25 24
2 3 7 11 12 16 19 19 19 20 21 23 25 27 27 28 29 30 32 33 32 33 34 32 29 28 27 27 31 35 33 30 29 32 32 29 29 27 25 24 20 24 29
9 5 3 8 14 15 18 20 20 22 24 24 25 26 27 28 30 32 33 34 35 37 39 36 32 33 34 33 34 38 40 38 34 36 37 40 38 37 29 26 26 27 24
11 10 8 11 13 15 19 21 21 22 24 25 26 28 28 29 31 32 32 33 35 36 39 38 34 35 40 43 43 42 43 41 40 38 37 37 40 39 36 32 29 25 24
12 14 15 10 11 15 18 21 22 22 24 24 27 28 30 29 32 33 34 34 34 33 34 36 35 33 37 39 41 42 41 40 37 36 33 35 36 38 35 31 30 28 25

GFSGL_925_spd_090.txt.gz
Wind_Speed
29 30 29 27 25 22 20 16 16 20 19 18 14 15 16 15 15 15 12 10 9 9 11 10 11 9 8 6 7 7 6 5 3 7 10 13 15 17 19 23 25 23 20
21 26 29 29 26 25 26 24 17 19 17 18 15 16 18 16 16 17 16 13 11 13 11 13 13 11 11 8 8 9 8 6 7 10 14 16 17 18 21 22 18 15 12
10 19 23 24 25 26 25 25 23 19 20 18 17 15 17 20 17 17 17 16 15 14 14 13 11 11 12 12 11 12 11 11 11 12 15 18 19 19 20 16 17 16 19
9 1 7 12 24 26 26 23 24 23 20 19 19 19 17 17 17 19 18 18 17 17 16 17 18 17 17 15 15 15 15 15 15 16 15 17 17 17 16 21 22 25 27
11 2 6 8 3 17 23 21 19 21 23 22 20 20 20 19 20 20 21 21 19 20 19 19 18 18 19 19 20 21 19 19 19 18 18 18 19 20 21 22 23 30 32
11 8 5 3 5 6 4 10 13 19 20 20 19 20 19 20 20 18 21 22 22 23 24 23 22 21 21 21 23 20 19 22 22 22 23 21 24 25 26 27 28 28 13
11 9 7 2 8 11 8 7 7 7 7 15 19 18 18 19 17 18 19 22 24 24 23 26 26 24 23 21 22 23 22 23 24 28 29 30 29 29 27 28 29 26 24
16 16 14 10 3 7 8 11 11 11 9 7 7 9 13 12 14 16 19 22 24 25 25 25 24 24 25 25 25 26 26 26 26 25 27 30 31 29 29 29 30 29 30
20 19 15 13 15 8 12 9 10 10 11 13 12 9 6 8 10 11 16 18 20 23 24 25 24 26 27 26 26 28 30 31 30 30 32 34 32 30 28 29 31 27 23
16 15 14 16 13 9 8 7 9 12 9 10 9 8 8 8 8 9 12 14 15 20 21 21 22 22 22 25 27 29 32 33 32 31 33 32 31 29 28 30 33 28 20
11 11 12 12 11 11 8 9 12 16 15 15 8 10 13 14 15 13 11 10 12 13 15 17 17 19 20 22 23 25 29 26 26 32 34 32 34 33 34 32 30 31 27
11 12 12 12 14 15 17 14 16 17 16 19 20 14 15 15 17 15 15 13 15 16 16 15 16 17 20 23 27 30 30 31 31 30 31 32 28 30 33 33 33 31 32
10 12 13 12 15 16 18 19 20 21 21 21 22 21 21 19 17 18 19 17 17 16 16 19 19 20 22 24 24 25 24 26 29 31 31 35 35 34 34 32 32 32 33
13 13 14 16 17 16 16 16 18 21 22 22 22 24 26 23 25 26 23 20 21 20 21 24 26 26 24 25 25 25 25 23 26 27 28 31 34 30 31 33 32 28 26
13 15 15 16 17 18 17 16 16 15 16 17 20 21 21 23 27 26 24 23 21 22 26 28 29 31 31 31 30 27 25 24 24 26 26 27 28 28 28 27 27 27 23
13 15 15 15 15 16 18 19 16 18 17 15 16 18 18 19 24 24 21 21 21 23 25 28 31 31 31 30 30 29 26 23 24 23 25 26 26 26 27 27 28 27 24
11 12 15 16 17 17 18 19 22 23 21 22 24 23 21 22 24 27 27 24 22 21 22 24 27 30 30 32 29 28 28 26 24 24 25 27 27 25 24 24 24 23 21
10 11 14 15 16 17 19 20 20 22 22 23 24 24 24 27 29 29 28 29 28 25 25 25 26 26 25 23 25 26 27 26 24 25 25 25 26 24 24 23 23 23 22
9 10 12 13 15 17 18 20 21 22 23 24 30 30 29 30 30 26 25 21 21 22 23 25 25 26 26 28 27 24 21 20 19 19 21 18 20 23 26 27 27 27 30
6 8 10 12 15 18 20 22 24 25 25 23 22 24 29 34 31 29 25 23 23 23 24 25 24 24 24 25 24 23 22 22 22 20 21 24 22 21 21 23 25 24 23
2 3 6 8 11 15 17 20 21 22 21 21 21 25 27 28 26 25 27 26 25 26 27 28 29 29 30 31 27 27 29 27 27 28 27 24 25 25 26 24 25 25 26
7 2 2 5 8 10 13 15 19 20 18 18 20 22 23 23 24 25 26 27 29 30 30 32 32 31 31 32 30 28 27 27 27 27 27 27 26 27 26 25 27 27 26
13 9 5 3 6 8 11 14 16 20 19 18 19 21 22 22 24 26 28 31 31 31 30 31 34 36 33 33 30 29 29 28 29 29 29 28 28 28 29 30 29 29 27
16 16 13 10 8 8 9 11 13 16 17 15 17 18 20 22 26 27 29 29 32 33 33 32 33 36 38 39 37 35 36 34 29 33 34 34 34 32 29 30 31 30 30
18 20 19 16 13 12 12 13 15 17 20 18 19 20 22 23 25 27 28 30 33 35 37 36 35 35 36 39 42 43 40 40 39 37 38 38 37 39 37 34 37 34 32
22 18 22 19 16 14 14 14 15 16 18 17 19 21 23 24 26 27 28 31 31 34 37 37 37 37 37 36 34 36 40 41 42 42 40 40 41 38 36 35 36 35 33

GFSGL_925_spd_093.txt.gz
Wind_Speed
24 23 24 23 21 19 18 15 14 14 15 16 13 12 14 14 13 13 12 11 11 9 8 11 9 8 7 4 3 2 2 1 2 4 8 12 13 15 15 16 16 15 13
17 22 22 22 23 22 21 20 18 17 16 18 16 14 15 16 14 14 14 14 12 12 13 11 11 9 9 8 6 6 5 5 6 9 13 15 16 16 15 12 11 13 18
3 8 18 18 19 23 24 23 21 21 17 18 18 19 14 17 17 16 16 15 15 14 14 14 12 11 12 10 8 9 8 8 8 9 11 15 17 15 14 14 15 18 20
1 11 0 3 10 15 19 22 21 21 22 20 20 20 18 16 16 18 18 18 15 16 16 16 15 15 16 15 15 15 14 15 15 13 14 16 17 17 16 17 21 22 25
9 2 6 7 8 7 8 13 18 17 19 21 21 22 20 19 18 19 18 18 18 18 18 18 18 18 17 17 18 19 20 19 19 18 18 19 22 22 22 22 24 25 26
11 7 2 3 8 13 15 10 3 7 15 19 19 20 22 21 18 18 16 17 18 19 19 18 19 19 21 22 21 21 21 20 21 21 22 23 27 27 27 27 25 22 8
11 7 4 3 2 8 12 12 12 13 13 8 7 14 19 22 19 19 17 17 18 19 19 19 20 20 19 21 23 21 22 21 22 23 23 25 26 26 26 28 29 26 27
18 14 10 6 3 5 7 10 12 12 14 15 12 9 9 7 9 17 19 18 19 19 20 20 21 22 22 22 22 24 25 25 25 27 29 30 29 28 27 27 27 28 30
21 18 16 14 13 10 8 5 9 11 7 10 9 8 8 9 11 8 7 10 12 15 17 16 16 18 18 18 19 22 26 28 28 29 31 31 31 31 28 28 29 26 21
16 15 14 13 12 10 8 4 7 8 8 5 8 10 12 17 18 18 11 9 8 10 13 12 12 12 12 13 13 15 21 25 25 27 29 31 29 29 27 27 28 27 20
10 10 10 11 11 11 10 10 9 11 17 22 19 17 16 16 14 16 19 17 17 15 14 15 12 16 17 15 17 19 20 23 25 27 30 31 30 29 28 27 28 30 27
7 9 10 11 12 12 12 13 12 12 14 16 14 15 15 16 13 13 14 13 16 17 15 15 17 18 19 19 18 18 20 21 22 22 25 30 30 33 33 32 31 32 32
8 10 11 10 11 12 13 13 14 14 15 15 16 16 16 15 17 16 15 13 12 14 16 17 19 22 23 21 20 19 18 19 21 23 23 27 26 27 27 28 28 29 32
13 13 13 14 13 12 12 13 13 15 15 15 15 15 15 16 19 21 21 18 18 17 18 19 21 23 24 25 25 24 22 19 20 20 21 25 25 24 26 25 26 25 25
13 13 12 13 14 14 14 14 14 15 14 14 14 13 15 17 20 19 20 21 21 20 21 20 23 25 27 29 30 28 26 23 22 21 21 23 25 24 25 23 24 23 23
13 12 12 12 13 14 14 12 13 11 10 12 13 13 11 14 17 17 17 20 21 21 21 21 23 23 24 24 24 27 26 25 26 26 25 23 22 22 24 24 23 23 22
13 12 11 11 12 14 15 17 17 15 14 17 17 16 18 20 22 22 22 20 17 17 18 20 21 21 23 23 23 23 23 27 26 25 25 25 23 21 21 21 21 19 21
12 11 13 13 14 15 16 17 17 20 21 23 20 19 20 23 22 23 24 22 24 24 23 21 21 21 22 22 22 22 24 22 22 25 24 22 22 25 25 22 20 19 21
11 13 14 14 15 15 15 17 18 19 19 20 23 24 26 26 26 25 24 22 18 18 19 20 20 22 22 23 24 28 30 28 25 24 24 27 30 27 25 25 27 27 26
9 10 10 11 11 12 14 16 17 18 19 20 21 21 24 26 25 24 24 23 22 22 22 21 21 22 24 25 27 28 30 27 26 25 24 27 28 27 25 24 23 23 25
8 6 6 6 7 10 12 13 15 17 18 20 20 20 20 22 20 19 19 19 19 20 22 23 24 25 26 26 29 33 31 31 28 26 25 26 24 25 26 26 25 24 23
8 6 5 3 4 5 8 11 13 16 18 20 22 23 22 20 19 20 21 21 23 22 24 26 27 27 27 27 27 28 30 31 30 27 26 28 24 25 26 26 26 25 25
13 10 8 6 3 2 5 8 11 13 16 18 19 21 22 21 22 22 23 24 25 26 28 29 30 32 32 31 31 32 32 33 34 34 35 34 34 30 27 28 30 30 29
18 16 14 12 10 10 9 9 9 11 13 16 18 19 19 19 21 23 23 24 25 26 28 28 30 33 34 36 36 35 35 37 38 40 40 39 38 38 36 34 34 34 33
24 23 21 19 18 17 16 14 12 12 13 14 16 17 18 19 22 25 23 21 24 28 29 31 33 33 34 36 38 38 38 40 41 40 40 37 37 38 38 39 38 37 37
28 26 26 24 24 23 21 19 16 14 14 14 14 16 17 18 21 23 24 24 24 27 30 31 34 33 34 34 35 35 37 38 39 40 41 43 42 41 38 37 37 38 38

GFSGL_925_spd_096.txt.gz
Wind_Speed
27 23 20 19 16 14 14 12 10 8 8 9 10 8 10 13 12 11 10 9 9 8 6 5 8 6 7 6 7 7 6 6 4 6 9 13 15 17 17 15 11 11 13
22 22 20 17 18 16 15 14 14 13 11 11 10 10 9 8 9 10 11 11 10 9 9 9 7 6 6 6 8 9 9 8 7 10 13 15 17 17 16 14 15 16 17
10 16 13 12 13 15 16 17 17 16 14 13 13 13 12 9 11 12 13 12 12 13 11 10 10 8 8 7 8 9 9 9 9 11 14 17 19 18 19 18 18 19 20
8 8 12 7 5 6 8 10 12 13 12 13 15 14 14 13 12 12 16 15 14 14 14 13 12 11 12 12 11 11 12 12 12 14 15 18 18 20 20 18 24 26 26
16 10 15 17 15 8 3 1 2 4 6 9 13 15 15 15 16 15 14 15 16 15 16 15 14 14 14 13 14 15 16 17 17 17 15 17 20 19 19 19 22 25 28
14 11 11 10 11 13 15 14 10 6 6 6 5 8 13 15 17 17 16 16 15 16 17 17 15 13 14 15 16 17 16 18 19 18 18 17 22 22 22 23 22 18 12
13 12 9 7 7 7 8 8 10 11 11 13 13 12 10 8 14 16 17 16 17 17 16 16 16 16 16 17 18 17 16 17 18 20 22 23 22 25 26 27 22 22 19
18 16 13 10 7 4 3 3 6 6 8 11 12 11 11 11 8 5 11 11 13 12 11 12 13 15 15 15 17 19 20 20 20 20 22 24 25 27 26 24 25 26 28
19 19 17 14 12 8 5 1 1 4 3 5 10 10 15 17 17 13 10 7 5 4 4 5 8 8 10 11 11 13 17 18 17 18 20 23 24 24 23 24 24 15 18
16 15 13 13 12 12 9 9 9 8 6 9 16 16 13 15 16 18 16 13 15 14 11 13 14 13 15 15 15 14 16 19 21 24 25 25 25 25 24 22 23 16 17
13 12 12 12 14 14 14 16 15 17 23 19 17 15 15 14 10 12 13 17 15 13 14 13 14 15 16 15 15 15 17 17 19 21 24 23 22 21 21 23 23 24 18
10 10 10 11 12 12 13 16 15 16 18 16 14 14 14 12 12 14 15 14 12 13 14 16 16 16 16 16 16 15 16 18 16 17 19 20 19 18 18 19 20 22 25
10 12 12 12 11 11 11 12 13 13 14 13 12 11 9 13 14 13 12 11 11 13 15 14 14 16 17 18 18 18 18 19 19 15 16 18 19 20 22 21 21 21 23
12 14 13 12 11 12 12 11 12 12 11 11 11 11 10 13 16 17 17 16 15 14 15 16 17 18 18 19 21 21 20 19 18 15 17 18 19 19 20 20 19 21 19
14 13 13 13 12 13 13 13 13 14 12 11 12 10 11 14 17 15 17 18 17 17 17 16 18 19 20 20 20 20 20 22 22 22 20 21 21 20 22 21 19 22 19
14 13 13 14 14 13 13 15 15 13 11 13 12 12 10 10 9 11 11 9 11 13 13 16 16 17 15 18 18 21 19 21 20 20 19 21 23 21 26 25 22 21 18
12 12 13 14 15 15 15 15 16 11 14 14 12 13 14 13 13 14 14 13 13 13 16 15 16 16 16 16 18 16 19 19 21 25 23 23 24 27 26 25 25 25 24
13 13 13 15 16 16 16 15 14 14 13 14 14 16 16 16 16 17 18 16 17 18 14 13 14 15 15 17 19 20 22 26 25 24 24 24 24 24 24 22 23 21 23
16 17 16 16 15 15 14 14 14 14 14 14 14 16 19 19 19 21 21 18 15 14 14 14 14 15 16 17 19 21 22 25 27 25 23 23 22 23 24 23 24 25 25
17 16 15 15 14 12 12 13 13 14 14 15 15 15 16 17 16 16 15 12 12 12 13 14 15 16 18 18 20 22 24 25 24 25 26 27 27 28 27 26 24 25 25
17 16 14 14 13 11 10 10 11 12 13 13 13 13 13 12 12 12 13 12 12 12 12 13 14 16 16 18 20 22 23 24 25 27 30 32 27 24 24 25 26 27 28
18 17 16 14 12 10 8 7 6 6 7 9 10 12 13 11 11 11 12 12 12 13 13 14 15 16 17 18 20 22 24 25 25 25 28 30 28 29 31 32 33 32 30
20 19 17 15 12 9 7 4 1 2 4 7 9 11 12 11 10 11 12 13 13 14 14 15 16 17 18 19 20 22 24 26 27 29 31 33 34 35 35 34 32 32 33
24 22 20 17 15 12 9 6 5 5 6 7 9 11 12 14 11 12 14 16 15 17 18 19 21 23 23 27 29 27 28 29 32 34 32 34 36 38 40 34 30 29 29
28 27 24 21 17 15 13 12 11 10 10 10 10 11 12 14 15 16 17 17 20 24 23 25 24 26 29 29 30 32 31 34 33 32 38 40 39 38 37 37 39 40 40
31 29 27 24 22 19 17 17 17 15 15 14 13 13 13 14 16 18 18 19 23 25 26 25 26 27 29 31 31 32 34 35 34 35 40 42 41 40 36 35 36 36 37

GFSGL_925_spd_099.txt.gz
Wind_Speed
20 21 20 17 15 14 11 8 6 4 3 4 5 6 6 9 10 10 9 9 9 9 8 6 6 7 6 7 6 7 6 5 9 11 10 11 13 13 15 15 13 13 15
17 23 22 19 17 14 14 12 9 7 7 6 5 6 7 6 7 9 9 8 10 9 9 9 8 6 7 7 7 8 8 7 8 11 11 11 11 12 14 14 12 14 14
11 15 19 17 16 14 14 13 13 11 10 8 9 7 7 7 7 10 9 10 9 9 10 9 8 9 8 7 7 8 9 7 8 10 13 12 12 11 13 12 13 14 14
8 4 10 16 16 13 14 15 13 11 10 8 8 8 7 8 8 8 9 10 11 11 10 11 10 11 10 9 10 10 10 12 11 12 15 14 13 12 11 11 15 16 18
2 1 3 6 11 10 9 9 9 8 7 6 6 7 8 8 7 8 10 10 9 10 10 10 12 12 12 12 12 11 11 12 13 14 15 15 15 14 14 14 15 19 18
19 18 16 12 13 11 10 12 11 10 8 5 4 2 3 4 10 13 13 12 10 11 11 10 9 11 9 12 12 12 12 14 14 14 15 15 16 15 15 16 18 19 19
21 20 19 17 14 14 12 12 14 12 12 10 10 9 5 1 8 11 12 13 13 10 9 9 8 5 11 10 12 15 16 16 15 14 15 17 18 17 17 19 18 18 21
20 17 14 15 13 12 9 6 6 8 9 10 10 10 10 11 3 1 3 2 1 4 4 5 4 4 9 12 12 11 11 11 11 12 13 16 16 16 16 18 19 20 21
18 16 12 10 10 8 7 6 5 5 6 10 14 13 15 15 11 9 8 8 10 10 8 8 8 10 12 11 11 11 11 11 12 16 18 19 21 22 21 19 19 19 22
15 15 13 11 9 9 7 8 6 10 17 17 18 17 16 17 16 16 12 12 11 11 9 10 11 11 12 12 11 9 10 12 15 17 17 16 16 15 15 16 17 19 20
12 13 13 12 12 10 10 10 13 19 19 18 19 19 17 14 12 12 10 13 9 6 7 5 6 6 11 12 12 10 11 16 15 13 13 15 15 14 12 11 13 16 18
9 12 12 12 10 12 15 16 20 19 18 14 13 15 15 12 13 12 13 11 9 7 6 8 9 11 11 11 11 12 13 12 10 12 13 13 13 15 16 17 16 17 19
9 10 10 11 12 12 12 12 12 11 10 10 9 8 7 7 8 8 7 5 3 5 6 7 9 11 11 9 12 13 12 12 12 11 12 13 15 15 18 17 17 16 17
9 9 9 9 10 9 9 9 9 8 6 6 6 6 6 7 9 10 10 9 7 6 7 8 10 10 10 9 10 11 11 13 13 12 14 15 16 16 14 15 19 23 19
9 8 8 9 9 11 11 9 10 10 6 6 7 6 5 7 8 9 9 8 9 8 6 7 8 9 9 10 11 12 12 13 13 15 15 17 17 17 18 18 18 20 18
10 8 7 8 9 10 12 15 15 14 11 12 10 8 7 6 4 4 4 5 6 8 8 10 10 10 11 12 13 14 13 15 16 18 18 18 18 20 20 22 19 19 20
8 8 7 8 9 10 10 10 12 11 11 12 13 11 10 8 7 7 6 9 12 11 12 11 11 12 11 12 13 14 15 16 17 18 18 19 20 21 22 22 22 22 22
9 11 9 8 9 10 9 9 7 6 6 6 12 13 12 12 13 13 12 11 10 14 12 11 11 11 12 13 13 14 15 16 18 19 19 20 20 21 23 22 22 22 24
10 9 10 10 10 11 10 10 8 7 7 7 6 8 10 13 16 17 17 13 11 10 11 10 10 10 11 12 13 13 15 16 17 18 18 19 20 22 24 24 26 26 26
8 11 11 11 12 10 10 10 9 8 7 7 7 7 7 9 10 11 12 11 10 9 9 9 10 11 12 13 14 15 16 18 18 20 20 22 21 22 24 26 27 27 27
13 13 12 10 10 10 9 10 9 8 7 6 6 6 9 7 7 8 8 8 8 8 8 9 10 10 11 12 14 15 16 17 18 19 21 22 24 26 26 28 30 30 30
16 15 14 13 11 10 9 8 8 7 7 6 4 3 9 6 6 6 6 6 7 7 7 8 9 10 11 12 13 15 16 17 18 20 21 22 24 25 27 29 31 33 32
17 16 16 14 13 12 10 8 7 5 4 3 4 3 3 2 2 3 3 4 4 5 6 7 8 9 11 11 12 13 15 16 17 19 23 25 25 24 27 30 31 32 32
20 19 18 17 15 14 12 11 9 8 6 5 4 3 2 1 1 1 3 4 4 5 6 7 9 11 12 13 13 14 14 15 20 21 22 26 28 28 28 30 31 33 35
22 21 20 19 18 18 14 13 11 10 10 8 7 5 5 4 3 3 4 4 5 7 7 9 9 11 13 17 17 17 19 27 26 27 28 27 27 31 32 32 32 33 34
24 24 24 22 20 18 16 15 15 13 12 10 10 8 8 7 6 6 6 6 6 8 9 10 11 14 16 17 17 23 27 28 32 31 30 32 33 35 32 33 35 36 37

GFSGL_925_spd_102.txt.gz
Wind_Speed
14 15 15 13 11 10 10 10 6 6 6 6 8 8 6 8 10 9 7 6 8 7 6 6 7 7 8 9 9 10 11 11 12 15 15 14 14 15 16 14 14 14 12
13 14 14 16 12 12 11 12 9 8 7 5 6 7 4 5 6 9 7 7 8 7 7 7 7 7 7 8 9 9 11 10 12 13 14 15 12 13 13 14 13 14 14
10 14 13 17 17 14 13 13 11 11 9 8 7 5 6 5 6 7 8 8 7 8 7 7 8 8 8 10 8 9 10 10 10 12 14 15 13 13 13 14 13 13 15
8 8 9 13 17 16 14 13 13 12 12 11 10 9 8 7 7 7 8 8 8 8 8 8 8 9 9 9 11 10 11 11 13 14 15 16 15 12 12 15 15 16 17
10 10 8 6 7 10 11 12 12 12 13 13 11 10 9 8 9 8 8 8 7 8 8 9 10 9 10 11 11 11 11 12 14 15 15 16 15 14 17 17 18 18 20
11 10 11 8 4 6 7 8 8 8 8 8 7 6 5 6 13 15 13 10 9 7 7 6 7 7 6 6 7 9 11 12 14 15 18 17 16 14 16 18 20 21 20
14 14 17 15 14 14 11 8 7 7 7 6 5 5 2 2 7 11 13 11 9 8 6 6 5 3 4 7 9 11 11 12 14 13 17 19 19 17 18 18 18 20 23
17 19 15 15 17 14 12 12 9 8 7 7 7 8 7 5 3 2 4 6 8 8 4 5 4 2 5 6 7 9 10 10 10 8 13 16 16 16 16 19 21 23 23
20 16 13 15 15 15 14 10 8 7 6 9 7 7 8 9 6 8 8 6 7 8 7 6 6 5 6 6 5 6 9 9 10 12 16 18 17 16 14 14 16 17 21
13 13 13 9 8 9 8 9 10 8 14 15 10 9 11 12 10 9 10 7 8 8 7 5 8 7 6 7 6 7 6 9 14 14 12 11 12 12 12 9 12 16 18
14 11 10 10 7 7 7 7 9 14 16 12 12 11 9 9 7 8 9 8 6 5 5 3 3 4 5 7 6 6 7 12 11 12 12 11 9 10 10 11 13 14 18
11 11 10 9 8 8 10 10 12 16 14 12 11 9 6 8 8 9 8 9 7 7 5 2 2 4 6 7 7 8 7 8 10 11 12 11 12 12 14 15 14 15 15
9 9 9 9 9 9 10 11 11 9 10 10 8 7 4 2 3 3 3 2 0 2 1 4 5 8 8 6 10 10 8 8 9 10 11 12 14 15 16 14 15 17 17
8 8 8 8 9 8 7 6 6 6 6 7 6 5 3 3 4 5 4 5 5 5 5 6 6 6 4 5 7 8 9 10 9 10 11 14 15 14 15 16 18 19 20
6 6 7 8 8 9 9 7 5 4 4 4 3 2 1 1 3 5 5 4 4 3 5 3 5 5 6 7 9 10 11 12 11 12 13 13 15 17 16 17 20 20 19
3 3 3 6 7 8 10 11 11 10 6 6 8 7 5 2 2 2 3 3 4 6 5 5 6 7 8 9 10 11 11 12 14 15 14 15 17 17 18 20 18 19 20
0 1 2 3 5 7 8 8 9 8 8 7 8 7 7 4 3 2 4 12 7 6 5 5 5 6 7 9 10 11 11 12 13 14 15 16 17 18 19 20 19 19 21
3 5 4 5 6 7 7 7 9 9 8 6 8 8 8 9 7 7 7 5 4 7 7 7 7 8 9 10 11 11 12 13 14 15 15 16 17 18 20 21 22 23 25
4 5 5 5 6 7 8 8 7 7 7 8 7 5 4 11 12 12 10 6 5 6 6 7 7 7 8 8 9 10 12 13 14 16 16 17 18 19 20 20 23 25 26
6 7 9 9 9 9 8 8 8 7 7 7 5 3 3 3 3 3 4 5 6 6 6 6 7 7 8 8 10 11 12 14 15 16 17 18 19 20 21 23 24 25 26
13 12 12 10 10 9 9 8 8 7 6 6 6 3 7 3 3 3 4 4 5 5 4 4 4 4 6 7 8 10 11 12 13 15 17 19 20 21 22 22 23 24 26
13 13 14 12 12 11 9 7 7 7 6 7 7 5 8 4 4 3 4 4 4 4 4 4 5 5 6 6 8 9 10 12 13 15 17 19 20 22 23 24 25 25 27
15 15 15 14 11 9 10 10 8 8 7 6 5 6 5 4 3 2 2 2 1 1 1 2 3 5 6 7 8 8 10 11 13 15 20 21 22 23 25 26 26 26 27
17 17 17 16 15 15 14 13 11 9 7 7 6 5 5 4 3 2 1 1 1 2 3 4 4 5 6 7 8 9 9 10 13 17 18 22 24 24 25 26 27 28 29
20 19 20 20 19 19 16 16 14 13 11 9 8 8 7 6 5 5 4 4 3 4 5 6 6 7 8 8 9 10 11 16 14 18 19 21 24 25 26 26 28 29 30
28 25 24 22 22 21 21 18 17 15 14 13 11 11 10 9 9 8 7 6 6 6 8 7 8 9 10 9 9 13 15 15 17 20 24 24 21 23 25 28 31 31 32

GFSGL_925_spd_105.txt.gz
Wind_Speed
17 16 14 13 11 9 8 8 5 3 4 1 4 6 6 8 8 8 10 3 6 7 8 5 6 7 8 12 14 11 9 11 13 12 16 16 18 9 12 12 16 18 12
21 16 15 12 10 12 10 8 7 4 4 5 5 6 7 7 8 9 10 8 8 8 8 7 7 8 4 7 9 8 8 12 10 10 13 14 15 7 7 10 13 13 14
12 14 13 16 17 13 12 11 11 9 8 8 8 7 8 8 7 7 9 8 8 8 7 8 7 7 7 8 8 11 12 10 9 13 15 13 15 17 8 13 13 10 16
6 7 11 13 16 16 13 12 11 11 11 10 10 9 9 10 9 9 9 9 9 9 9 9 8 9 8 8 9 8 10 11 13 14 17 19 16 14 11 16 18 15 16
17 11 12 11 13 13 10 11 12 13 13 13 12 11 9 10 10 11 11 11 10 11 10 8 12 10 8 8 9 9 9 11 13 16 16 18 16 18 16 15 19 19 21
20 15 15 14 9 11 11 11 12 12 13 13 13 12 11 9 8 13 14 10 9 9 10 9 8 4 6 6 10 12 12 10 12 13 15 17 17 16 18 18 19 20 19
17 15 13 12 11 8 6 8 8 7 8 8 7 5 3 4 12 14 16 15 11 9 9 7 9 3 0 6 10 12 11 12 12 13 14 16 17 14 14 17 19 20 22
16 15 13 12 11 10 14 12 9 10 5 6 7 6 4 3 1 4 7 6 9 4 5 3 1 2 6 5 5 7 7 8 9 8 10 13 15 18 18 18 20 22 22
14 14 12 10 11 13 11 9 9 9 6 7 9 6 4 3 1 2 5 5 5 5 5 6 5 3 5 6 6 6 8 6 8 11 14 11 10 10 8 8 12 16 15
16 14 12 9 11 11 12 10 6 6 9 14 9 4 4 4 4 3 3 3 5 5 6 7 5 5 6 7 7 8 8 11 14 12 9 10 9 9 10 6 14 13 17
13 13 13 11 9 8 7 5 10 11 16 14 8 6 5 5 4 5 4 5 6 2 4 5 5 5 7 8 8 9 10 13 14 16 11 8 9 11 14 15 15 12 15
15 13 12 10 7 7 8 7 8 12 10 10 9 7 6 5 5 6 8 7 5 4 4 2 2 4 6 7 10 12 8 11 12 11 10 9 11 12 13 14 14 15 15
12 10 10 9 8 7 8 9 9 9 9 9 9 8 7 4 2 2 3 1 1 3 2 5 6 6 6 7 7 9 11 9 9 15 14 12 12 13 13 14 15 18 16
8 7 7 7 7 6 7 8 8 7 7 7 6 5 5 3 2 4 4 4 3 2 2 4 3 4 4 5 5 8 10 10 10 10 11 12 13 13 13 16 18 18 19
6 5 4 6 5 5 9 7 6 3 4 7 3 0 2 6 3 1 1 1 1 1 3 2 5 7 7 8 9 11 10 10 11 12 12 13 14 15 16 16 17 18 17
6 6 5 7 7 6 5 4 3 3 2 1 4 4 3 3 3 2 4 4 5 4 3 4 5 5 5 6 7 7 8 11 11 12 12 13 14 15 17 17 17 17 18
5 5 3 2 5 6 6 5 4 4 5 3 4 4 4 2 2 6 9 9 8 5 4 5 5 5 4 5 6 7 8 9 10 11 12 13 14 14 16 16 18 18 20
2 4 3 3 4 5 5 6 5 5 4 3 2 4 2 3 4 7 7 5 3 4 5 5 5 5 5 5 6 7 8 10 11 12 12 14 15 17 18 18 19 20 20
0 1 2 3 2 2 5 5 6 5 4 8 4 3 5 7 7 6 3 2 3 4 5 5 5 4 5 5 6 7 8 9 10 11 13 14 16 17 18 19 20 21 23
3 4 5 5 3 5 4 5 5 5 6 6 6 4 6 4 5 4 2 2 3 4 4 4 4 4 4 5 6 7 8 9 10 11 11 13 14 16 18 21 22 24 24
7 6 8 6 6 7 6 7 8 8 8 8 9 5 6 4 4 4 4 4 3 3 3 3 3 3 4 5 6 7 8 9 10 11 13 14 15 17 18 18 20 21 24
9 9 8 10 9 9 9 10 8 8 9 8 7 3 9 6 7 5 4 4 4 3 3 3 2 3 3 4 6 6 7 8 9 10 12 14 16 17 18 19 21 23 23
14 13 13 13 13 12 11 12 12 13 11 10 9 10 9 11 8 6 5 4 4 3 2 2 1 1 1 2 3 4 6 6 7 10 13 15 17 18 19 20 21 23 24
15 15 15 14 14 14 15 15 16 13 11 11 11 10 9 7 8 7 5 4 4 4 3 2 2 1 1 3 3 4 5 4 7 10 11 14 16 18 20 20 21 22 24
17 17 18 18 18 18 18 18 18 17 16 15 14 12 11 10 9 8 9 8 6 6 4 4 4 4 5 5 5 5 9 13 13 10 12 15 18 19 19 20 22 23 25
21 20 21 19 17 17 19 21 21 19 19 17 16 14 13 12 11 10 10 9 7 6 7 7 6 7 7 7 7 8 12 12 11 12 16 16 15 17 18 20 23 23 25

GFSGL_925_spd_108.txt.gz
Wind_Speed
23 24 22 19 17 11 8 8 7 8 3 2 3 5 4 5 8 8 10 5 5 5 5 8 7 8 10 14 16 17 16 17 10 19 18 18 18 16 11 14 14 19 10
23 22 19 19 18 18 13 7 6 7 5 6 5 6 7 8 9 8 8 7 10 7 6 7 7 9 6 8 12 14 17 14 12 14 17 19 20 23 10 16 15 13 17
16 19 16 15 17 12 18 13 13 9 6 7 9 8 9 9 9 7 8 7 6 7 8 6 8 7 8 9 10 13 13 16 14 15 18 21 24 14 20 14 15 19 15
29 24 23 16 14 15 11 13 15 16 14 12 10 10 9 9 8 9 8 9 8 6 7 7 8 9 8 9 8 10 11 14 14 18 18 18 18 15 10 17 20 19 24
25 26 21 13 13 11 12 13 12 10 13 12 10 9 9 7 11 11 11 9 9 10 10 8 7 10 9 10 9 10 12 12 14 16 17 20 18 22 20 21 21 23 22
10 10 12 12 16 12 10 10 10 9 8 8 10 10 7 8 9 7 10 9 7 9 10 10 9 4 3 4 5 7 10 14 14 13 15 16 18 20 19 18 18 17 11
12 12 12 13 15 14 11 9 8 7 8 6 5 4 7 8 9 9 11 12 11 7 8 8 6 3 4 2 4 8 11 10 11 14 16 15 15 15 19 22 19 18 18
15 13 11 11 10 6 6 4 7 9 7 6 10 9 1 3 5 8 7 7 6 4 1 2 4 1 4 5 5 8 7 8 7 8 12 17 19 14 10 10 16 17 14
14 13 10 8 7 6 6 6 6 10 8 11 9 6 1 5 5 3 0 4 6 6 4 7 2 4 7 7 8 6 6 8 10 8 11 8 10 11 12 11 15 17 14
8 12 12 12 10 8 8 8 7 10 15 12 8 2 2 1 1 3 3 8 6 8 10 7 7 8 8 8 7 8 9 11 15 12 14 15 10 12 17 14 13 14 14
15 15 13 10 9 8 6 6 5 9 12 11 6 2 2 2 4 0 4 9 11 12 12 9 7 7 7 8 9 9 10 13 14 16 19 13 15 16 16 16 14 15 15
14 12 14 12 13 11 10 10 11 13 12 9 7 6 3 4 3 4 2 3 6 9 7 3 4 5 6 7 10 9 9 10 14 14 17 20 20 19 18 15 16 17 13
18 17 14 14 14 11 10 8 9 12 10 10 11 10 7 2 3 5 4 4 4 4 2 4 5 5 6 8 8 13 11 11 15 16 17 19 18 18 17 18 14 17 17
15 14 14 11 14 10 12 6 9 5 5 8 12 12 10 6 3 0 2 5 5 3 1 2 4 5 3 7 11 10 11 11 14 15 16 15 16 18 19 19 22 21 18
9 9 11 10 8 10 14 12 8 8 8 7 11 9 10 10 5 3 3 3 3 2 3 4 3 3 4 5 6 7 8 9 10 11 10 13 14 16 17 19 20 21 20
4 1 5 8 7 7 6 6 7 6 4 4 5 3 3 2 3 4 3 1 4 5 4 6 6 4 7 5 7 7 11 11 10 10 11 13 13 15 16 16 18 17 18
6 6 3 6 9 9 7 4 1 3 3 2 3 5 5 4 4 4 5 5 6 5 2 7 8 6 6 7 8 7 8 10 10 10 10 12 12 13 14 16 17 18 19
4 3 3 5 4 2 7 7 7 5 5 2 1 3 4 4 6 9 8 9 5 2 7 8 7 6 6 7 7 7 8 9 9 10 12 13 15 16 16 16 16 18 19
0 3 2 2 2 2 2 5 6 7 7 11 4 3 4 4 7 8 3 4 4 9 8 7 6 6 6 6 5 5 6 7 8 9 11 12 13 14 14 15 15 17 18
5 6 5 1 2 2 4 5 5 5 3 8 8 11 7 6 4 5 3 2 4 9 6 6 5 5 5 4 4 4 5 6 7 8 9 11 12 13 13 14 15 17 18
8 7 7 6 4 3 7 6 7 7 6 5 3 10 11 8 11 9 9 4 2 7 7 6 6 5 5 4 4 3 4 5 6 6 7 8 10 12 14 14 15 16 17
11 9 6 9 7 8 9 8 8 10 8 10 9 5 6 13 6 5 6 6 4 3 6 6 6 5 4 4 3 3 4 4 5 5 7 8 10 11 13 15 15 16 18
14 11 10 9 12 12 14 14 13 13 15 13 12 10 7 13 9 7 8 8 8 6 5 4 5 5 4 3 2 3 3 3 3 6 7 8 9 10 11 14 15 15 17
16 18 18 17 17 15 15 14 14 14 15 11 11 15 14 13 12 10 9 10 9 8 7 6 5 4 3 2 1 1 3 4 8 5 6 7 7 10 11 12 15 18 20
19 18 16 15 14 15 15 14 14 15 15 13 10 12 13 12 10 12 13 10 10 10 9 8 6 5 5 4 4 5 7 6 10 8 5 8 10 11 11 14 16 19 22
18 17 13 15 13 14 15 16 16 16 18 18 19 17 16 17 15 14 14 14 14 12 11 10 9 9 7 7 6 9 11 11 10 11 12 13 10 10 12 18 19 21 23

GFSGL_925_spd_111.txt.gz
Wind_Speed
27 25 22 20 16 14 11 9 8 14 10 15 12 9 11 8 9 8 6 7 4 5 3 1 3 5 8 7 10 11 16 11 6 9 11 16 19 20 16 10 18 22 19
27 29 26 22 20 20 19 15 14 18 11 14 17 13 11 9 8 8 6 5 7 8 7 3 4 3 5 6 8 10 9 9 10 12 17 22 17 12 15 9 19 22 18
31 31 29 30 26 25 23 21 19 18 14 12 10 10 11 10 9 9 6 6 7 5 9 7 6 4 5 5 5 7 9 9 12 10 14 16 10 17 19 18 20 22 21
33 30 31 28 27 25 25 22 22 23 16 12 12 11 11 9 9 9 7 5 7 7 4 3 6 7 5 4 5 4 6 8 9 12 15 16 11 13 15 21 24 24 26
28 28 29 29 16 11 14 17 18 21 19 13 11 10 8 9 10 8 11 8 8 8 7 6 6 7 3 3 5 6 8 8 8 9 10 14 15 21 18 18 22 23 24
20 24 19 21 23 17 16 9 14 11 13 12 11 8 7 5 6 4 5 10 8 8 7 5 5 2 3 2 0 5 8 9 9 7 6 10 13 13 20 22 18 17 8
19 21 18 15 15 15 16 17 15 17 12 12 10 9 9 7 9 8 6 9 7 5 6 5 4 3 4 2 4 5 7 7 7 7 8 10 13 17 13 13 17 17 14
21 17 17 17 15 11 10 10 13 15 18 19 14 7 4 2 6 6 6 5 7 5 4 4 4 1 2 2 3 4 6 7 9 7 7 11 12 14 11 11 13 14 11
22 20 15 12 10 9 8 7 7 11 15 14 11 10 5 1 2 2 3 7 8 7 6 6 4 5 7 5 3 4 4 6 8 10 13 8 6 13 12 11 19 20 12
16 15 12 11 12 10 10 10 12 15 17 15 13 8 5 2 2 4 4 9 13 13 11 10 8 9 9 8 8 9 9 12 15 14 24 21 20 19 18 16 17 19 17
16 17 18 16 14 13 12 12 13 16 15 12 9 6 4 5 6 7 11 12 12 13 12 11 8 7 8 9 10 9 8 9 13 15 15 16 19 21 20 18 18 21 20
18 18 16 16 15 13 13 12 12 13 13 11 10 10 7 7 8 8 9 12 13 16 11 8 6 6 6 6 7 7 8 10 10 14 17 20 21 19 16 16 15 17 19
22 19 15 15 15 13 12 11 11 10 10 10 12 10 10 8 7 9 9 9 8 7 7 6 5 4 6 5 5 5 4 7 10 13 17 17 16 16 14 14 11 10 13
19 19 19 18 16 14 14 12 13 11 7 5 8 8 10 8 6 5 5 5 4 4 5 7 6 6 6 8 6 6 8 9 10 13 15 14 13 17 20 21 21 19 16
13 14 13 13 14 16 16 13 11 13 9 8 7 16 15 9 3 3 2 1 3 1 7 8 5 4 6 6 9 10 10 13 16 16 16 17 18 19 21 19 20 21 22
10 8 8 8 9 9 9 9 6 8 8 10 9 7 7 5 1 3 3 2 1 4 7 8 8 10 8 9 11 14 13 14 13 13 14 15 17 18 18 19 19 20 21
8 7 5 5 12 10 8 9 9 6 5 2 1 4 5 5 4 4 2 2 4 5 3 13 11 11 14 16 16 15 14 10 11 13 13 13 12 14 17 18 19 19 20
2 2 4 5 8 11 10 9 8 5 7 6 4 2 2 1 1 2 3 5 5 1 6 15 14 12 11 11 12 12 11 10 12 12 13 12 13 15 16 17 18 19 19
2 2 4 5 3 4 4 5 6 10 11 8 5 4 1 3 4 3 2 2 4 2 15 14 13 12 9 8 9 8 9 12 11 9 9 9 11 12 13 14 15 16 16
3 2 2 2 2 4 3 4 6 6 14 11 8 9 7 7 7 5 1 5 4 12 14 13 11 10 8 7 6 7 8 7 7 6 6 8 9 10 11 12 12 14 15
5 5 7 7 3 4 5 3 7 5 3 10 9 13 9 6 4 8 8 5 7 9 11 10 9 6 6 6 7 6 6 6 4 4 5 6 7 7 7 7 9 11 13
9 8 8 8 10 6 7 7 4 4 5 3 15 14 10 6 7 5 14 12 8 9 8 8 7 9 9 6 8 7 6 4 0 1 3 3 4 5 7 8 10 12 14
12 12 13 10 7 10 9 9 9 9 10 13 8 9 6 7 10 7 11 11 10 9 7 8 7 9 8 6 4 5 5 4 1 4 2 3 4 6 8 9 11 14 16
16 15 17 19 15 11 12 13 14 14 12 12 13 19 15 7 11 11 13 12 11 10 10 11 8 10 10 7 4 7 7 4 5 6 5 4 6 6 6 9 11 12 15
21 19 16 19 25 21 17 16 18 18 15 15 15 12 16 12 12 12 15 14 13 14 12 10 11 10 9 8 8 8 7 6 6 6 7 7 8 8 5 7 11 14 16
21 24 21 15 11 15 23 22 20 18 18 19 19 19 16 19 18 19 17 18 16 15 15 14 14 14 13 11 10 10 8 7 7 7 9 9 9 7 6 9 13 16 18

GFSGL_925_spd_114.txt.gz
Wind_Speed
29 27 25 22 20 18 16 14 13 12 15 14 12 11 9 8 12 10 10 8 5 7 5 4 3 1 1 2 3 2 4 5 1 1 5 12 9 14 13 15 14 17 15
34 32 28 26 25 23 19 16 13 11 11 10 14 12 11 9 11 13 12 10 10 9 8 7 6 4 3 3 2 2 3 3 2 4 4 9 9 14 15 15 16 16 15
33 33 31 29 28 26 25 22 17 13 13 9 10 13 13 13 13 11 10 9 10 7 9 12 10 6 5 4 2 2 1 3 4 5 6 7 7 13 15 14 15 16 16
28 28 31 31 29 28 25 25 23 19 17 13 11 11 11 12 11 12 13 5 9 8 4 1 6 7 7 6 4 3 4 6 5 6 6 6 7 12 10 17 20 16 12
24 20 28 32 29 29 25 23 21 26 22 18 13 13 10 10 13 13 10 8 8 6 4 5 4 6 6 6 6 3 3 2 3 5 6 5 6 10 15 14 13 13 7
25 20 19 29 25 23 20 15 19 16 22 19 14 12 11 9 9 7 8 9 10 8 6 5 2 3 5 6 4 2 3 2 2 1 2 6 6 9 8 10 14 10 6
29 16 20 17 20 12 21 19 25 17 16 13 11 9 9 10 11 10 8 7 9 8 8 7 6 4 3 4 5 6 5 5 2 1 2 3 5 5 6 9 9 9 5
27 26 20 19 16 12 11 15 17 19 20 18 11 11 9 6 4 4 6 8 9 10 9 9 7 5 5 8 10 8 7 4 3 2 4 5 5 4 1 5 7 7 5
24 22 18 19 20 15 13 12 14 17 17 18 12 10 11 7 3 1 2 7 11 11 10 8 6 7 7 7 6 7 7 9 15 19 23 21 17 15 11 5 10 9 6
22 20 19 19 14 13 13 11 11 13 15 16 16 13 8 3 3 1 5 11 13 13 11 9 9 9 8 7 6 8 11 13 16 17 18 19 19 18 17 14 10 13 8
14 15 17 17 16 14 13 11 13 15 16 16 14 10 6 5 4 2 6 12 14 15 13 11 9 7 6 6 6 6 11 13 13 12 15 17 17 17 19 18 16 15 16
14 15 22 21 16 15 13 13 16 18 16 13 11 11 9 8 8 7 5 9 12 12 12 9 8 6 6 6 9 11 11 9 8 10 11 14 14 15 16 17 17 19 20
19 18 19 19 18 16 16 14 13 14 14 12 10 10 11 10 8 8 9 9 10 9 8 5 4 4 6 7 8 8 7 5 7 10 14 14 14 13 10 12 12 12 17
22 21 19 17 15 15 14 13 13 10 9 12 11 11 11 10 8 7 5 5 7 6 7 7 8 7 5 7 6 6 7 9 11 15 15 14 14 14 14 12 12 6 15
19 17 19 18 16 14 13 13 9 8 6 6 11 14 15 10 7 7 5 4 4 5 9 9 8 8 9 9 10 11 12 12 15 15 14 14 15 15 17 15 17 18 21
15 13 10 13 12 11 10 12 9 9 8 7 5 12 12 7 5 3 3 3 4 6 11 11 11 9 11 13 13 14 13 13 14 13 13 14 15 15 16 17 17 20 20
8 8 6 6 8 8 6 5 7 5 7 7 5 3 5 6 5 5 4 3 3 5 9 10 13 11 13 15 14 13 14 13 10 11 11 11 12 13 14 16 15 16 16
6 8 8 5 6 3 3 3 4 4 4 5 6 5 3 3 4 4 4 5 7 5 6 15 18 18 17 16 14 14 13 11 9 9 10 10 11 12 14 14 15 15 14
5 6 8 7 5 5 1 3 7 6 5 4 3 1 2 3 3 3 5 4 2 8 18 18 18 16 14 12 12 12 11 10 8 7 9 9 10 9 11 11 12 12 13
1 2 2 2 3 2 2 2 4 2 8 7 4 5 4 4 4 4 3 3 5 15 19 19 16 13 10 9 10 12 12 10 6 6 7 7 8 7 9 9 12 13 15
5 4 3 4 3 3 5 4 2 0 0 9 10 7 4 4 4 1 2 4 11 16 16 14 12 9 6 8 10 11 8 6 5 5 5 6 4 5 6 7 8 10 11
9 8 7 4 4 6 6 5 5 3 0 1 6 12 11 7 4 4 6 10 13 12 11 10 9 6 6 5 8 8 8 5 3 3 3 3 2 4 5 6 7 8 10
13 12 11 10 7 6 9 9 8 8 7 5 5 12 14 12 10 8 12 15 14 12 8 7 9 12 9 6 7 7 5 2 2 2 1 0 1 1 3 4 5 7 8
14 15 15 15 15 14 11 11 10 9 10 12 10 11 15 18 12 10 12 16 15 12 10 9 10 10 10 8 6 6 6 4 1 2 0 1 1 2 2 1 3 6 9
18 17 16 16 14 19 23 19 17 17 16 14 14 15 14 13 14 13 13 18 18 15 14 13 13 13 13 10 8 8 8 5 3 1 1 2 2 3 2 3 3 6 8
18 19 21 21 19 17 19 24 25 22 20 21 19 17 16 16 19 18 18 20 21 19 18 17 14 13 14 12 9 9 9 9 8 5 3 3 4 4 4 4 4 7 11

GFSGL_925_spd_117.txt.gz
Wind_Speed
33 30 28 27 23 18 18 18 14 13 14 14 12 13 14 13 11 11 11 10 9 7 8 7 7 6 6 4 2 3 1 2 4 2 2 6 6 10 10 10 10 11 10
35 31 30 26 24 21 19 16 15 13 12 14 15 14 14 11 10 13 11 11 11 11 9 8 8 6 6 6 4 3 2 1 2 3 4 4 4 10 11 11 13 13 9
34 32 29 26 26 25 22 19 18 14 12 11 12 15 14 11 11 10 11 11 11 11 11 13 13 10 9 7 5 4 2 1 1 2 3 3 5 11 11 12 13 11 15
35 32 31 30 28 27 25 23 21 19 15 15 11 10 12 12 12 11 11 9 5 11 10 9 9 11 12 10 8 7 5 5 4 3 3 3 4 6 9 12 12 9 16
36 34 35 32 31 26 26 25 24 22 19 16 13 12 12 11 11 11 12 14 13 15 12 10 9 7 10 9 9 8 7 5 3 2 2 2 2 5 8 8 8 6 8
35 36 32 30 30 25 25 26 23 22 15 16 14 12 11 9 8 10 10 11 15 15 13 11 10 8 7 7 8 7 6 5 4 4 2 1 1 3 5 7 8 8 4
25 27 28 28 27 21 20 19 25 17 15 20 16 15 13 11 9 8 8 7 9 13 13 12 10 7 6 7 9 6 4 3 3 3 3 3 3 1 1 3 4 5 7
16 19 20 22 21 18 18 14 17 18 23 24 20 11 11 8 6 6 6 8 8 9 10 11 9 8 7 9 9 7 4 3 4 4 5 6 7 7 6 2 1 3 5
16 19 20 18 16 20 21 16 9 18 22 19 21 20 14 10 9 4 2 6 8 7 5 4 5 5 7 10 10 8 5 4 3 6 8 9 8 7 6 4 1 2 2
15 19 18 18 17 17 13 10 14 17 15 18 18 14 12 11 9 6 7 12 13 12 7 4 6 5 6 7 8 9 13 12 13 14 13 13 11 8 6 4 3 4 3
16 9 10 12 15 10 10 11 10 9 13 15 13 10 10 8 6 10 12 12 13 13 13 14 11 9 7 5 6 9 13 13 12 14 13 12 11 10 11 10 9 9 11
16 14 12 12 16 15 9 10 12 15 16 16 15 12 9 8 8 9 9 10 13 14 13 10 9 7 6 5 6 10 11 11 11 10 10 11 11 13 14 13 13 13 14
17 16 16 17 15 14 14 14 14 14 14 14 13 13 11 9 8 8 9 13 12 11 10 8 7 7 7 7 6 6 6 8 8 9 9 9 10 10 9 10 11 11 12
19 18 17 14 13 13 13 13 13 12 11 11 10 10 10 9 9 10 10 10 10 9 8 9 9 9 8 8 8 8 7 7 8 10 12 12 11 9 9 7 8 8 10
21 19 17 17 15 14 13 12 9 7 6 7 7 8 9 5 5 6 8 8 8 8 10 12 12 11 10 10 9 8 7 8 10 12 12 12 11 10 11 9 10 11 14
16 14 13 12 13 11 12 12 12 11 8 7 5 7 7 3 2 1 2 3 5 8 13 12 10 9 10 11 11 11 11 11 12 11 11 10 12 12 13 13 13 14 16
12 11 8 7 9 9 7 6 4 4 4 4 5 5 3 3 4 6 8 6 5 8 11 12 14 13 14 13 13 11 13 12 10 9 10 10 10 11 11 12 13 13 14
9 8 8 6 4 5 5 5 5 5 4 3 1 2 3 2 4 4 3 5 5 8 7 13 15 15 16 15 14 13 13 12 9 8 8 9 8 9 11 11 11 12 12
8 9 8 8 6 5 2 1 2 2 2 1 1 2 2 2 1 0 1 7 5 5 9 17 17 18 18 15 13 12 11 10 7 7 8 7 7 7 10 10 11 11 10
4 5 5 5 4 4 4 3 3 1 4 5 4 2 1 1 1 3 1 4 6 8 16 19 18 16 14 14 13 14 13 11 7 6 6 6 6 6 7 9 9 9 9
0 1 2 2 1 2 4 5 5 3 3 2 4 3 3 3 3 2 3 3 4 13 17 16 14 13 12 11 12 14 13 11 8 6 6 6 5 5 6 6 7 7 8
5 4 3 1 1 2 2 2 3 3 2 1 3 5 8 7 5 5 8 6 8 11 13 12 11 8 8 10 12 15 14 11 9 8 7 7 7 7 7 6 5 6 6
10 8 9 7 5 3 3 5 5 5 6 7 7 5 7 12 11 10 11 10 13 14 13 10 8 11 12 11 10 12 12 9 6 5 7 7 6 6 5 4 3 3 3
12 11 11 11 11 10 9 10 10 8 8 8 9 9 8 12 15 15 12 11 17 17 15 13 10 12 15 13 10 9 9 8 7 5 6 6 5 4 3 3 2 1 2
13 14 14 14 13 12 12 14 17 16 16 14 13 12 13 13 14 13 14 15 19 21 19 16 12 13 15 15 11 10 11 10 7 7 6 5 4 3 2 3 4 4 4
13 15 16 15 15 15 15 16 18 18 19 22 20 19 19 17 15 15 16 19 20 24 23 20 16 14 14 15 11 10 11 12 11 8 6 5 4 4 4 5 5 7 6

GFSGL_925_spd_120.txt.gz
Wind_Speed
35 32 29 26 23 20 18 17 15 13 13 14 15 16 16 16 14 13 12 11 10 9 9 10 9 8 8 8 7 6 5 4 3 4 4 2 4 6 9 11 11 10 11
37 34 31 27 25 23 21 17 17 16 12 12 16 15 13 15 15 16 14 13 12 11 10 11 9 9 9 8 7 7 6 6 6 6 4 3 3 7 9 11 10 10 11
36 35 33 29 27 26 23 19 17 16 13 11 12 15 16 15 15 14 15 14 13 13 11 11 10 9 10 11 10 8 7 6 5 4 4 3 3 6 8 9 12 17 17
37 35 34 32 30 28 25 23 21 18 16 13 13 12 13 15 15 14 15 13 13 12 11 9 8 9 13 11 10 9 7 7 7 5 3 2 3 4 6 7 8 15 16
37 36 37 35 31 28 26 26 23 22 20 17 13 13 11 13 14 16 13 12 14 13 12 10 9 8 9 10 10 9 8 6 4 4 3 1 1 3 4 5 5 7 16
26 32 33 34 31 29 27 26 24 23 20 19 18 14 13 11 12 13 11 13 17 16 13 12 12 10 9 8 8 8 7 7 6 4 4 2 3 2 1 3 4 4 2
19 19 22 29 30 28 27 27 26 24 21 19 16 13 16 12 10 7 7 10 9 14 15 15 12 10 9 8 9 9 8 7 6 5 6 6 5 4 2 1 3 5 5
9 8 7 11 19 29 28 24 20 20 15 14 12 14 18 14 8 5 7 9 9 9 11 15 13 11 10 10 9 7 6 6 6 7 8 8 8 7 5 2 3 6 4
4 11 13 14 16 18 20 23 16 15 11 11 18 19 22 20 17 11 6 5 6 8 7 10 10 9 9 11 10 8 5 2 1 4 5 3 2 3 6 6 5 7 3
7 2 13 12 16 18 16 16 13 11 7 9 16 17 19 17 15 12 12 7 8 7 7 6 6 5 4 6 11 9 9 6 7 9 8 7 6 6 4 4 4 4 4
3 4 10 15 11 12 14 10 8 8 10 12 13 13 11 10 10 13 13 12 15 14 11 8 6 6 5 5 7 8 9 10 11 9 9 8 8 8 8 6 5 6 7
3 6 7 7 12 14 11 7 6 7 10 10 10 12 7 4 5 9 11 11 12 12 11 9 8 5 4 3 4 5 8 9 9 8 7 7 8 9 9 10 9 10 11
6 7 6 9 12 11 11 15 11 11 14 14 10 9 7 5 6 5 7 9 10 10 9 6 7 7 6 6 7 7 8 7 3 4 5 6 6 8 8 9 9 10 10
12 10 10 11 13 10 11 13 13 10 11 11 10 10 8 7 7 7 8 8 8 7 8 8 7 7 7 7 7 6 5 5 7 7 7 7 7 7 6 6 6 7 10
22 21 20 18 18 17 16 14 12 7 6 9 7 8 8 7 7 6 4 4 4 5 7 9 10 10 9 8 8 6 6 6 7 8 8 9 8 7 6 6 6 6 7
19 19 19 19 18 18 19 17 15 13 9 5 8 7 10 7 8 6 4 2 3 5 7 7 6 7 8 7 8 7 7 7 9 9 10 9 9 9 8 8 9 10 10
13 13 15 16 15 15 13 12 11 9 8 9 9 7 4 5 2 1 1 4 4 5 8 10 9 9 10 11 10 10 10 9 8 8 8 7 8 9 8 7 8 8 9
12 11 9 9 9 10 10 9 10 10 8 7 6 4 3 1 1 3 4 3 2 4 6 10 11 12 13 12 11 11 14 12 9 7 7 7 6 6 7 7 6 7 5
10 10 11 11 10 8 8 5 6 6 5 5 5 5 4 4 3 2 1 2 3 4 6 7 11 14 15 13 11 10 10 10 10 10 9 8 8 7 7 7 8 8 6
6 6 6 6 6 6 5 5 6 5 3 2 2 4 4 4 4 5 6 7 7 8 6 8 13 14 16 13 11 12 12 11 10 9 9 10 9 8 8 8 6 6 5
2 3 3 2 2 3 4 4 4 3 4 4 3 2 2 1 2 2 4 6 7 6 7 12 15 14 13 12 13 15 15 13 11 10 9 9 10 10 9 7 7 5 4
4 3 2 1 1 2 2 2 1 1 1 0 2 2 4 5 3 2 4 7 6 5 9 12 13 12 12 13 15 16 16 13 11 10 10 10 9 8 9 10 7 7 5
9 8 6 5 4 3 3 3 2 2 3 4 4 5 5 6 8 8 7 9 7 9 12 13 12 11 12 12 11 13 15 14 11 11 11 11 10 10 10 9 8 6 4
13 12 10 9 9 8 8 7 6 6 6 7 7 6 7 7 9 9 12 12 9 10 16 17 14 11 10 12 12 11 12 11 11 11 11 11 12 10 10 9 8 6 5
12 13 12 11 10 9 9 9 9 9 11 13 13 12 11 10 11 12 13 13 13 13 19 19 17 14 13 14 14 13 13 12 11 10 11 10 10 9 8 8 7 6 5
11 12 12 12 11 11 11 11 11 11 12 10 11 14 17 16 16 16 15 14 16 17 20 22 20 17 14 13 14 13 12 14 13 11 10 10 9 8 7 6 7 7 6

GFSGL_925_spd_123.txt.gz
Wind_Speed
26 24 22 20 23 21 18 17 16 15 14 14 14 15 15 12 12 13 12 12 12 11 9 10 10 9 7 7 6 6 6 5 7 6 4 4 3 4 6 7 6 7 10
25 24 25 23 21 20 22 20 17 16 15 12 13 15 15 11 12 15 13 12 12 12 11 11 11 9 10 10 8 7 7 7 8 8 6 5 5 4 5 6 7 7 12
24 24 24 23 22 21 20 21 19 17 17 14 13 13 15 14 13 14 14 13 14 14 13 12 12 11 11 10 10 9 9 8 7 6 6 4 3 1 1 4 7 8 8
20 22 23 24 25 24 23 23 21 20 18 16 13 11 11 11 13 14 14 16 15 14 14 15 14 16 14 13 12 10 11 9 9 9 8 6 3 2 1 4 6 7 7
20 22 26 21 22 23 22 22 23 22 20 16 14 12 12 10 10 13 15 16 17 13 10 11 11 12 12 12 12 11 10 10 10 6 6 6 4 2 1 2 5 8 8
25 21 17 20 23 21 23 22 23 23 22 18 16 15 13 9 11 12 13 12 11 11 12 12 14 14 11 11 10 10 9 7 7 6 6 5 4 3 3 3 4 8 4
19 17 17 23 20 27 27 27 27 23 23 21 17 14 14 14 13 11 11 10 8 8 11 14 16 10 10 9 9 9 10 11 11 8 6 4 4 4 4 3 2 3 5
8 9 7 6 11 15 15 21 21 20 25 23 16 16 13 13 11 11 10 9 8 8 8 7 10 10 8 6 5 4 4 5 7 4 5 4 4 3 4 2 4 8 6
7 5 5 7 12 15 19 17 25 22 23 21 17 15 12 12 16 15 10 6 2 5 6 5 6 5 8 9 7 6 4 2 2 5 6 5 3 5 6 4 4 7 4
7 7 5 8 15 18 13 13 21 20 22 15 8 7 10 13 20 21 19 16 10 5 4 1 2 1 2 2 6 7 7 5 3 3 4 5 5 5 4 6 3 6 3
4 1 7 4 9 13 12 16 17 16 17 13 10 4 6 10 12 16 13 12 9 8 10 8 6 5 4 5 6 7 8 6 6 4 4 5 6 6 6 5 3 2 0
4 1 4 3 4 8 15 11 9 9 11 12 11 8 6 4 4 6 6 5 7 9 11 8 7 6 4 5 5 3 4 7 8 6 4 4 4 5 7 7 6 6 6
12 11 9 7 7 7 9 8 7 9 10 12 14 14 9 7 4 4 5 3 5 5 6 6 6 6 6 6 8 9 7 6 7 7 6 5 4 5 5 5 5 6 6
15 14 11 12 12 10 10 9 8 5 5 9 11 9 7 7 6 6 8 6 4 6 7 8 7 6 5 5 5 4 3 5 3 4 4 3 4 2 2 1 3 3 4
21 21 21 18 16 17 17 16 13 9 8 9 10 9 9 10 8 9 8 7 5 4 5 6 6 5 5 4 5 4 3 3 2 3 3 3 3 3 2 2 3 2 3
19 19 19 19 18 18 20 21 20 18 13 11 11 9 11 10 8 6 6 7 4 1 3 2 1 2 3 2 3 4 3 3 2 3 3 3 1 2 2 4 5 3 5
16 17 15 13 15 13 11 9 13 14 16 15 12 11 9 9 7 4 2 1 3 4 1 2 4 6 4 3 3 3 4 4 4 2 1 4 4 4 4 4 3 4 4
13 12 12 10 9 8 8 10 10 11 8 8 7 6 4 3 2 3 3 2 2 1 3 6 8 9 8 7 6 5 5 4 4 3 1 2 3 4 4 4 4 4 4
11 12 11 10 8 8 7 6 7 8 7 6 7 7 7 6 4 3 3 3 3 3 4 6 10 13 14 12 10 9 8 7 5 4 3 3 3 3 4 4 4 5 6
8 8 7 6 6 5 5 5 6 6 5 4 4 4 3 3 2 2 4 4 6 6 6 6 8 9 12 11 9 7 7 8 7 7 7 6 6 5 3 3 4 5 3
3 4 5 4 5 5 4 4 4 3 3 3 3 2 2 2 2 2 2 4 5 5 3 3 6 7 7 7 7 7 7 7 7 7 6 8 7 6 6 6 4 3 2
3 2 2 2 2 2 2 2 2 3 3 3 3 2 2 1 3 2 2 4 7 6 3 3 5 6 6 6 7 7 8 8 7 7 7 5 5 5 5 5 4 4 4
6 5 5 4 3 3 3 2 1 0 1 2 2 3 3 3 4 5 5 5 7 6 4 4 5 5 5 6 8 8 8 8 9 8 7 7 7 7 6 6 5 5 4
8 8 7 6 6 6 6 5 4 4 4 4 4 4 5 5 6 6 7 8 8 7 7 9 10 9 7 6 6 7 8 7 7 8 8 8 7 7 6 5 5 5 4
9 8 8 8 8 7 6 7 7 6 5 6 7 9 9 8 8 8 8 9 9 9 9 11 13 12 11 10 8 9 10 11 8 9 7 7 7 7 6 6 6 6 6
8 8 8 8 8 8 8 7 6 6 5 6 7 7 8 10 12 12 13 12 12 12 12 13 15 16 14 13 11 12 13 11 12 12 9 9 9 8 8 7 7 7 6